[[{"header":{"parameterUnit":"m.s-1","parameterCategory":1,"la1":31.0,"la2":29.5877,"lo1":-88.7671,"lo2":-86.6584,"dy":0.0162,"dx":0.0185,"nx":115,"ny":88,"refTime":"2023-10-11T06:00:00:Z","depth":0,"parameterNumber":2,"parameterNumberName":"U-component_of_WINDS"},"data":[0.0,0.0,0.0,0.0,0.0,0.0,0.0,0.0,0.0,0.0,0.0,0.0,0.0,0.0,0.0,0.0,0.0,0.0,0.0,0.0,0.0,0.0,0.0,0.0,0.0,0.0,0.0,0.0,0.0,0.0,0.0,0.0,0.0,0.0,0.0,0.0,0.0,0.0,0.0,0.0,0.0,0.0,0.0,0.0,0.0,0.0,0.0,0.0,0.0,0.0,0.0,0.0,0.0,0.0,0.0,0.0,0.0,0.0,0.0,0.0,0.0,0.0,0.0,0.0,0.0,0.0,0.0,0.0,0.0,0.0,0.0,0.0,0.0,0.0,0.0,0.0,0.0,0.0,0.0,0.0,0.0,0.0,0.0,0.0,0.0,0.0,0.0,0.0,0.0,0.0,0.0,0.0,0.0,0.0,0.0,0.0,0.0,0.0,0.0,0.0,0.0,0.0,0.0,0.0,0.0,0.0,0.0,0.0,0.0,0.0,0.0,0.0,0.0,0.0,0.0,0.0,0.0,0.0,0.0,0.0,0.0,0.0,0.0,0.0,0.0,0.0,0.0,0.0,0.0,0.0,0.0,0.0,0.0,0.0,0.0,0.0,0.0,0.0,0.0,0.0,0.0,0.0,0.0,0.0,0.0,0.0,0.0,0.0,0.0,0.0,0.0,0.0,0.0,0.0,0.0,0.0,0.0,0.0,0.0,0.0,0.0,0.0,0.0,0.0,0.0,0.0,0.0,0.0,0.0,0.0,0.0,0.0,0.0,0.0,0.0,0.0,0.0,0.0,0.0,0.0,0.0,0.0,0.0,0.0,0.0,0.0,0.0,0.0,0.0,0.0,0.0,0.0,0.0,0.0,0.0,0.0,0.0,0.0,0.0,0.0,0.0,0.0,0.0,0.0,0.0,0.0,0.0,0.0,0.0,0.0,0.0,0.0,0.0,0.0,0.0,0.0,0.0,0.0,0.0,0.0,0.0,0.0,0.0,0.0,0.0,0.0,0.0,0.0,0.0,0.0,0.0,0.0,0.0,0.0,0.0,0.0,0.0,0.0,0.0,0.0,0.0,0.0,0.0,0.0,0.0,0.0,0.0,0.0,0.0,0.0,0.0,0.0,0.0,0.0,0.0,0.0,0.0,0.0,0.0,0.0,0.0,0.0,0.0,0.0,0.0,0.0,0.0,0.0,0.0,0.0,0.0,0.0,0.0,0.0,0.0,0.0,0.0,0.0,0.0,0.0,0.0,0.0,0.0,0.0,0.0,0.0,0.0,0.0,0.0,0.0,0.0,0.0,0.0,0.0,0.0,0.0,0.0,0.0,0.0,0.0,0.0,0.0,0.0,0.0,0.0,0.0,0.0,0.0,0.0,0.0,0.0,0.0,0.0,0.0,0.0,0.0,0.0,0.0,0.0,0.0,0.0,0.0,0.0,0.0,0.0,0.0,0.0,0.0,0.0,0.0,0.0,0.0,0.0,0.0,0.0,0.0,0.0,0.0,0.0,0.0,0.0,0.0,0.0,0.0,0.0,0.0,0.0,0.0,0.0,0.0,0.0,0.0,0.0,0.0,0.0,0.0,0.0,0.0,0.0,0.0,0.0,0.0,0.0,0.0,0.0,0.0,0.0,0.0,0.0,0.0,0.0,0.0,0.0,0.0,0.0,0.0,0.0,0.0,0.0,0.0,0.0,0.0,0.0,0.0,0.0,0.0,0.0,0.0,0.0,0.0,0.0,0.0,0.0,0.0,0.0,0.0,0.0,0.0,0.0,0.0,0.0,0.0,0.0,0.0,0.0,0.0,0.0,0.0,0.0,0.0,0.0,0.0,0.0,0.0,0.0,0.0,0.0,0.0,0.0,0.0,0.0,0.0,0.0,0.0,0.0,0.0,0.0,0.0,0.0,0.0,0.0,0.0,0.0,0.0,0.0,0.0,0.0,0.0,0.0,0.0,0.0,0.0,0.0,0.0,0.0,0.0,0.0,0.0,0.0,0.0,0.0,0.0,0.0,0.0,0.0,0.0,0.0,0.0,0.0,0.0,0.0,0.0,0.0,0.0,0.0,0.0,0.0,0.0,0.0,0.0,0.0,0.0,0.0,0.0,0.0,0.0,0.0,0.0,0.0,0.0,0.0,0.0,0.0,0.0,0.0,0.0,0.0,0.0,0.0,0.0,0.0,0.0,0.0,0.0,0.0,0.0,0.0,0.0,0.0,0.0,0.0,0.0,0.0,0.0,0.0,0.0,0.0,0.0,0.0,0.0,0.0,0.0,0.0,0.0,0.0,0.0,0.0,0.0,0.0,0.0,0.0,0.0,0.0,0.0,0.0,0.0,0.0,0.0,0.0,0.0,0.0,0.0,0.0,0.0,0.0,0.0,0.0,0.0,0.0,0.0,0.0,0.0,0.0,0.0,0.0,0.0,0.0,0.0,0.0,0.0,0.0,0.0,0.0,0.0,0.0,0.0,0.0,0.0,0.0,0.0,0.0,0.0,0.0,0.0,0.0,0.0,0.0,0.0,0.0,0.0,0.0,0.0,0.0,0.0,0.0,0.0,0.0,0.0,0.0,0.0,0.0,0.0,0.0,0.0,0.0,0.0,0.0,0.0,0.0,0.0,0.0,0.0,0.0,0.0,0.0,0.0,0.0,0.0,0.0,0.0,0.0,0.0,0.0,0.0,0.0,0.0,0.0,0.0,0.0,0.0,0.0,0.0,0.0,0.0,0.0,0.0,0.0,0.0,0.0,0.0,0.0,0.0,0.0,0.0,0.0,0.0,0.0,0.0,0.0,0.0,0.0,0.0,0.0,0.0,0.0,0.0,0.0,0.0,0.0,0.0,0.0,0.0,0.0,0.0,0.0,0.0,0.0,0.0,0.0,0.0,0.0,0.0,0.0,0.0,0.0,0.0,0.0,0.0,0.0,0.0,0.0,0.0,0.0,0.0,0.0,0.0,0.0,0.0,0.0,0.0,0.0,0.0,0.0,0.0,0.0,0.0,0.0,0.0,0.0,0.0,0.0,0.0,0.0,0.0,0.0,0.0,0.0,0.0,0.0,0.0,0.0,0.0,0.0,0.0,0.0,0.0,0.0,0.0,0.0,0.0,0.0,0.0,0.0,0.0,0.0,0.0,0.0,0.0,0.0,0.0,0.0,0.0,0.0,0.0,0.0,0.0,0.0,0.0,0.0,0.0,0.0,0.0,0.0,0.0,0.0,0.0,0.0,0.0,0.0,0.0,0.0,0.0,0.0,0.0,0.0,0.0,0.0,0.0,0.0,0.0,0.0,0.0,0.0,0.0,0.0,0.0,0.0,0.0,0.0,0.0,0.0,0.0,0.0,0.0,0.0,0.0,0.0,0.0,0.0,0.0,0.0,0.0,0.0,0.0,0.0,0.0,0.0,0.0,0.0,0.0,0.0,0.0,0.0,0.0,0.0,0.0,0.0,0.0,0.0,0.0,0.0,0.0,0.0,0.0,0.0,0.0,0.0,0.0,0.0,0.0,0.0,0.0,0.0,0.0,0.0,0.0,0.0,0.0,0.0,0.0,0.0,0.0,0.0,0.0,0.0,0.0,0.0,0.0,0.0,0.0,0.0,0.0,0.0,0.0,0.0,0.0,0.0,0.0,0.0,0.0,0.0,0.0,0.0,0.0,0.0,0.0,0.0,0.0,0.0,0.0,0.0,0.0,0.0,0.0,0.0,0.0,0.0,0.0,0.0,0.0,0.0,0.0,0.0,0.0,0.0,0.0,0.0,0.0,0.0,0.0,0.0,0.0,0.0,0.0,0.0,0.0,0.0,0.0,0.0,0.0,0.0,0.0,0.0,0.0,0.0,0.0,0.0,0.0,0.0,0.0,0.0,0.0,0.0,0.0,0.0,0.0,0.0,0.0,0.0,0.0,0.0,0.0,0.0,0.0,0.0,0.0,0.0,0.0,0.0,0.0,0.0,0.0,0.0,0.0,0.0,0.0,0.0,0.0,0.0,0.0,0.0,0.0,0.0,0.0,0.0,0.0,0.0,0.0,0.0,0.0,0.0,0.0,0.0,0.0,0.0,0.0,0.0,0.0,0.0,0.0,0.0,0.0,0.0,0.0,0.0,0.0,0.0,0.0,0.0,0.0,0.0,0.0,0.0,0.0,0.0,0.0,0.0,0.0,0.0,0.0,0.0,0.0,0.0,0.0,0.0,0.0,0.0,0.0,0.0,0.0,0.0,0.0,0.0,0.0,0.0,0.0,0.0,0.0,0.0,0.0,0.0,0.0,0.0,0.0,0.0,0.0,2.5237,0.0,0.0,0.0,0.0,0.0,0.0,0.0,0.0,0.0,0.0,0.0,0.0,0.0,0.0,0.0,0.0,0.0,0.0,0.0,0.0,0.0,0.0,0.0,0.0,0.0,0.0,0.0,0.0,0.0,0.0,0.0,0.0,0.0,0.0,0.0,0.0,0.0,0.0,0.0,0.0,0.0,0.0,0.0,0.0,0.0,0.0,0.0,0.0,0.0,0.0,0.0,0.0,0.0,0.0,0.0,0.0,0.0,0.0,0.0,0.0,0.0,0.0,0.0,0.0,0.0,0.0,0.0,0.0,0.0,0.0,0.0,0.0,0.0,0.0,0.0,0.0,0.0,0.0,0.0,0.0,0.0,0.0,0.0,0.0,0.0,0.0,0.0,0.0,0.0,0.0,0.0,0.0,0.0,0.0,0.0,0.0,0.0,0.0,0.0,0.0,0.0,0.0,0.0,0.0,0.0,0.0,0.0,0.0,0.0,0.0,2.7638,2.7273,2.6869,2.6707,2.6707,0.0,0.0,0.0,0.0,0.0,0.0,0.0,0.0,0.0,0.0,0.0,0.0,0.0,0.0,0.0,0.0,0.0,0.0,0.0,0.0,0.0,0.0,0.0,0.0,0.0,0.0,0.0,0.0,0.0,0.0,0.0,0.0,0.0,0.0,0.0,0.0,0.0,0.0,0.0,0.0,0.0,0.0,0.0,0.0,0.0,0.0,0.0,0.0,0.0,0.0,0.0,0.0,0.0,0.0,0.0,0.0,0.0,0.0,0.0,0.0,0.0,0.0,0.0,0.0,0.0,0.0,0.0,0.0,0.0,0.0,0.0,0.0,0.0,0.0,0.0,0.0,0.0,0.0,0.0,0.0,0.0,0.0,0.0,0.0,0.0,0.0,0.0,0.0,0.0,0.0,0.0,0.0,0.0,0.0,0.0,0.0,0.0,0.0,0.0,0.0,0.0,0.0,0.0,0.0,0.0,0.0,0.0,0.0,0.0,0.0,0.0,0.0,2.8705,2.8705,2.8338,0.0,0.0,0.0,0.0,0.0,0.0,0.0,0.0,0.0,0.0,0.0,0.0,0.0,0.0,0.0,0.0,0.0,0.0,0.0,0.0,0.0,0.0,0.0,0.0,0.0,0.0,0.0,0.0,0.0,0.0,0.0,0.0,0.0,0.0,0.0,0.0,0.0,0.0,0.0,0.0,0.0,0.0,0.0,0.0,0.0,0.0,0.0,0.0,0.0,0.0,0.0,0.0,0.0,0.0,0.0,0.0,0.0,0.0,0.0,0.0,0.0,0.0,0.0,0.0,0.0,0.0,0.0,0.0,0.0,0.0,0.0,0.0,0.0,0.0,0.0,0.0,0.0,0.0,0.0,0.0,0.0,0.0,0.0,0.0,0.0,0.0,0.0,0.0,0.0,0.0,0.0,0.0,0.0,0.0,0.0,0.0,0.0,0.0,0.0,0.0,0.0,0.0,0.0,0.0,0.0,0.0,0.0,0.0,0.0,0.0,3.0706,3.0026,3.1384,0.0,2.9953,0.0,0.0,0.0,0.0,0.0,0.0,0.0,0.0,0.0,0.0,0.0,0.0,0.0,0.0,0.0,0.0,0.0,0.0,0.0,0.0,0.0,0.0,0.0,0.0,0.0,0.0,0.0,0.0,0.0,0.0,0.0,0.0,0.0,0.0,0.0,0.0,0.0,0.0,0.0,0.0,0.0,0.0,0.0,0.0,0.0,0.0,0.0,0.0,0.0,0.0,0.0,0.0,0.0,0.0,0.0,0.0,0.0,0.0,0.0,0.0,0.0,0.0,0.0,0.0,0.0,0.0,0.0,0.0,0.0,0.0,0.0,0.0,0.0,0.0,0.0,0.0,0.0,0.0,0.0,0.0,0.0,0.0,0.0,0.0,0.0,0.0,0.0,0.0,0.0,0.0,0.0,0.0,0.0,0.0,0.0,0.0,0.0,0.0,0.0,0.0,0.0,0.0,0.0,0.0,0.0,0.0,0.0,0.0,0.0,0.0,3.1472,3.1641,3.2706,3.2999,0.0,0.0,0.0,0.0,0.0,0.0,0.0,0.0,0.0,0.0,0.0,0.0,0.0,0.0,0.0,0.0,0.0,0.0,0.0,0.0,0.0,0.0,0.0,0.0,0.0,0.0,0.0,0.0,0.0,0.0,0.0,0.0,0.0,0.0,0.0,0.0,0.0,0.0,0.0,0.0,0.0,0.0,0.0,0.0,0.0,0.0,0.0,0.0,0.0,0.0,0.0,0.0,0.0,0.0,0.0,0.0,0.0,0.0,0.0,0.0,0.0,0.0,0.0,0.0,0.0,0.0,0.0,0.0,0.0,0.0,0.0,0.0,0.0,0.0,0.0,0.0,0.0,0.0,0.0,0.0,0.0,0.0,0.0,0.0,0.0,0.0,0.0,0.0,0.0,0.0,0.0,0.0,0.0,0.0,0.0,0.0,0.0,0.0,0.0,0.0,0.0,0.0,0.0,0.0,0.0,0.0,0.0,0.0,0.0,0.0,3.1316,3.2776,3.4183,3.4174,3.4137,3.41,0.0,0.0,0.0,0.0,0.0,0.0,0.0,0.0,0.0,0.0,0.0,0.0,0.0,0.0,0.0,0.0,0.0,0.0,0.0,0.0,0.0,0.0,0.0,0.0,0.0,0.0,0.0,0.0,0.0,0.0,0.0,0.0,0.0,0.0,0.0,0.0,0.0,0.0,0.0,0.0,0.0,0.0,0.0,0.0,0.0,0.0,0.0,0.0,0.0,0.0,0.0,0.0,0.0,0.0,0.0,0.0,0.0,0.0,0.0,0.0,0.0,0.0,0.0,0.0,0.0,0.0,0.0,0.0,0.0,0.0,0.0,0.0,0.0,0.0,0.0,0.0,0.0,0.0,0.0,0.0,0.0,0.0,0.0,0.0,0.0,0.0,0.0,0.0,0.0,0.0,0.0,0.0,0.0,0.0,0.0,0.0,0.0,0.0,0.0,0.0,0.0,0.0,0.0,0.0,0.0,0.0,0.0,0.0,2.9122,3.2119,3.5184,3.8175,3.6156,3.4954,0.0,0.0,0.0,0.0,0.0,0.0,0.0,0.0,0.0,0.0,0.0,0.0,0.0,0.0,0.0,0.0,0.0,0.0,0.0,0.0,0.0,0.0,0.0,0.0,0.0,0.0,0.0,0.0,0.0,0.0,0.0,0.0,0.0,0.0,0.0,0.0,0.0,0.0,0.0,0.0,0.0,0.0,0.0,0.0,0.0,0.0,0.0,0.0,0.0,0.0,0.0,0.0,0.0,0.0,0.0,0.0,0.0,0.0,0.0,0.0,0.0,0.0,0.0,0.0,0.0,0.0,0.0,0.0,0.0,0.0,0.0,0.0,0.0,0.0,0.0,0.0,0.0,0.0,0.0,0.0,0.0,0.0,0.0,0.0,0.0,0.0,0.0,0.0,0.0,0.0,0.0,0.0,0.0,0.0,0.0,0.0,0.0,0.0,0.0,0.0,0.0,0.0,0.0,0.0,0.0,0.0,0.0,0.0,0.0,2.9806,3.3433,3.6465,3.8542,3.6853,3.5605,0.0,0.0,0.0,0.0,0.0,0.0,0.0,0.0,0.0,0.0,0.0,0.0,0.0,0.0,0.0,0.0,0.0,0.0,0.0,0.0,0.0,0.0,0.0,0.0,0.0,0.0,0.0,0.0,0.0,0.0,0.0,0.0,0.0,0.0,0.0,0.0,0.0,0.0,0.0,0.0,0.0,0.0,0.0,0.0,0.0,0.0,0.0,0.0,0.0,0.0,0.0,0.0,0.0,0.0,0.0,0.0,0.0,0.0,0.0,0.0,0.0,0.0,0.0,0.0,0.0,0.0,0.0,0.0,0.0,0.0,0.0,0.0,0.0,0.0,0.0,0.0,0.0,0.0,0.0,0.0,0.0,0.0,0.0,0.0,0.0,0.0,0.0,0.0,0.0,0.0,0.0,0.0,0.0,0.0,0.0,0.0,0.0,0.0,0.0,0.0,0.0,0.0,0.0,0.0,0.0,0.0,0.0,0.0,0.0,3.2114,0.0,3.7734,3.8982,3.7551,3.6009,0.0,0.0,0.0,0.0,0.0,0.0,0.0,0.0,0.0,0.0,0.0,0.0,0.0,0.0,0.0,0.0,0.0,0.0,0.0,0.0,0.0,0.0,0.0,0.0,0.0,0.0,0.0,0.0,0.0,0.0,0.0,0.0,0.0,0.0,0.0,0.0,0.0,0.0,0.0,0.0,0.0,0.0,0.0,0.0,0.0,0.0,0.0,0.0,0.0,0.0,0.0,0.0,0.0,0.0,0.0,0.0,0.0,0.0,0.0,0.0,0.0,0.0,0.0,0.0,0.0,0.0,0.0,0.0,0.0,0.0,0.0,0.0,0.0,0.0,0.0,0.0,0.0,0.0,0.0,0.0,0.0,0.0,0.0,0.0,0.0,0.0,0.0,0.0,0.0,0.0,0.0,0.0,0.0,0.0,0.0,0.0,0.0,0.0,0.0,0.0,0.0,0.0,0.0,0.0,0.0,0.0,0.0,0.0,3.0655,3.6,3.7863,3.9093,3.9827,3.8395,3.6376,0.0,0.0,0.0,0.0,0.0,0.0,0.0,0.0,0.0,0.0,0.0,0.0,0.0,0.0,0.0,0.0,0.0,0.0,0.0,0.0,0.0,0.0,0.0,0.0,0.0,0.0,0.0,0.0,0.0,0.0,0.0,0.0,0.0,0.0,0.0,0.0,0.0,0.0,0.0,0.0,0.0,0.0,0.0,0.0,0.0,0.0,0.0,0.0,0.0,0.0,0.0,0.0,0.0,0.0,0.0,0.0,0.0,0.0,0.0,0.0,0.0,0.0,0.0,0.0,0.0,0.0,0.0,0.0,0.0,0.0,0.0,0.0,0.0,0.0,0.0,0.0,0.0,0.0,0.0,0.0,0.0,0.0,0.0,0.0,0.0,0.0,0.0,0.0,0.0,0.0,0.0,0.0,0.0,0.0,0.0,0.0,0.0,0.0,0.0,0.0,0.0,0.0,0.0,0.0,0.0,0.0,0.0,0.0,0.0,3.7058,3.9199,4.0744,4.1479,3.9974,3.8021,0.0,0.0,0.0,0.0,0.0,0.0,0.0,0.0,0.0,0.0,0.0,0.0,0.0,0.0,0.0,0.0,0.0,0.0,0.0,0.0,0.0,0.0,0.0,0.0,0.0,0.0,0.0,0.0,0.0,0.0,0.0,0.0,0.0,0.0,0.0,0.0,0.0,0.0,0.0,0.0,0.0,0.0,0.0,0.0,0.0,0.0,0.0,0.0,0.0,0.0,0.0,0.0,0.0,0.0,0.0,0.0,0.0,0.0,0.0,0.0,0.0,0.0,0.0,0.0,0.0,0.0,0.0,0.0,0.0,0.0,0.0,0.0,0.0,0.0,0.0,0.0,0.0,0.0,0.0,0.0,0.0,0.0,0.0,0.0,0.0,0.0,0.0,0.0,0.0,0.0,0.0,0.0,0.0,0.0,0.0,0.0,0.0,0.0,0.0,0.0,0.0,0.0,0.0,0.0,0.0,0.0,0.0,0.0,0.0,4.0427,4.2103,4.3235,4.3713,4.2099,3.9921,3.6989,0.0,0.0,0.0,0.0,0.0,0.0,0.0,0.0,0.0,0.0,0.0,0.0,0.0,0.0,0.0,0.0,0.0,0.0,0.0,0.0,0.0,0.0,0.0,0.0,0.0,0.0,0.0,0.0,0.0,0.0,0.0,0.0,0.0,0.0,0.0,0.0,0.0,0.0,0.0,0.0,0.0,0.0,0.0,0.0,0.0,0.0,0.0,0.0,0.0,0.0,0.0,0.0,0.0,0.0,0.0,0.0,0.0,0.0,0.0,0.0,0.0,0.0,0.0,0.0,0.0,0.0,0.0,0.0,0.0,0.0,0.0,0.0,0.0,0.0,0.0,0.0,0.0,0.0,0.0,0.0,0.0,0.0,0.0,0.0,0.0,0.0,0.0,0.0,0.0,0.0,0.0,0.0,0.0,0.0,0.0,0.0,0.0,0.0,0.0,0.0,0.0,0.0,0.0,0.0,0.0,0.0,0.0,0.0,4.5611,4.6338,4.6541,4.6284,4.4699,4.2004,0.0,0.0,0.0,0.0,0.0,0.0,0.0,0.0,0.0,0.0,0.0,0.0,0.0,0.0,0.0,0.0,0.0,0.0,0.0,0.0,0.0,0.0,0.0,0.0,0.0,0.0,0.0,0.0,0.0,0.0,0.0,0.0,0.0,0.0,0.0,0.0,0.0,0.0,0.0,0.0,0.0,0.0,0.0,0.0,0.0,0.0,0.0,0.0,0.0,0.0,0.0,0.0,0.0,0.0,0.0,0.0,0.0,0.0,0.0,0.0,0.0,0.0,0.0,0.0,0.0,0.0,0.0,0.0,0.0,0.0,0.0,0.0,0.0,0.0,0.0,0.0,0.0,0.0,0.0,0.0,0.0,0.0,0.0,0.0,0.0,0.0,0.0,0.0,0.0,0.0,0.0,0.0,0.0,0.0,0.0,0.0,0.0,0.0,0.0,0.0,0.0,0.0,0.0,0.0,0.0,0.0,0.0,0.0,0.0,4.899,5.1765,5.1847,4.9152,4.762,4.5127,0.0,0.0,0.0,0.0,0.0,0.0,0.0,0.0,0.0,0.0,0.0,0.0,0.0,0.0,0.0,0.0,0.0,0.0,0.0,0.0,0.0,0.0,0.0,0.0,0.0,0.0,0.0,0.0,0.0,0.0,0.0,0.0,0.0,0.0,0.0,0.0,0.0,0.0,0.0,0.0,0.0,0.0,0.0,0.0,0.0,0.0,0.0,0.0,0.0,0.0,0.0,0.0,0.0,0.0,0.0,0.0,0.0,0.0,0.0,0.0,0.0,0.0,0.0,0.0,0.0,0.0,0.0,0.0,0.0,0.0,0.0,0.0,0.0,0.0,0.0,0.0,0.0,0.0,0.0,0.0,0.0,0.0,0.0,0.0,0.0,0.0,0.0,0.0,0.0,0.0,0.0,0.0,0.0,0.0,0.0,0.0,0.0,0.0,0.0,0.0,0.0,0.0,0.0,0.0,0.0,0.0,0.0,0.0,4.7695,5.118,5.4603,5.5352,5.3203,5.1222,4.839,0.0,0.0,0.0,0.0,0.0,0.0,0.0,0.0,0.0,0.0,0.0,0.0,0.0,0.0,0.0,0.0,0.0,0.0,0.0,0.0,0.0,0.0,0.0,0.0,0.0,0.0,0.0,0.0,0.0,0.0,0.0,0.0,0.0,0.0,0.0,0.0,0.0,0.0,0.0,0.0,0.0,0.0,0.0,0.0,0.0,0.0,0.0,0.0,0.0,0.0,0.0,0.0,0.0,0.0,0.0,0.0,0.0,0.0,0.0,0.0,0.0,0.0,0.0,0.0,0.0,0.0,0.0,0.0,0.0,0.0,0.0,0.0,0.0,0.0,0.0,0.0,0.0,0.0,0.0,0.0,0.0,0.0,0.0,0.0,0.0,0.0,0.0,0.0,0.0,0.0,0.0,0.0,0.0,0.0,0.0,0.0,0.0,0.0,0.0,0.0,0.0,0.0,0.0,0.0,0.0,0.0,0.0,0.0,4.9889,5.2921,5.6034,5.7658,5.7642,5.4843,5.145,0.0,0.0,0.0,0.0,0.0,0.0,0.0,0.0,0.0,0.0,0.0,0.0,0.0,0.0,0.0,0.0,0.0,0.0,0.0,0.0,0.0,0.0,0.0,0.0,0.0,0.0,0.0,0.0,0.0,0.0,0.0,0.0,0.0,0.0,0.0,0.0,0.0,0.0,0.0,0.0,0.0,0.0,0.0,0.0,0.0,0.0,0.0,0.0,0.0,0.0,0.0,0.0,0.0,0.0,0.0,0.0,0.0,0.0,0.0,0.0,0.0,0.0,0.0,0.0,0.0,0.0,0.0,0.0,0.0,0.0,0.0,0.0,0.0,0.0,0.0,0.0,0.0,0.0,0.0,0.0,0.0,0.0,0.0,0.0,0.0,0.0,0.0,0.0,0.0,0.0,0.0,0.0,0.0,0.0,0.0,0.0,0.0,0.0,0.0,0.0,0.0,0.0,0.0,0.0,0.0,0.0,0.0,0.0,5.2447,5.6463,5.8654,5.9779,5.9824,5.6539,5.2997,0.0,0.0,0.0,0.0,0.0,0.0,0.0,0.0,0.0,0.0,0.0,0.0,0.0,0.0,0.0,0.0,0.0,0.0,0.0,0.0,0.0,0.0,0.0,0.0,0.0,0.0,0.0,0.0,0.0,0.0,0.0,0.0,0.0,0.0,0.0,0.0,0.0,0.0,0.0,0.0,0.0,0.0,0.0,0.0,0.0,0.0,0.0,0.0,3.4898,0.0,0.0,0.0,0.0,0.0,0.0,0.0,0.0,0.0,0.0,0.0,0.0,0.0,0.0,0.0,0.0,0.0,0.0,0.0,0.0,0.0,0.0,0.0,0.0,0.0,0.0,0.0,0.0,0.0,0.0,0.0,0.0,0.0,0.0,0.0,0.0,0.0,0.0,0.0,0.0,0.0,0.0,0.0,0.0,0.0,0.0,0.0,0.0,0.0,0.0,0.0,0.0,0.0,0.0,0.0,0.0,0.0,0.0,0.0,5.4161,5.7679,5.9546,6.0506,6.0546,5.8362,5.5288,0.0,0.0,0.0,0.0,0.0,0.0,0.0,0.0,0.0,0.0,0.0,0.0,0.0,0.0,0.0,0.0,0.0,0.0,0.0,0.0,0.0,0.0,0.0,0.0,0.0,0.0,0.0,0.0,0.0,0.0,0.0,0.0,0.0,0.0,0.0,0.0,0.0,0.0,0.0,0.0,0.0,0.0,0.0,0.0,0.0,0.0,0.0,0.0,0.0,0.0,0.0,0.0,0.0,0.0,0.0,0.0,0.0,0.0,0.0,0.0,0.0,0.0,0.0,0.0,0.0,0.0,0.0,0.0,0.0,0.0,0.0,0.0,0.0,0.0,0.0,0.0,0.0,0.0,0.0,0.0,0.0,0.0,0.0,0.0,0.0,0.0,0.0,0.0,0.0,0.0,0.0,0.0,0.0,0.0,0.0,0.0,0.0,0.0,0.0,0.0,0.0,0.0,0.0,0.0,0.0,0.0,0.0,5.1342,5.5298,5.8207,5.9805,6.0649,6.0685,5.984,5.7373,5.3062,0.0,0.0,0.0,0.0,0.0,0.0,0.0,0.0,0.0,0.0,0.0,0.0,0.0,0.0,0.0,0.0,0.0,0.0,0.0,0.0,0.0,0.0,0.0,0.0,0.0,0.0,0.0,0.0,0.0,0.0,0.0,0.0,0.0,0.0,0.0,0.0,0.0,0.0,3.0224,3.4569,0.0,0.0,0.0,0.0,0.0,0.0,0.0,0.0,3.9747,0.0,0.0,0.0,0.0,0.0,0.0,0.0,0.0,0.0,0.0,0.0,0.0,0.0,0.0,0.0,0.0,0.0,0.0,0.0,0.0,0.0,0.0,0.0,0.0,0.0,0.0,0.0,0.0,0.0,0.0,0.0,0.0,0.0,0.0,0.0,0.0,0.0,0.0,0.0,0.0,0.0,0.0,0.0,0.0,0.0,0.0,0.0,0.0,0.0,0.0,0.0,0.0,0.0,0.0,0.0,0.0,4.8251,5.1939,5.587,6.0061,6.0391,6.0559,6.0685,5.984,5.7443,5.3276,0.0,0.0,0.0,0.0,0.0,0.0,0.0,0.0,0.0,0.0,0.0,0.0,0.0,0.0,0.0,0.0,0.0,0.0,0.0,0.0,0.0,0.0,0.0,0.0,0.0,0.0,0.0,0.0,0.0,0.0,0.0,0.0,0.0,0.0,0.0,0.0,0.0,0.0,0.0,3.9551,4.1106,0.0,0.0,0.0,0.0,0.0,0.0,0.0,0.0,4.2472,0.0,0.0,0.0,0.0,0.0,0.0,0.0,0.0,0.0,0.0,0.0,0.0,0.0,0.0,0.0,0.0,0.0,0.0,0.0,0.0,0.0,0.0,0.0,0.0,0.0,0.0,0.0,0.0,0.0,0.0,0.0,0.0,0.0,0.0,0.0,0.0,0.0,0.0,0.0,0.0,0.0,0.0,0.0,0.0,0.0,0.0,0.0,0.0,0.0,0.0,0.0,0.0,0.0,0.0,0.0,4.9365,5.3798,5.7545,6.047,6.0649,6.0916,6.1349,6.0157,5.772,0.0,0.0,0.0,0.0,0.0,0.0,0.0,0.0,0.0,0.0,0.0,0.0,0.0,0.0,0.0,0.0,0.0,0.0,0.0,0.0,0.0,0.0,0.0,0.0,0.0,0.0,0.0,0.0,0.0,0.0,0.0,0.0,0.0,0.0,0.0,0.0,0.0,0.0,0.0,0.0,4.2159,4.3761,4.504,0.0,0.0,0.0,0.0,0.0,0.0,4.6764,4.5406,0.0,0.0,0.0,0.0,0.0,0.0,0.0,0.0,0.0,0.0,0.0,0.0,0.0,0.0,0.0,0.0,0.0,0.0,0.0,0.0,0.0,0.0,0.0,0.0,0.0,0.0,0.0,0.0,0.0,0.0,0.0,0.0,0.0,0.0,0.0,0.0,0.0,0.0,0.0,0.0,0.0,0.0,0.0,0.0,0.0,0.0,0.0,0.0,0.0,0.0,0.0,0.0,0.0,0.0,0.0,5.0367,5.5632,5.9191,6.0827,6.1132,6.1627,6.2281,6.0473,5.7934,0.0,0.0,0.0,0.0,0.0,0.0,0.0,0.0,0.0,0.0,0.0,0.0,0.0,0.0,0.0,0.0,0.0,0.0,0.0,0.0,0.0,0.0,0.0,0.0,0.0,0.0,0.0,0.0,0.0,0.0,0.0,0.0,0.0,0.0,0.0,0.0,0.0,0.0,0.0,0.0,0.0,4.603,4.8453,4.7719,0.0,0.0,0.0,0.0,4.9187,4.9297,0.0,0.0,0.0,0.0,0.0,0.0,0.0,0.0,0.0,0.0,0.0,0.0,0.0,0.0,0.0,0.0,0.0,0.0,0.0,0.0,0.0,0.0,0.0,0.0,0.0,0.0,0.0,0.0,0.0,0.0,0.0,0.0,0.0,0.0,0.0,0.0,0.0,0.0,0.0,0.0,0.0,0.0,0.0,0.0,0.0,0.0,0.0,0.0,0.0,0.0,0.0,0.0,0.0,0.0,0.0,0.0,5.1362,5.646,5.9996,6.1834,6.2554,6.3002,6.3128,6.0781,5.7934,0.0,0.0,0.0,0.0,0.0,0.0,0.0,0.0,0.0,0.0,0.0,0.0,0.0,0.0,0.0,0.0,0.0,0.0,0.0,0.0,0.0,0.0,0.0,0.0,0.0,0.0,0.0,0.0,0.0,0.0,0.0,0.0,0.0,0.0,0.0,0.0,0.0,0.0,0.0,0.0,0.0,4.7681,5.0178,5.0362,4.9958,0.0,0.0,5.172,5.2527,5.2637,0.0,0.0,0.0,0.0,0.0,0.0,0.0,0.0,0.0,0.0,0.0,0.0,0.0,0.0,0.0,0.0,0.0,0.0,0.0,0.0,0.0,0.0,0.0,0.0,0.0,0.0,0.0,0.0,0.0,0.0,0.0,0.0,0.0,0.0,0.0,0.0,0.0,0.0,0.0,0.0,0.0,0.0,0.0,0.0,0.0,0.0,0.0,0.0,0.0,0.0,0.0,0.0,0.0,0.0,0.0,4.6636,5.1637,5.7695,6.1453,6.2694,6.3078,6.3526,6.4012,6.1089,5.8165,0.0,0.0,0.0,0.0,0.0,0.0,0.0,0.0,0.0,0.0,0.0,0.0,0.0,0.0,0.0,0.0,0.0,0.0,0.0,0.0,0.0,0.0,0.0,0.0,0.0,0.0,0.0,0.0,0.0,0.0,0.0,0.0,0.0,0.0,0.0,0.0,0.0,0.0,0.0,0.0,0.0,0.0,5.1206,5.227,0.0,0.0,0.0,5.3995,5.3922,0.0,0.0,0.0,0.0,0.0,0.0,0.0,0.0,0.0,0.0,0.0,0.0,0.0,0.0,0.0,0.0,0.0,0.0,0.0,0.0,0.0,0.0,0.0,0.0,0.0,0.0,0.0,0.0,0.0,0.0,0.0,0.0,0.0,0.0,0.0,0.0,0.0,0.0,0.0,0.0,0.0,0.0,0.0,0.0,0.0,0.0,0.0,0.0,0.0,0.0,0.0,0.0,0.0,0.0,0.0,0.0,0.0,5.2395,5.9211,6.2988,6.3553,6.3834,6.4282,6.482,6.2012,0.0,0.0,0.0,0.0,0.0,0.0,0.0,0.0,0.0,0.0,0.0,0.0,0.0,0.0,0.0,0.0,0.0,0.0,0.0,0.0,0.0,0.0,0.0,0.0,0.0,0.0,0.0,2.5878,0.0,0.0,0.0,0.0,0.0,0.0,0.0,0.0,0.0,0.0,0.0,0.0,0.0,0.0,5.0251,5.2307,5.3995,5.4987,0.0,0.0,5.5684,5.5097,5.5831,5.4913,0.0,0.0,0.0,0.0,0.0,0.0,0.0,0.0,0.0,0.0,0.0,0.0,0.0,0.0,0.0,0.0,0.0,0.0,0.0,0.0,0.0,0.0,0.0,0.0,0.0,0.0,0.0,0.0,0.0,0.0,0.0,0.0,0.0,0.0,0.0,0.0,0.0,0.0,0.0,0.0,0.0,0.0,0.0,0.0,0.0,0.0,0.0,0.0,0.0,0.0,0.0,0.0,0.0,0.0,0.0,5.4233,6.095,6.4436,6.4551,6.532,6.5743,6.5782,6.4012,6.1089,0.0,0.0,0.0,0.0,0.0,0.0,0.0,0.0,0.0,0.0,0.0,0.0,0.0,0.0,0.0,0.0,0.0,0.0,0.0,0.0,0.0,0.0,0.0,0.0,0.0,0.0,0.0,0.0,0.0,0.0,0.0,0.0,0.0,0.0,0.0,0.0,0.0,0.0,0.0,0.0,0.0,5.0729,5.3812,5.5611,5.6638,0.0,0.0,5.6712,5.6638,5.796,5.7593,5.3518,0.0,0.0,0.0,0.0,0.0,0.0,0.0,0.0,0.0,0.0,0.0,0.0,0.0,0.0,0.0,0.0,0.0,0.0,0.0,0.0,0.0,0.0,0.0,0.0,0.0,0.0,0.0,0.0,0.0,0.0,0.0,0.0,0.0,0.0,0.0,0.0,0.0,0.0,0.0,0.0,0.0,0.0,0.0,0.0,0.0,0.0,0.0,0.0,0.0,0.0,0.0,0.0,0.0,4.9336,5.4451,6.1166,6.4859,6.5397,6.5705,6.5897,6.5897,6.4205,6.155,0.0,0.0,0.0,0.0,0.0,0.0,0.0,0.0,0.0,0.0,0.0,0.0,0.0,0.0,0.0,0.0,0.0,0.0,0.0,0.0,0.0,0.0,0.0,0.0,0.0,0.0,0.0,0.0,4.1662,4.2727,4.0598,0.0,0.0,0.0,0.0,0.0,0.0,0.0,0.0,0.0,0.0,5.2637,5.484,5.6932,0.0,0.0,5.8731,5.8841,5.8364,5.8804,5.818,5.517,5.2931,0.0,0.0,0.0,0.0,0.0,0.0,0.0,0.0,0.0,0.0,0.0,0.0,0.0,0.0,0.0,0.0,0.0,0.0,0.0,0.0,0.0,0.0,0.0,0.0,0.0,0.0,0.0,0.0,0.0,0.0,0.0,0.0,0.0,0.0,0.0,0.0,0.0,0.0,0.0,0.0,0.0,0.0,0.0,0.0,0.0,0.0,0.0,0.0,0.0,0.0,0.0,0.0,5.0106,5.5203,6.1666,6.5282,6.5897,6.5897,6.5897,6.5859,6.4705,6.2627,0.0,0.0,0.0,0.0,0.0,0.0,0.0,0.0,0.0,0.0,0.0,0.0,0.0,0.0,0.0,0.0,0.0,0.0,0.0,0.0,0.0,0.0,0.0,0.0,0.0,0.0,0.0,0.0,4.4452,4.3938,3.9974,0.0,0.0,0.0,0.0,0.0,0.0,0.0,0.0,0.0,0.0,5.4509,5.6088,5.818,5.9575,5.9575,6.0052,6.0199,5.9648,5.9758,5.9171,5.7042,0.0,0.0,0.0,0.0,0.0,0.0,0.0,0.0,0.0,0.0,0.0,0.0,0.0,0.0,0.0,0.0,0.0,0.0,0.0,0.0,0.0,0.0,0.0,0.0,0.0,0.0,0.0,0.0,0.0,0.0,0.0,0.0,0.0,0.0,0.0,0.0,0.0,0.0,0.0,0.0,0.0,0.0,0.0,0.0,0.0,0.0,0.0,0.0,0.0,0.0,0.0,0.0,0.0,5.1856,5.6934,6.2858,6.5897,6.5936,6.5897,6.5974,6.5936,6.5859,6.4628,6.205,0.0,0.0,0.0,0.0,0.0,0.0,0.0,0.0,0.0,0.0,0.0,0.0,0.0,0.0,0.0,0.0,0.0,0.0,0.0,0.0,0.0,0.0,0.0,0.0,0.0,0.0,4.1222,4.3314,4.313,0.0,0.0,0.0,0.0,0.0,0.0,0.0,0.0,0.0,0.0,5.3004,5.6124,5.774,5.9355,6.0419,6.0382,6.0456,6.0456,6.0419,6.1043,6.1006,0.0,0.0,0.0,0.0,0.0,0.0,0.0,0.0,0.0,0.0,0.0,0.0,0.0,0.0,0.0,0.0,0.0,0.0,0.0,0.0,0.0,0.0,0.0,0.0,0.0,0.0,0.0,3.6497,3.4556,0.0,0.0,0.0,0.0,0.0,0.0,0.0,0.0,0.0,0.0,0.0,4.7754,4.9205,0.0,0.0,0.0,0.0,0.0,0.0,0.0,0.0,0.0,0.0,0.0,0.0,5.3549,5.8627,6.3935,6.6974,6.7552,6.7552,6.7552,6.7552,6.759,6.6359,6.382,0.0,0.0,0.0,0.0,0.0,0.0,0.0,0.0,0.0,0.0,0.0,0.0,0.0,0.0,0.0,0.0,0.0,0.0,0.0,0.0,0.0,0.0,0.0,0.0,0.0,4.366,0.0,0.0,0.0,0.0,0.0,0.0,0.0,0.0,0.0,0.0,0.0,5.0765,5.3959,5.6455,5.84,5.9465,6.097,6.1814,0.0,0.0,0.0,0.0,0.0,0.0,0.0,0.0,0.0,0.0,0.0,0.0,0.0,0.0,5.2454,4.8967,4.8783,4.8967,4.8453,0.0,0.0,0.0,0.0,0.0,0.0,0.0,0.0,0.0,0.0,0.0,0.0,0.0,0.0,0.0,0.0,3.9802,0.0,0.0,0.0,0.0,0.0,0.0,0.0,0.0,5.1423,5.3522,5.356,5.527,5.5945,0.0,5.4809,5.139,0.0,0.0,0.0,0.0,0.0,0.0,0.0,0.0,5.5895,6.0396,6.5422,6.8309,6.8821,6.9129,6.9283,6.9244,6.9013,6.809,6.6436,6.2589,5.9319,0.0,0.0,0.0,0.0,0.0,0.0,0.0,0.0,0.0,0.0,0.0,0.0,0.0,0.0,0.0,0.0,0.0,0.0,0.0,0.0,0.0,0.0,0.0,4.7256,0.0,0.0,0.0,0.0,0.0,0.0,0.0,0.0,0.0,4.7609,5.1389,5.5097,5.7703,5.9465,6.075,6.1594,0.0,0.0,0.0,0.0,0.0,0.0,0.0,6.4462,6.391,6.2855,6.2083,6.185,6.0709,5.9779,5.9685,0.0,0.0,5.4142,5.3739,5.3922,5.3408,5.3702,5.4069,5.4069,5.4509,5.5097,0.0,0.0,0.0,0.0,0.0,0.0,0.0,0.0,4.9967,4.8757,0.0,4.7296,0.0,0.0,0.0,0.0,0.0,0.0,0.0,0.0,5.8827,6.1142,5.9634,6.1243,6.1743,6.094,6.0098,5.9281,5.8182,5.2735,0.0,0.0,0.0,0.0,0.0,0.0,5.8858,6.2358,6.7256,6.9797,6.986,7.0591,7.0975,7.0975,7.0244,6.9821,6.9706,6.6551,6.4359,6.3358,5.6319,0.0,0.0,0.0,0.0,0.0,0.0,0.0,0.0,0.0,0.0,0.0,0.0,0.0,0.0,0.0,0.0,0.0,0.0,0.0,0.0,4.8912,0.0,0.0,0.0,0.0,0.0,0.0,0.0,0.0,0.0,0.0,5.1507,5.5324,5.8731,6.0346,0.0,0.0,0.0,0.0,6.4746,6.5483,6.5829,6.606,6.606,6.5964,6.5952,6.5952,0.0,0.0,6.4412,6.3566,6.2978,6.2965,6.3579,6.2892,5.9044,5.83,5.8253,5.8217,5.8253,5.8217,5.8253,5.8364,5.8584,5.5395,0.0,0.0,0.0,0.0,5.0894,5.2171,5.3567,5.4682,5.393,5.1893,5.17,0.0,0.0,0.0,0.0,0.0,0.0,5.5677,5.828,6.0911,6.2127,6.2219,6.3344,6.4075,6.4422,6.4782,6.5141,6.5436,6.3767,5.9388,5.2594,0.0,0.0,0.0,0.0,6.3166,6.6551,6.9848,7.1811,7.2399,7.2629,7.2783,7.2745,7.2552,7.2437,7.2399,7.0283,6.8436,6.6936,6.2512,0.0,0.0,0.0,0.0,0.0,0.0,0.0,0.0,0.0,0.0,0.0,0.0,0.0,0.0,0.0,0.0,0.0,0.0,0.0,5.1831,5.3497,5.3182,0.0,0.0,0.0,0.0,0.0,0.0,0.0,0.0,0.0,5.9875,6.104,6.2419,0.0,0.0,6.6038,6.6248,6.6766,6.7358,6.7933,0.0,0.0,0.0,6.9697,7.0029,7.0029,6.9622,6.8946,6.7996,6.7251,6.6687,6.6645,6.6341,6.5582,6.4294,6.3527,6.3222,6.3209,6.3209,6.3209,6.3209,6.3209,6.3246,6.045,5.7059,5.5412,5.4984,5.5508,5.6352,5.7497,5.8742,5.9281,5.8742,5.7511,5.728,5.572,5.3297,5.2448,0.0,0.0,0.0,5.9191,6.1824,6.3065,6.3858,6.4397,6.5538,6.6371,6.6896,6.7385,6.8052,6.8924,6.8936,6.6485,6.1824,0.0,0.0,6.1396,6.432,6.7013,6.9398,7.1887,7.3465,7.3976,7.4322,7.4514,7.4476,7.4168,7.3976,7.3976,7.2668,7.1475,7.0437,6.7513,6.3551,0.0,0.0,0.0,0.0,0.0,0.0,0.0,0.0,0.0,0.0,0.0,3.8108,3.8115,0.0,0.0,0.0,5.0726,5.4473,5.8711,5.8486,0.0,0.0,0.0,0.0,0.0,0.0,0.0,5.7918,6.1205,6.4027,6.582,6.6303,6.6537,6.6655,6.7496,6.8294,6.8687,0.0,6.9514,7.0084,7.0616,7.1044,7.1252,7.1668,7.193,7.1848,7.1474,7.106,7.0491,6.9962,6.9659,6.9582,6.9204,6.8744,6.8532,6.8027,6.7036,6.5713,6.5301,6.5301,6.5338,6.5338,6.5411,6.3707,6.3578,6.205,6.1219,6.1094,6.1848,6.2603,6.3281,6.3281,6.2897,6.2267,6.2983,6.2021,5.9881,5.9196,0.0,0.0,6.1365,6.2235,6.3783,6.5372,6.609,6.6167,6.7693,6.8488,6.8629,6.8602,6.9075,6.9986,6.999,7.0412,7.1122,6.8866,6.728,6.659,6.8783,7.0398,7.1206,7.3581,7.4812,7.4822,7.5592,7.5976,7.5976,7.5207,7.4822,7.4784,7.4014,7.3591,7.3514,7.1283,6.8859,6.6128,0.0,0.0,0.0,0.0,0.0,0.0,0.0,0.0,0.0,0.0,0.0,0.0,0.0,0.0,0.0,5.8256,0.0,6.5416,6.3332,0.0,0.0,0.0,5.6825,5.6996,5.8415,6.0327,6.2839,0.0,0.0,0.0,0.0,7.0644,6.8803,6.9222,7.0139,7.1246,7.1191,7.1291,7.2164,7.2396,7.2547,7.2773,7.2737,7.2624,7.2431,7.216,7.2238,7.22,7.2049,7.2046,7.2011,7.1971,7.1817,7.1855,7.1325,7.0228,6.6815,6.6036,6.5845,6.5977,6.6066,6.625,6.7218,6.7179,6.6756,6.5089,6.2746,6.2938,6.3117,6.332,6.332,6.3205,6.3012,6.3205,6.332,6.3411,6.3872,6.4666,6.5628,6.6295,6.6795,6.7218,6.7628,6.7821,6.7821,6.8205,6.9078,7.0259,7.0283,7.1091,7.2569,7.2611,7.3005,7.3726,7.3188,7.214,7.0821,7.1937,7.2976,7.3783,7.5053,7.5707,7.5707,7.5899,7.5976,7.5976,7.5822,7.5707,7.5707,7.4861,7.4437,7.4399,7.3283,7.1437,6.8898,6.3205,0.0,0.0,0.0,0.0,0.0,0.0,0.0,0.0,0.0,4.8798,4.999,0.0,5.8604,0.0,6.3372,6.5858,6.6518,6.5427,0.0,0.0,6.2118,6.1793,6.3083,6.4182,6.5826,6.8247,6.9589,7.0781,7.1822,7.2303,7.25,7.2226,7.2505,7.2851,7.3073,7.3077,7.3422,7.4326,7.4056,7.4045,7.4887,7.5111,7.5002,7.5009,7.5009,7.5009,7.5009,7.4434,7.4012,7.3974,7.3514,7.3035,7.2726,7.2432,7.19,7.0701,7.0105,6.9657,6.9221,6.9355,6.9545,6.8398,6.8398,6.8398,6.7295,6.5589,6.5577,6.5564,6.559,6.559,6.559,6.559,6.5576,6.5846,6.632,6.6795,6.7256,6.7705,6.8179,6.841,6.8448,6.914,6.9513,6.9552,7.0321,7.1156,7.2057,7.2041,7.2745,7.3966,7.4024,7.4456,7.5255,7.5293,7.4822,7.3937,7.4361,7.4822,7.5284,7.5745,7.5976,7.5976,7.5976,7.5822,7.5438,7.5438,7.5245,7.4899,7.4437,7.4168,7.4168,7.3745,7.2668,7.086,6.6359,6.1627,0.0,0.0,0.0,0.0,0.0,0.0,0.0,0.0,0.0,0.0,0.0,6.3397,0.0,6.6705,0.0,6.807,6.8004,6.7774,6.7247,6.7103,6.7381,6.8292,6.9232,7.0306,7.1628,7.251,7.3169,7.3494,7.4012,7.4395,7.4584,7.4694,7.4694,7.4519,7.459,7.4992,7.5577,7.5271,7.5149,7.5908,7.5976,7.5976,7.5976,7.5976,7.5976,7.5976,7.5592,7.5284,7.5245,7.4899,7.4533,7.4274,7.4002,7.3718,7.3535,7.3227,7.246,7.1057,7.0909,7.0995,6.9075,6.9075,6.9075,6.9075,6.9075,6.9064,6.8821,6.8398,6.8398,6.8398,6.8398,6.8411,6.8514,6.8719,6.8717,6.8883,6.9036,6.9075,6.9075,6.9152,7.0563,7.1245,7.1283,7.2783,7.3542,7.3647,7.3658,7.4063,7.4832,7.487,7.5255,7.5976,7.5976,7.5976,7.5976,7.5976,7.5976,7.5976,7.5976,7.5976,7.5976,7.5976,7.5592,7.4784,7.4707,7.4322,7.3553,7.3514,7.3514,7.3514,7.3514,7.3206,7.2476,6.8744,6.5166,0.0,5.8165,0.0,0.0,0.0,0.0,0.0,0.0,0.0,0.0,6.5128,6.6859,6.7667,6.9129,7.0025,7.0046,7.07,7.1161,7.1161,7.1852,7.2342,7.2514,7.3206,7.3707,7.3822,7.4437,7.4861,7.487,7.5515,7.5976,7.5908,7.584,7.571,7.548,7.5648,7.5908,7.5976,7.5976,7.587,7.5976,7.5976,7.5976,7.5976,7.5976,7.5976,7.5976,7.6092,7.6169,7.6169,7.6245,7.6322,7.6322,7.5961,7.5757,7.5723,7.565,7.479,7.2492,7.1891,7.178,7.2646,7.2569,7.2569,7.2542,7.2524,7.2552,7.0975,6.8398,6.8398,6.8398,6.8398,6.8398,6.9167,7.036,7.0437,7.1168,7.2531,7.2552,7.2524,7.2524,7.286,7.3014,7.3014,7.336,7.3822,7.4427,7.4466,7.4899,7.5745,7.5784,7.5861,7.5976,7.5976,7.5976,7.5976,0.0,0.0,0.0,7.5976,7.5976,7.5976,7.5976,7.5592,7.4745,7.4707,0.0,7.3553,7.3514,7.3514,7.3514,7.3514,0.0,0.0,0.0,0.0,0.0,0.0,0.0,0.0,0.0,0.0,0.0,6.7282,6.7282,6.7244,6.8898,7.0321,7.1168,7.1552,7.2014,7.2678,7.2909,7.2986,7.2986,7.314,7.3486,7.413,7.4361,7.4745,7.5438,7.5668,7.5745,7.5745,7.5899,7.5976,7.5976,7.5976,7.5947,7.5887,7.5955,7.5976,7.5976,7.6015,7.6015,7.5976,7.6053,7.6169,7.5976,7.5976,7.6053,7.613,7.6669,7.7053,7.7053,7.7553,7.7977,7.7977,7.7954,7.777,7.7885,7.7847,7.7083,7.4472,7.4136,7.4254,7.3745,0.0,7.363,7.3591,0.0,7.3486,7.2524,7.0937,7.0937,7.0898,7.0925,7.0925,7.1387,7.2195,7.2178,7.264,7.3476,7.3486,7.3486,7.3524,7.3909,7.4091,7.413,7.4514,7.4938,7.5351,7.5322,7.5553,7.5976,7.5976,7.5976,7.5976,7.5976,7.5976,7.6015,7.6438,7.6438,7.5976,7.5976,7.5976,7.5976,7.5976,7.5592,7.4745,0.0,0.0,0.0,0.0,0.0,0.0,0.0,0.0,0.0,0.0,0.0,7.0321,6.909,6.8359,6.8398,6.9167,7.036,7.2014,7.2552,7.2091,7.0437,7.1437,7.236,7.2783,7.3168,7.363,7.4053,7.4476,7.4745,7.4745,7.4745,7.4938,7.5245,7.5322,7.5515,7.5899,7.5976,7.5976,7.5976,7.5976,7.5976,7.5976,7.5976,7.6169,7.6515,7.6245,7.5976,7.6015,7.6399,7.663,7.6669,7.7015,7.7207,7.7246,7.7207,7.7207,7.7246,7.7592,7.7861,7.79,7.8246,7.8477,7.8477,7.8477,7.8477,7.8477,7.8477,7.8154,7.6685,7.6461,7.635,7.4422,7.4306,7.4263,7.4149,7.3995,7.3986,7.3976,7.3937,0.0,0.0,0.0,7.3493,7.357,7.3724,7.3716,7.3803,7.3918,7.3957,7.3957,7.3995,7.4601,7.4938,7.4976,7.5668,7.5976,7.5976,7.5976,7.5976,7.5976,7.5976,7.5976,7.6015,7.613,7.6284,7.6476,7.713,7.7169,7.6476,7.6438,7.6438,7.6438,7.6438,7.6053,7.5168,7.5168,7.4784,7.3976,7.3783,7.3707,7.3707,7.3591,7.3591,7.3668,7.3053,7.2399,7.186,7.1822,7.2129,7.2822,7.3514,7.4553,7.5899,7.5976,7.5091,7.3014,7.3553,7.3937,7.3937,7.4553,7.4938,7.4938,7.5553,7.5976,7.5976,7.5976,7.5976,7.5976,7.5976,7.5976,7.5976,7.5976,7.5976,7.6015,7.6169,7.6207,7.6245,7.6476,7.6669,7.7246,7.6976,7.6592,7.6669,7.713,7.7515,7.7592,7.7938,7.8438,7.8361,7.84,7.8477,7.8515,7.8746,7.8938,7.9015,7.9131,7.9515,7.9477,7.9631,7.94,7.94,7.94,7.94,7.94,7.9139,7.8632,7.6372,7.6209,7.6079,7.6015,7.5976,7.5887,7.5771,7.56,7.4158,7.3514,7.3476,7.3476,7.3899,7.4524,7.4524,7.4947,7.563,7.5668,7.5668,0.0,7.5784,7.5822,7.5822,7.5938,7.5976,7.5976,7.5976,7.5976,7.5976,7.6015,7.5976,7.6092,7.6746,7.7438,7.8092,7.8284,7.8284,7.813,7.813,7.813,7.813,7.8169,7.7746,7.6976,7.6938,7.6515,7.5668,7.4938,7.4553,7.4514,7.386,7.3822,7.4476,7.4437,7.463,7.5207,7.5284,7.5361,7.5438,7.5592,7.5745,7.5976,7.5976,7.5822,7.5515,7.5592,7.563,7.563,7.5707,7.5822,7.5822,7.5899,7.5976,7.5976,7.5976,7.5976,7.5976,7.6053,7.6053,7.6053,7.5976,7.6053,7.6207,7.6707,7.7092,7.7207,7.763,7.8207,7.8323,7.8207,7.8169,7.813,7.8207,7.8323,7.8477,7.8438,7.8784,7.8477,7.8707,7.89,7.8938,7.99,8.0669,8.0708,8.167,8.2477,8.2631,8.2862,8.2593,8.2477,8.2439,8.2554,8.2477,8.2452,8.1689,7.6935,7.6751,7.671,7.6611,7.6495,7.6353,7.625,7.6068,7.5347,7.4945,7.4861,7.4861,7.5053,7.537,7.5408,7.563,7.5976,7.5976,7.5976,7.5976,7.5976,7.5976,7.5976,7.5976,7.5976,7.5976,7.5976,7.6245,7.6659,7.6707,7.6938,7.7361,7.7784,7.813,7.8515,7.8977,7.9208,7.9169,7.8746,7.8515,7.8485,7.8515,7.8323,7.7938,7.7938,7.7746,7.7361,7.6976,7.6746,7.6746,7.6399,7.6361,7.6707,7.6784,7.6938,7.7323,7.6938,7.6707,7.6707,7.6245,7.5976,7.5976,7.5976,7.5976,7.5976,7.5976,7.5976,7.5976,7.5976,7.5976,7.5976,7.5976,7.5976,7.5976,7.5976,7.5976,7.6053,7.6438,7.6707,7.6746,7.7092,7.7361,7.7361,7.7707,7.7938,7.8015,7.8669,7.9361,7.9823,8.0285,8.0015,7.89,7.9246,7.9862,7.9939,8.0746,8.117,8.1285,8.1246,8.1246,8.1285,8.2054,8.2324,8.2439,8.317,8.3516,8.3632,8.3593,8.3593,8.3593,8.3593,8.3593,8.3593,8.3593,8.3016,7.7644,7.7536,7.7508,7.729,7.6962,7.6798,7.6582,7.6289,7.6225,7.6261,7.6303,7.6159,7.6015,7.5976,7.5976,7.5976,7.5976,7.5976,7.5976,7.5976,7.5976,7.6092,7.6284,7.6284,7.6361,7.6515,7.6553,7.6929,7.7506,7.7592,7.7985,7.8707,7.8784,7.8977,7.9361,8.0015,8.0477,8.0592,7.9977,7.9477,7.9107,7.9062,7.9054,7.9092,7.9092,7.9092,7.9054,7.89,7.8784,7.8784,7.8592,7.8477,7.8477,7.8477,7.8477,7.8438,7.79,7.7553,7.7515,7.6938,7.6553,7.6553,7.6553,7.6553,7.6553,7.6553,7.6476,7.6322,7.6515,7.663,7.6669,7.6592,7.6553,7.6553,7.6553,7.6669,7.663,7.7169,7.7553,7.763,7.813,7.8438,7.8515,7.8669,7.8977,7.9477,8.0092,8.0939,8.1593,8.2208,8.1631,8.0631,8.0823,8.1554,8.1747,8.2593,8.3324,8.3593,8.3478,8.3285,8.3362,8.3593,8.3862,8.3862,8.4286,8.4632,8.4516,8.4747,8.4939,8.5093,8.517,8.4978,8.5055,8.5055,8.4362,7.9453,7.9453,7.9297,7.8782,7.7985,7.7887,7.7334,7.6591,7.6417,7.6752,7.7279,7.6486,7.6092,7.6015,7.6053,7.6092,7.6092,7.6015,7.6053,7.6053,7.6015,7.6399,7.713,7.7169,7.7583,7.8151,7.816,7.8199,7.8382,7.8438,7.8869,7.9592,7.9669,8.0439,8.1747,8.1977,8.2401,8.324,8.317,8.2401,8.0977,8.0862,8.0862,8.0862,8.0862,8.0862,8.0823,8.0092,7.9708,7.9631,7.9015,7.8554,7.8584,7.8554,7.8515,7.8592,7.8477,7.84,7.84,7.8323,7.8207,7.8246,7.8207,7.8246,7.8246,7.8284,7.7938,7.7553,7.79,7.8092,7.8246,7.8169,7.8092,7.8015,7.8092,7.8284,7.8169,7.8323,7.84,7.84,7.8707,7.8515,7.8938,7.9477,8.0362,8.1554,8.2285,8.2901,8.317,8.3324,8.3555,8.317,8.3362,8.3324,8.3362,8.3401,8.3862,8.3785,8.3708,8.3939,8.4209,8.4593,8.4824,8.5363,8.6017,8.6748,8.7017,8.7594,8.794,8.7478,8.7594,8.8017,8.8171,8.7902,8.6901,7.9726,7.9687,7.9648,7.9414,7.8984,7.8955,7.8663,7.8215,7.8176,7.8307,7.8501,7.8155,7.7857,7.7574,7.7574,7.7535,7.7468,7.7468,7.7476,7.7476,7.7476,7.7669,7.7977,7.8015,7.8199,7.8468,7.8477,7.8784,7.9361,8.0246,8.117,8.1939,8.2054,8.2401,8.3016,8.3054,8.3247,8.3555,8.3593,8.3247,8.267,8.2593,8.2593,8.2593,8.2593,8.2554,8.2586,8.2314,8.2235,8.2196,8.1887,8.1694,8.1694,8.1694,8.1649,8.147,8.0554,7.9823,7.9285,7.8784,7.8707,7.9208,7.9285,7.9477,8.0015,8.0439,8.0592,8.0208,7.9208,7.8477,7.8554,7.8515,7.8477,7.8477,7.8477,7.8515,7.8477,7.9438,8.0054,8.0092,8.09,8.1477,8.1554,8.1823,8.2324,8.2978,8.3478,8.3862,8.4247,8.4362,8.4824,8.5593,8.5824,8.5363,8.4747,8.4786,8.5209,8.567,8.5824,8.5901,8.644,8.6786,8.7171,8.7055,8.7671,8.8132,8.8055,8.8325,8.8671,8.8748,8.8709,8.8671,8.8671,8.8671,8.7863,8.0429,8.0429,8.039,8.0234,8.0,7.9961,7.9789,7.947,7.9453,7.9505,7.9641,7.9641,7.9597,7.9412,7.8951,7.8661,7.8584,7.8545,7.8575,7.8575,7.8575,7.869,7.8883,7.9152,7.9383,7.9623,7.9922,8.0346,8.0931,8.2016,8.2978,8.3516,8.3593,8.3708,8.3939,8.3939,8.4055,8.4286,8.4286,8.4286,8.4324,8.4574,8.4404,8.3787,8.3672,8.3702,8.3751,8.3927,8.3987,8.3987,8.3987,8.3987,8.3987,8.3987,8.3902,8.3625,8.2502,8.1516,8.0862,8.0246,8.0169,8.0746,8.0823,8.1093,8.1747,8.2324,8.2631,8.2477,8.0939,7.9977,7.99,7.99,7.99,7.99,7.99,7.99,8.0054,8.1131,8.1785,8.19,8.2631,8.3593,8.3593,8.3708,8.3901,8.3939,8.4401,8.4786,8.5478,8.5824,8.644,8.7555,8.7709,8.7286,8.6247,8.644,8.7132,8.744,8.7632,8.7825,8.8594,8.8632,8.8671,8.7979,8.8632,8.9017,8.9094,8.9133,8.9325,8.9363,8.9363,8.9363,8.9594,8.9402,8.9402,8.2187,8.2187,8.2187,8.1758,8.0976,8.1015,8.0508,7.9961,7.9805,8.0037,8.0666,8.0671,8.0972,8.1504,8.0039,7.9023,7.8831,7.898,7.9037,7.9037,7.8987,7.9246,7.9952,8.079,8.1581,8.2194,8.2776,8.323,8.3402,8.3516,8.3566,8.3638,8.3753,8.4099,8.4786,8.4939,8.5247,8.5934,8.6011,8.6017,8.6159,8.6974,8.6312,8.4443,8.4018,8.4234,8.4319,8.4262,8.4301,8.4223,8.434,8.4301,8.4223,8.4262,8.4178,8.394,8.3625,8.3439,8.3362,8.3131,8.317,8.3324,8.3208,8.3401,8.3439,8.3593,8.367,8.3593,8.3478,8.3285,8.3324,8.2939,8.2939,8.2978,8.317,8.3093,8.317,8.3093,8.3439,8.3439,8.3747,8.4093,8.3862,8.4324,8.4939,8.5324,8.6247,8.7132,8.7171,8.7863,8.8325,8.8517,8.8632,8.8594,8.8517,8.8094,8.8286,8.8632,8.8632,8.8748,8.8671,8.8671,8.8748,8.894,8.9479,8.9863,9.0017,9.0287,9.0671,9.0748,9.0671,9.071,9.0441,9.0902,9.0825,8.3945,8.3945,8.3984,8.3789,8.3515,8.3515,8.3281,8.3008,8.3008,8.3115,8.3323,8.3349,8.3463,8.3596,8.2954,8.1914,8.0806,8.1142,8.1362,8.1439,8.1782,8.214,8.241,8.2757,8.3027,8.3355,8.3683,8.4108,8.4558,8.4549,8.4863,8.5344,8.5414,8.583,8.6485,8.6576,8.7056,8.7891,8.7897,8.7904,8.8074,8.8432,8.8207,8.7692,8.7459,8.7381,8.7436,8.7621,8.7472,8.6933,8.6888,8.6631,8.6109,8.593,8.5835,8.5691,8.5049,8.4571,8.4395,8.3901,8.3862,8.4362,8.4439,8.4709,8.5055,8.5209,8.5401,8.5863,8.6017,8.6209,8.6286,8.4939,8.3593,8.3593,8.3632,8.3708,8.3708,8.4055,8.4439,8.4593,8.5286,8.6209,8.6555,8.7132,8.7325,8.7363,8.7863,8.8171,8.8248,8.8517,8.894,8.9325,8.9479,8.9671,9.0287,8.921,8.8786,8.9286,8.9517,8.9863,8.994,9.0056,9.0171,9.0056,9.0479,9.0633,9.0748,9.0902,9.1364,9.1441,9.1441,9.1556,9.1171,9.1556,9.1441,8.4883,8.4883,8.4883,8.4883,8.4883,8.4883,8.4883,8.4883,8.4883,8.4883,8.4883,8.4919,8.4844,8.4756,8.474,8.4099,8.2876,8.3148,8.3348,8.3373,8.3834,8.4,8.4,8.4232,8.4309,8.4348,8.4541,8.513,8.5873,8.5899,8.6362,8.7147,8.7215,8.7494,8.8004,8.8027,8.8429,8.904,8.904,8.9085,8.9333,8.9603,8.9847,9.0111,9.0275,9.0057,8.9604,8.9716,8.9543,8.9001,8.8896,8.8646,8.8089,8.7858,8.7695,8.7525,8.6878,8.6346,8.612,8.5555,8.5517,8.6055,8.6132,8.6401,8.6901,8.694,8.7248,8.7671,8.7825,8.8132,8.8094,8.6594,8.5247,8.5247,8.5247,8.5247,8.5247,8.5786,8.6132,8.6363,8.7055,8.7979,8.8556,8.8594,8.8594,8.8671,8.8902,8.9094,8.9094,8.9363,8.9633,9.0171,9.0325,9.0517,9.0825,9.021,8.9863,9.0248,9.0248,9.0671,9.0979,9.1171,9.1287,9.1248,9.1287,9.1364,9.1479,9.1595,9.171,9.1864,9.221,9.2479,9.2287,9.2133,9.2172,8.5,8.5039,8.4922,8.5078,8.5156,8.5156,8.5,8.5117,8.5078,8.5195,8.5273,8.5078,8.5195,8.5039,8.5195,8.4961,8.4883,8.4804,8.4639,8.4498,8.4597,8.4572,8.4533,8.5294,8.5643,8.5643,8.6184,8.6958,8.7693,8.7627,8.8014,8.8671,8.8748,8.8847,8.9131,8.9115,8.9239,8.957,8.9654,8.9547,8.9532,9.0469,9.0965,9.1108,9.1856,9.1637,9.0165,9.0125,9.0164,9.0023,8.9984,8.9984,8.9782,8.9579,8.9465,8.9139,8.8956,8.8779,8.8579,8.8359,8.8132,8.8248,8.8479,8.8286,8.8286,8.8402,8.8517,8.8671,8.8709,8.8786,8.8863,8.8632,8.8363,8.8594,8.8094,8.8094,8.8286,8.8517,8.8632,8.8517,8.8671,8.8709,8.8748,8.8979,8.9056,8.9171,8.9517,8.994,8.9979,9.0441,9.1018,9.1095,9.1018,9.1056,9.1171,9.121,9.121,9.1248,9.1056,9.1133,9.1364,9.1556,9.1787,9.1825,9.1979,9.2095,9.2364,9.2518,9.2749,9.2903,9.3249,9.3326,9.3133,9.2979,9.321,8.6679,8.6679,8.6719,8.6679,8.6679,8.6719,8.6679,8.6679,8.6679,8.6679,8.6679,8.6719,8.6679,8.6679,8.6679,8.6679,8.6719,8.7109,8.6719,8.5781,8.5998,8.6199,8.6319,8.7018,8.7719,8.821,8.8493,8.8752,8.8958,8.8996,8.9174,8.9328,8.9395,8.9754,9.0295,9.0275,9.0577,9.1335,9.1257,9.1292,9.1592,9.1838,9.1989,9.2121,9.2428,9.2283,9.1826,9.177,9.1506,9.0955,9.0916,9.0638,9.0125,8.9952,8.9808,8.9606,8.9333,8.9111,8.8895,8.8804,8.8748,8.8709,8.8709,8.8671,8.8671,8.8748,8.9017,8.944,8.9556,8.971,9.0248,9.0402,9.0017,8.8825,8.8671,8.8786,8.8825,8.8748,8.8979,8.944,8.9517,8.9748,9.0248,9.0364,9.0364,9.0364,9.0671,9.0825,9.0902,9.1133,9.1171,9.121,9.1248,9.1595,9.1902,9.2133,9.221,9.2133,9.1941,9.1825,9.1979,9.2095,9.2326,9.2479,9.2633,9.2864,9.3172,9.3403,9.3595,9.3672,9.3749,9.3749,9.371,9.3864,9.4095,8.8437,8.8437,8.8437,8.8437,8.8437,8.8437,8.8398,8.8437,8.8437,8.8437,8.8437,8.8437,8.8437,8.8437,8.8437,8.8437,8.8476,8.8984,8.8554,8.7656,8.786,8.808,8.8072,8.8533,8.9033,8.9465,8.9604,8.9779,9.0056,9.0089,9.0224,9.0457,9.0535,9.0845,9.1399,9.1406,9.1754,9.2373,9.2305,9.249,9.2951,9.3003,9.3165,9.3515,9.3567,9.3544,9.3536,9.3544,9.3002,9.2026,9.1791,9.1476,9.1005,9.0984,9.0859,9.0624,9.0397,9.0175,8.9964,8.9832,8.9633,8.9633,8.9594,8.9633,8.9633,8.9633,8.9979,9.071,9.0902,9.121,9.1941,9.2133,9.1595,9.071,9.0056,8.9671,8.9633,8.9633,8.9825,9.0287,9.0402,9.0671,9.1018,9.1556,9.1633,9.171,9.1941,9.2133,9.2133,9.2172,9.2095,9.2095,9.2326,9.2633,9.2864,9.3018,9.3133,9.3018,9.2826,9.2787,9.2864,9.2903,9.3056,9.3133,9.3287,9.3633,9.3941,9.4134,9.4326,9.4326,9.4518,9.4826,9.5018,9.4941,9.5095,8.9961,9.0,9.0,8.9883,8.9883,8.9844,8.9804,8.9922,8.9883,8.9804,8.9844,8.9765,8.9844,8.9922,8.9726,8.9726,8.9961,9.0,9.0,8.9922,9.0,9.0,8.9765,8.9746,8.9895,9.0015,9.0008,9.0325,9.1022,9.1028,9.1367,9.1914,9.1914,9.2217,9.2403,9.2458,9.2604,9.2919,9.289,9.3281,9.3945,9.3984,9.4258,9.5,9.5,9.4961,9.4922,9.4883,9.4336,9.3008,9.2851,9.2851,9.2734,9.2751,9.2606,9.2389,9.2176,9.1972,9.1721,9.16,9.1424,9.139,9.139,9.1364,9.1325,9.1364,9.1595,9.2287,9.2402,9.2749,9.3364,9.348,9.3403,9.3403,9.2095,9.1402,9.1325,9.1325,9.1402,9.1402,9.1364,9.1402,9.1595,9.221,9.2479,9.2672,9.3095,9.3287,9.3364,9.3249,9.3557,9.348,9.321,9.348,9.3633,9.3826,9.398,9.4364,9.4095,9.3941,9.3903,9.3903,9.4095,9.4172,9.4095,9.4403,9.4711,9.4941,9.5249,9.548,9.5788,9.6211,9.6134,9.5826,9.5711,9.0,9.0,9.0,9.0,9.0,9.0,9.0039,9.0,9.0039,9.0117,9.0039,9.0,9.0117,9.0,9.0039,9.0,9.0234,9.0703,9.0937,9.1094,9.164,9.1484,9.1015,9.0898,9.1172,9.164,9.1601,9.1945,9.2138,9.2109,9.2265,9.2461,9.2578,9.289,9.3398,9.3476,9.3874,9.4414,9.4492,9.4531,9.4765,9.4844,9.4961,9.5117,9.5234,9.5273,9.5195,9.5195,9.5078,9.4609,9.4492,9.4492,9.4414,9.4364,9.4264,9.4146,9.4043,9.3951,9.3842,9.3597,9.3478,9.333,9.3114,9.3283,9.3092,9.3018,9.3133,9.3364,9.3403,9.348,9.3672,9.3787,9.3749,9.3633,9.3326,9.3018,9.2941,9.3018,9.3018,9.3056,9.2941,9.2903,9.2941,9.3172,9.3364,9.3441,9.3633,9.3864,9.4057,9.4018,9.4134,9.3826,9.3672,9.4095,9.4403,9.4557,9.4941,9.5595,9.5557,9.5211,9.5172,9.5134,9.5441,9.5711,9.5326,9.5441,9.5672,9.5903,9.6249,9.6288,9.6288,9.6288,9.6288,9.6134,9.6095,9.1094,9.1094,9.1094,9.1094,9.1094,9.1094,9.1094,9.1094,9.1094,9.1094,9.1094,9.1094,9.1094,9.1094,9.1094,9.1094,9.1172,9.1601,9.1836,9.1914,9.2304,9.2226,9.1914,9.1875,9.2109,9.25,9.2617,9.2578,9.2656,9.2929,9.3125,9.3242,9.3515,9.3945,9.4414,9.4453,9.4648,9.5078,9.5195,9.5312,9.5703,9.5742,9.6015,9.6133,9.625,9.625,9.625,9.625,9.5976,9.539,9.5156,9.5195,9.5195,9.5154,9.5142,9.5105,9.489,9.4757,9.4768,9.4542,9.4341,9.4214,9.4148,9.4055,9.3869,9.3778,9.3749,9.421,9.421,9.4441,9.4711,9.4788,9.4788,9.4864,9.4788,9.448,9.3826,9.3633,9.3672,9.3672,9.3672,9.371,9.371,9.4018,9.421,9.4326,9.4711,9.4826,9.4941,9.4788,9.4672,9.4557,9.4557,9.5018,9.5249,9.5365,9.5365,9.6057,9.6134,9.598,9.5942,9.5903,9.6019,9.6211,9.6249,9.6288,9.6288,9.6288,9.6288,9.6288,9.6288,9.6288,9.6288,9.6288,9.6288,9.2578,9.2578,9.2578,9.2578,9.25,9.2578,9.2422,9.2539,9.2422,9.2422,9.2422,9.2539,9.2344,9.2578,9.2265,9.25,9.25,9.2422,9.2617,9.2695,9.2851,9.2851,9.3008,9.2578,9.2656,9.2812,9.2773,9.2929,9.3242,9.3789,9.4023,9.414,9.4765,9.5195,9.5312,9.5351,9.539,9.5625,9.5742,9.6054,9.6484,9.664,9.6875,9.7265,9.7383,9.7422,9.7461,9.7461,9.6992,9.5547,9.5469,9.5625,9.5547,9.5508,9.5502,9.5547,9.552,9.5368,9.5173,9.5174,9.4893,9.491,9.4705,9.4375,9.4519,9.442,9.4518,9.5095,9.5134,9.5441,9.5865,9.6172,9.6057,9.598,9.6134,9.548,9.4441,9.398,9.398,9.398,9.4018,9.398,9.4134,9.4557,9.5095,9.5134,9.548,9.5595,9.5672,9.5634,9.5672,9.5788,9.5903,9.6095,9.6172,9.6172,9.6095,9.6249,9.6249,9.6172,9.6172,9.6172,9.6211,9.6288,9.6288,9.6288,9.6288,9.6288,9.6288,9.6288,9.6288,9.6288,9.6288,9.6288,9.6288,9.2578,9.2578,9.2578,9.2578,9.2578,9.2578,9.2578,9.2578,9.2578,9.2578,9.2578,9.2578,9.2578,9.2578,9.2656,9.2578,9.2695,9.2773,9.2929,9.3594,9.3633,9.4062,9.414,9.3398,9.3047,9.3437,9.3633,9.3945,9.4492,9.4687,9.4922,9.5,9.5273,9.5547,9.6172,9.625,9.6562,9.7031,9.7109,9.7109,9.7265,9.7344,9.7461,9.7695,9.7695,9.7695,9.7695,9.7695,9.75,9.7265,9.7109,9.6953,9.6992,9.7031,9.6992,9.6934,9.6986,9.6964,9.7026,9.6831,9.6863,9.6515,9.6253,9.6295,9.6087,9.5803,9.5786,9.6019,9.6019,9.6057,9.6249,9.6288,9.6288,9.6288,9.6288,9.6172,9.5826,9.5672,9.5595,9.5634,9.5634,9.5711,9.5672,9.5672,9.5942,9.6019,9.6095,9.6249,9.6288,9.6288,9.6288,9.6288,9.6288,9.6288,9.6288,9.6288,9.6288,9.6288,9.6288,9.6288,9.6288,9.6288,9.6288,9.6288,9.6288,9.6288,9.6288,9.6288,9.6288,9.6288,9.6288,9.6288,9.6288,9.6288,9.6288,9.2578,9.2578,9.2578,9.2578,9.2578,9.2578,9.2578,9.2578,9.2578,9.2578,9.2578,9.2578,9.2578,9.2656,9.3008,9.3242,9.332,9.3672,9.4062,9.4453,9.4531,9.4765,9.4961,9.4414,9.4101,9.4492,9.4531,9.4844,9.5156,9.5625,9.582,9.5859,9.6133,9.664,9.6992,9.7031,9.7265,9.7539,9.7695,9.7695,9.7695,9.7695,9.7695,9.7695,9.7695,9.7695,9.7695,9.7695,9.7695,9.7695,9.7695,9.7695,9.7695,9.7695,9.7695,9.7689,9.7701,9.7682,9.7675,9.7675,9.7572,9.7522,9.7271,9.703,9.6773,9.6607,9.639,9.6286,9.6288,9.6288,9.6288,9.6288,9.6288,9.6288,9.6288,9.6288,9.6288,9.6288,9.6288,9.6288,9.6172,9.6211,9.6288,9.6288,9.6288,9.6134,9.6134,9.6288,9.6288,9.6288,9.6288,9.6288,9.6288,9.6288,9.6288,9.6288,9.6288,9.6288,9.6288,9.6288,9.6288,9.6288,9.6288,9.6288,9.6288,9.6288,9.6288,9.6288,9.6288,9.6288,9.6288,9.6288,9.6288,9.6288,9.6288,9.2578,9.2578,9.2578,9.2578,9.2578,9.2578,9.2695,9.2812,9.2812,9.3008,9.3008,9.2969,9.3242,9.3203,9.3789,9.4062,9.4258,9.4687,9.5039,9.5351,9.539,9.5586,9.5703,9.5664,9.5586,9.5586,9.5469,9.5508,9.5859,9.625,9.6679,9.6797,9.7265,9.7461,9.7617,9.7695,9.7617,9.7695,9.7695,9.7695,9.7695,9.7695,9.7695,9.7695,9.7695,9.7695,9.7695,9.7695,9.7695,9.7695,9.7695,9.7695,9.7695,9.7695,9.7695,9.7695,9.7676,9.7689,9.7675,9.7675,9.7675,9.7675,9.746,9.7255,9.7009,9.6759,9.6545,9.6425,9.6322,9.6288,9.6288,9.6288,9.6288,9.6288,9.6288,9.6288,9.6288,9.6288,9.6288,9.6288,9.6288,9.6288,9.6288,9.6288,9.6288,9.6288,9.6288,9.6288,9.6288,9.6288,9.6288,9.6288,9.6288,9.6288,9.6288,9.6288,9.6288,9.6288,9.6288,9.6288,9.6288,9.6288,9.6288,9.6288,9.6288,9.6288,9.6288,9.6288,9.6288,9.6288,9.6288,9.6288,9.6288,9.6288,9.6288,9.2578,9.2578,9.2578,9.2578,9.2617,9.2617,9.3047,9.3633,9.3672,9.4101,9.4648,9.4726,9.4609,9.4765,9.4844,9.4961,9.5117,9.5429,9.5742,9.6172,9.6289,9.6484,9.6953,9.6953,9.707,9.707,9.6679,9.6562,9.6992,9.7422,9.7344,9.7461,9.7578,9.7695,9.7695,9.7695,9.7695,9.7695,9.7695,9.7695,9.7695,9.7695,9.7695,9.7695,9.7695,9.7695,9.7695,9.7695,9.7695,9.7695,9.7695,9.7695,9.7695,9.7695,9.7695,9.7695,9.7687,9.7706,9.7682,9.7675,9.7675,9.7659,9.7472,9.7316,9.7147,9.6897,9.6676,9.6513,9.639,9.6288,9.6288,9.6288,9.6288,9.6288,9.6288,9.6288,9.6288,9.6288,9.6288,9.6288,9.6288,9.6288,9.6288,9.6288,9.6288,9.6288,9.6288,9.6288,9.6288,9.6288,9.6288,9.6288,9.6288,9.6288,9.6288,9.6288,9.6288,9.6288,9.6288,9.6288,9.6288,9.6288,9.6288,9.6288,9.6288,9.6288,9.6288,9.6288,9.6288,9.6288,9.6288,9.6288,9.6288,9.6288,9.6288,9.2578,9.2578,9.2578,9.2851,9.3242,9.3281,9.3789,9.4492,9.457,9.4804,9.5078,9.5195,9.5195,9.5312,9.5742,9.6054,9.6367,9.6484,9.6758,9.7109,9.7148,9.7265,9.7695,9.7695,9.7695,9.7578,9.7304,9.7226,9.7656,9.7656,9.7695,9.7695,9.7695,9.7695,9.7695,9.7695,9.7695,9.7695,9.7695,9.7695,9.7695,9.7695,9.7695,9.7695,9.7695,9.7695,9.7695,9.7695,9.7695,9.7695,9.7695,9.7695,9.7695,9.7695,9.7695,9.7695,9.7695,9.768,9.7689,9.7682,9.7689,9.7675,9.7554,9.746,9.7301,9.7091,9.6849,9.6628,9.642,9.6288,9.6288,9.6288,9.6288,9.6288,9.6288,9.6288,9.6288,9.6288,9.6288,9.6288,9.6288,9.6288,9.6288,9.6288,9.6288,9.6288,9.6288,9.6288,9.6288,9.6288,9.6288,9.6288,9.6288,9.6288,9.6288,9.6288,9.6288,9.6288,9.6288,9.6288,9.6288,9.6288,9.6288,9.6288,9.6288,9.6288,9.6288,9.6288,9.6288,9.6288,9.6288,9.6288,9.6288,9.6288,9.6288,9.2695,9.2851,9.2851,9.3359,9.4101,9.414,9.4648,9.5351,9.5469,9.5586,9.5703,9.5742,9.5781,9.5898,9.6445,9.707,9.7695,9.7617,9.7578,9.7578,9.7617,9.7656,9.7695,9.7695,9.7695,9.7695,9.7617,9.7695,9.7695,9.7695,9.7695,9.7695,9.7695,9.7695,9.7695,9.7695,9.7695,9.7695,9.7695,9.7695,9.7695,9.7695,9.7695,9.7695,9.7695,9.7695,9.7695,9.7695,9.7695,9.7695,9.7695,9.7695,9.7695,9.7695,9.7695,9.7695,9.7695,9.7695,9.7676,9.7701,9.7701,9.7675,9.7675,9.7554,9.7396,9.7255,9.703,9.6676,9.6425,9.6288,9.6288,9.6288,9.6288,9.6288,9.6288,9.6288,9.6288,9.6288,9.6288,9.6288,9.6288,9.6288,9.6288,9.6288,9.6288,9.6288,9.6288,9.6288,9.6288,9.6288,9.6288,9.6288,9.6288,9.6288,9.6288,9.6288,9.6288,9.6288,9.6288,9.6288,9.6288,9.6288,9.6288,9.6288,9.6288,9.6288,9.6288,9.6288,9.6288,9.6288,9.6288,9.6288,9.6288,9.6288,9.6288,9.3047,9.375,9.375,9.4258,9.4961,9.5039,9.5547,9.6289,9.6328,9.6758,9.7187,9.7304,9.7265,9.7304,9.7344,9.7578,9.7656,9.7695,9.7695,9.7695,9.7695,9.7695,9.7695,9.7695,9.7695,9.7695,9.7695,9.7695,9.7695,9.7695,9.7695,9.7695,9.7695,9.7695,9.7695,9.7695,9.7695,9.7695,9.7695,9.7695,9.7695,9.7695,9.7695,9.7695,9.7695,9.7695,9.7695,9.7695,9.7695,9.7695,9.7695,9.7695,9.7695,9.7695,9.7695,9.7695,9.7695,9.7695,9.7695,9.7684,9.7672,9.7689,9.7675,9.7706,9.7533,9.7238,9.692,9.6648,9.6425,9.6288,9.6288,9.6288,9.6288,9.6288,9.6288,9.6288,9.6288,9.6288,9.6288,9.6288,9.6288,9.6288,9.6288,9.6288,9.6288,9.6288,9.6288,9.6288,9.6288,9.6288,9.6288,9.6288,9.6288,9.6288,9.6288,9.6288,9.6288,9.6288,9.6288,9.6288,9.6288,9.6288,9.6288,9.6288,9.6288,9.6288,9.6288,9.6288,9.6288,9.6288,9.6288,9.6288,9.6288,9.6288,9.6288,9.4023,9.3945,9.4414,9.5117,9.5898,9.5937,9.6406,9.707,9.7187,9.7383,9.7656,9.7695,9.7695,9.7695,9.7695,9.7695,9.7695,9.7695,9.7695,9.7695,9.7695,9.7695,9.7695,9.7695,9.7695,9.7695,9.7695,9.7695,9.7695,9.7695,9.7695,9.7695,9.7695,9.7695,9.7695,9.7695,9.7695,9.7695,9.7695,9.7695,9.7695,9.7695,9.7695,9.7695,9.7695,9.7695,9.7695,9.7695,9.7695,9.7695,9.7695,9.7695,9.7695,9.7695,9.7695,9.7695,9.7695,9.7695,9.7695,9.7695,9.7676,9.7701,9.7689,9.7675,9.7602,9.731,9.6943,9.6824,9.6487,9.6325,9.6288,9.6288,9.6288,9.6288,9.6288,9.6288,9.6288,9.6288,9.6288,9.6288,9.6288,9.6288,9.6288,9.6288,9.6288,9.6288,9.6288,9.6288,9.6288,9.6288,9.6288,9.6288,9.6288,9.6288,9.6288,9.6288,9.6288,9.6288,9.6288,9.6288,9.6288,9.6288,9.6288,9.6288,9.6288,9.6288,9.6288,9.6288,9.6288,9.6288,9.6288,9.6288,9.6288,9.6288,9.6288,9.5117,9.4648,9.5273,9.6015,9.6758,9.6797,9.7109,9.7656,9.7656,9.7695,9.7695,9.7695,9.7695,9.7695,9.7695,9.7695,9.7695,9.7695,9.7695,9.7695,9.7695,9.7695,9.7695,9.7695,9.7695,9.7695,9.7695,9.7695,9.7695,9.7695,9.7695,9.7695,9.7695,9.7695,9.7695,9.7695,9.7695,9.7695,9.7695,9.7695,9.7695,9.7695,9.7695,9.7695,9.7695,9.7695,9.7695,9.7695,9.7695,9.7695,9.7695,9.7695,9.7695,9.7695,9.7695,9.7695,9.7695,9.7695,9.7695,9.7689,9.7684,9.7672,9.7701,9.7675,9.762,9.7271,9.6988,9.6943,9.6628,9.639,9.6325,9.6288,9.6288,9.6288,9.6288,9.6288,9.6288,9.6288,9.6288,9.6288,9.6288,9.6288,9.6288,9.6288,9.6288,9.6288,9.6288,9.6288,9.6288,9.6288,9.6288,9.6288,9.6288,9.6288,9.6288,9.6288,9.6288,9.6288,9.6288,9.6288,9.6288,9.6288,9.6288,9.6288,9.6288,9.6288,9.6288,9.6288,9.6288,9.6288,9.6288,9.6288,9.6288,9.6288,9.6288,9.6367,9.6328,9.6406,9.6875,9.7578,9.7617,9.7617,9.7695,9.7695,9.7695,9.7695,9.7695,9.7695,9.7695,9.7695,9.7695,9.7695,9.7695,9.7695,9.7695,9.7695,9.7695,9.7695,9.7695,9.7695,9.7695,9.7695,9.7695,9.7695,9.7695,9.7695,9.7695,9.7695,9.7695,9.7695,9.7695,9.7695,9.7695,9.7695,9.7695,9.7695,9.7695,9.7695,9.7695,9.7695,9.7695,9.7695,9.7695,9.7695,9.7695,9.7695,9.7695,9.7695,9.7695,9.7695,9.7695,9.7695,9.7695,9.7695,9.7691,9.7684,9.7676,9.7701,9.7675,9.7667,9.7421,9.7182,9.6988,9.6704,9.6519,9.6394,9.6288,9.6288,9.6288,9.6288,9.6288,9.6288,9.6288,9.6288,9.6288,9.6288,9.6288,9.6288,9.6288,9.6288,9.6288,9.6288,9.6288,9.6288,9.6288,9.6288,9.6288,9.6288,9.6288,9.6288,9.6288,9.6288,9.6288,9.6288,9.6288,9.6288,9.6288,9.6288,9.6288,9.6288,9.6288,9.6288,9.6288,9.6288,9.6288,9.6288,9.6288,9.6288,9.6288,9.6288,9.7226,9.7226,9.7226,9.7422,9.7695,9.7695,9.7695,9.7695,9.7695,9.7695,9.7695,9.7695,9.7695,9.7695,9.7695,9.7695,9.7695,9.7695,9.7695,9.7695,9.7695,9.7695,9.7695,9.7695,9.7695,9.7695,9.7695,9.7695,9.7695,9.7695,9.7695,9.7695,9.7695,9.7695,9.7695,9.7695,9.7695,9.7695,9.7695,9.7695,9.7695,9.7695,9.7695,9.7695,9.7695,9.7695,9.7695,9.7695,9.7695,9.7695,9.7695,9.7695,9.7695,9.7695,9.7695,9.7695,9.7695,9.7695,9.7695,9.7695,9.7687,9.7701,9.7682,9.7675,9.7675,9.746,9.7301,9.7091,9.6849,9.6628,9.6513,9.6355,9.6288,9.6288,9.6288,9.6288,9.6288,9.6288,9.6288,9.6288,9.6288,9.6288,9.6288,9.6288,9.6288,9.6288,9.6288,9.6288,9.6288,9.6288,9.6288,9.6288,9.6288,9.6288,9.6288,9.6288,9.6288,9.6288,9.6288,9.6288,9.6288,9.6288,9.6288,9.6288,9.6288,9.6288,9.6288,9.6288,9.6288,9.6288,9.6288,9.6288,9.6288,9.6288,9.6288,9.7695,9.7695,9.7695,9.7695,9.7695,9.7695,9.7695,9.7695,9.7695,9.7695,9.7695,9.7695,9.7695,9.7695,9.7695,9.7695,9.7695,9.7695,9.7695,9.7695,9.7695,9.7695,9.7695,9.7695,9.7695,9.7695,9.7695,9.7695,9.7695,9.7695,9.7695,9.7695,9.7695,9.7695,9.7695,9.7695,9.7695,9.7695,9.7695,9.7695,9.7695,9.7695,9.7695,9.7695,9.7695,9.7695,9.7695,9.7695,9.7695,9.7695,9.7695,9.7695,9.7695,9.7695,9.7695,9.7695,9.7695,9.7695,9.7695,9.7695,9.7695,9.7706,9.7682,9.7675,9.7659,9.7533,9.7409,9.7271,9.6988,9.6747,9.6676,9.6481,9.6358,9.6322,9.6288,9.6288,9.6288,9.6288,9.6288,9.6288,9.6288,9.6288,9.6288,9.6288,9.6288,9.6288,9.6288,9.6288,9.6288,9.6288,9.6288,9.6288,9.6288,9.6288,9.6288,9.6288,9.6288,9.6288,9.6288,9.6288,9.6288,9.6288,9.6288,9.6288,9.6288,9.6288,9.6288,9.6288,9.6288,9.6288,9.6288,9.6288,9.6288,9.6288,9.6288,9.7695,9.7695,9.7695,9.7695,9.7695,9.7695,9.7695,9.7695,9.7695,9.7695,9.7695,9.7695,9.7695,9.7695,9.7695,9.7695,9.7695,9.7695,9.7695,9.7695,9.7695,9.7695,9.7695,9.7695,9.7695,9.7695,9.7695,9.7695,9.7695,9.7695,9.7695,9.7695,9.7695,9.7695,9.7695,9.7695,9.7695,9.7695,9.7695,9.7695,9.7695,9.7695,9.7695,9.7695,9.7695,9.7695,9.7695,9.7695,9.7695,9.7695,9.7695,9.7695,9.7695,9.7695,9.7695,9.7695,9.7695,9.7695,9.7695,9.7695,9.7695,9.7676,9.7695,9.7675,9.7675,9.762,9.7554,9.7396,9.7216,9.703,9.6824,9.6598,9.6487,9.639,9.6358,9.6288,9.6288,9.6288,9.6288,9.6288,9.6288,9.6288,9.6288,9.6288,9.6288,9.6288,9.6288,9.6288,9.6288,9.6288,9.6288,9.6288,9.6288,9.6288,9.6288,9.6288,9.6288,9.6288,9.6288,9.6288,9.6288,9.6288,9.6288,9.6288,9.6288,9.6288,9.6288,9.6288,9.6288,9.6288,9.6288,9.6288,9.6288,9.6288,9.6288,9.7695,9.7695,9.7695,9.7695,9.7695,9.7695,9.7695,9.7695,9.7695,9.7695,9.7695,9.7695,9.7695,9.7695,9.7695,9.7695,9.7695,9.7695,9.7695,9.7695,9.7695,9.7695,9.7695,9.7695,9.7695,9.7695,9.7695,9.7695,9.7695,9.7695,9.7695,9.7695,9.7695,9.7695,9.7695,9.7695,9.7695,9.7695,9.7695,9.7695,9.7695,9.7695,9.7695,9.7695,9.7695,9.7695,9.7695,9.7695,9.7695,9.7695,9.7695,9.7695,9.7695,9.7695,9.7695,9.7695,9.7695,9.7695,9.7695,9.7695,9.7695,9.768,9.7695,9.7675,9.7675,9.7675,9.7611,9.7544,9.7396,9.7238,9.711,9.6747,9.6568,9.6513,9.642,9.6322,9.6288,9.6288,9.6288,9.6288,9.6288,9.6288,9.6288,9.6288,9.6288,9.6288,9.6288,9.6288,9.6288,9.6288,9.6288,9.6288,9.6288,9.6288,9.6288,9.6288,9.6288,9.6288,9.6288,9.6288,9.6288,9.6288,9.6288,9.6288,9.6288,9.6288,9.6288,9.6288,9.6288,9.6288,9.6288,9.6288,9.6288,9.6288,9.6288,9.7695,9.7695,9.7695,9.7695,9.7695,9.7695,9.7695,9.7695,9.7695,9.7695,9.7695,9.7695,9.7695,9.7695,9.7695,9.7695,9.7695,9.7695,9.7695,9.7695,9.7695,9.7695,9.7695,9.7695,9.7695,9.7695,9.7695,9.7695,9.7695,9.7695,9.7695,9.7695,9.7695,9.7695,9.7695,9.7695,9.7695,9.7695,9.7695,9.7695,9.7695,9.7695,9.7695,9.7695,9.7695,9.7695,9.7695,9.7695,9.7695,9.7695,9.7695,9.7695,9.7695,9.7695,9.7695,9.7695,9.7695,9.7695,9.7695,9.7695,9.7695,9.768,9.7695,9.7675,9.7675,9.7675,9.7675,9.7611,9.7522,9.7396,9.7271,9.6897,9.6799,9.6759,9.6568,9.6454,9.639,9.639,9.6288,9.6288,9.6288,9.6288,9.6288,9.6288,9.6288,9.6288,9.6288,9.6288,9.6288,9.6288,9.6288,9.6288,9.6288,9.6288,9.6288,9.6288,9.6288,9.6288,9.6288,9.6288,9.6288,9.6288,9.6288,9.6288,9.6288,9.6288,9.6288,9.6288,9.6288,9.6288,9.6288,9.6288,9.6288,9.6288,9.6288,9.7695,9.7695,9.7695,9.7695,9.7695,9.7695,9.7695,9.7695,9.7695,9.7695,9.7695,9.7695,9.7695,9.7695,9.7695,9.7695,9.7695,9.7695,9.7695,9.7695,9.7695,9.7695,9.7695,9.7695,9.7695,9.7695,9.7695,9.7695,9.7695,9.7695,9.7695,9.7695,9.7695,9.7695,9.7695,9.7695,9.7695,9.7695,9.7695,9.7695,9.7695,9.7695,9.7695,9.7695,9.7695,9.7695,9.7695,9.7695,9.7695,9.7695,9.7695,9.7695,9.7695,9.7695,9.7695,9.7695,9.7695,9.7695,9.7695,9.7695,9.7695,9.7676,9.7695,9.7682,9.7675,9.7675,9.7675,9.7675,9.7611,9.7483,9.7355,9.7255,9.7129,9.6966,9.6786,9.6648,9.6537,9.6448,9.6358,9.6325,9.6288,9.6288,9.6288,9.6288,9.6288,9.6288,9.6288,9.6288,9.6288,9.6288,9.6288,9.6288,9.6288,9.6288,9.6288,9.6288,9.6288,9.6288,9.6288,9.6288,9.6288,9.6288,9.6288,9.6288,9.6288,9.6288,9.6288,9.6288,9.6288,9.6288,9.6288,9.6288,9.6288,9.6288,9.6288,9.7695,9.7695,9.7695,9.7695,9.7695,9.7695,9.7695,9.7695,9.7695,9.7695,9.7695,9.7695,9.7695,9.7695,9.7695,9.7695,9.7695,9.7695,9.7695,9.7695,9.7695,9.7695,9.7695,9.7695,9.7695,9.7695,9.7695,9.7695,9.7695,9.7695,9.7695,9.7695,9.7695,9.7695,9.7695,9.7695,9.7695,9.7695,9.7695,9.7695,9.7695,9.7695,9.7695,9.7695,9.7695,9.7695,9.7695,9.7695,9.7695,9.7695,9.7695,9.7695,9.7695,9.7695,9.7695,9.7695,9.7695,9.7695,9.7695,9.7695,9.7691,9.7706,9.7682,9.7682,9.7675,9.7675,9.7675,9.7675,9.7675,9.7602,9.7483,9.7409,9.7369,9.7221,9.6988,9.6824,9.6732,9.6568,9.642,9.6325,9.6288,9.6288,9.6288,9.6288,9.6288,9.6288,9.6288,9.6288,9.6288,9.6288,9.6288,9.6288,9.6288,9.6288,9.6288,9.6288,9.6288,9.6288,9.6288,9.6288,9.6288,9.6288,9.6288,9.6288,9.6288,9.6288,9.6288,9.6288,9.6288,9.6288,9.6288,9.6288,9.6288,9.6288,9.6288,9.7695,9.7695,9.7695,9.7695,9.7695,9.7695,9.7695,9.7695,9.7695,9.7695,9.7695,9.7695,9.7695,9.7695,9.7695,9.7695,9.7695,9.7695,9.7695,9.7695,9.7695,9.7695,9.7695,9.7695,9.7695,9.7695,9.7695,9.7695,9.7695,9.7695,9.7695,9.7695,9.7695,9.7695,9.7695,9.7695,9.7695,9.7695,9.7695,9.7695,9.7695,9.7695,9.7695,9.7695,9.7695,9.7695,9.7695,9.7695,9.7695,9.7695,9.7695,9.7695,9.7695,9.7695,9.7695,9.7695,9.7695,9.7695,9.7695,9.7695,9.7695,9.7701,9.7675,9.7675,9.7675,9.7675,9.7675,9.7675,9.7675,9.7667,9.7611,9.7554,9.7533,9.746,9.7238,9.7009,9.6849,9.6676,9.6513,9.6322,9.6288,9.6288,9.6288,9.6288,9.6288,9.6288,9.6288,9.6288,9.6288,9.6288,9.6288,9.6288,9.6288,9.6288,9.6288,9.6288,9.6288,9.6288,9.6288,9.6288,9.6288,9.6288,9.6288,9.6288,9.6288,9.6288,9.6288,9.6288,9.6288,9.6288,9.6288,9.6288,9.6288,9.6288,9.6288,9.7695,9.7695,9.7695,9.7695,9.7695,9.7695,9.7695,9.7695,9.7695,9.7695,9.7695,9.7695,9.7695,9.7695,9.7695,9.7695,9.7695,9.7695,9.7695,9.7695,9.7695,9.7695,9.7695,9.7695,9.7695,9.7695,9.7695,9.7695,9.7695,9.7695,9.7695,9.7695,9.7695,9.7695,9.7695,9.7695,9.7695,9.7695,9.7695,9.7695,9.7695,9.7695,9.7695,9.7695,9.7695,9.7695,9.7695,9.7695,9.7695,9.7695,9.7695,9.7695,9.7695,9.7695,9.7695,9.7695,9.7695,9.7695,9.7695,9.7695,9.7695,9.7672,9.7682,9.7682,9.7682,9.7675,9.7675,9.7675,9.7675,9.7675,9.7659,9.762,9.7611,9.7554,9.7448,9.7238,9.7051,9.6837,9.6513,9.6394,9.6288,9.6288,9.6288,9.6288,9.6288,9.6288,9.6288,9.6288,9.6288,9.6288,9.6288,9.6288,9.6288,9.6288,9.6288,9.6288,9.6288,9.6288,9.6288,9.6288,9.6288,9.6288,9.6288,9.6288,9.6288,9.6288,9.6288,9.6288,9.6288,9.6288,9.6288,9.6288,9.6288,9.6288,9.6288,9.7695,9.7695,9.7695,9.7695,9.7695,9.7695,9.7695,9.7695,9.7695,9.7695,9.7695,9.7695,9.7695,9.7695,9.7695,9.7695,9.7695,9.7695,9.7695,9.7695,9.7695,9.7695,9.7695,9.7695,9.7695,9.7695,9.7695,9.7695,9.7695,9.7695,9.7695,9.7695,9.7695,9.7695,9.7695,9.7695,9.7695,9.7695,9.7695,9.7695,9.7695,9.7695,9.7695,9.7695,9.7695,9.7695,9.7695,9.7695,9.7695,9.7695,9.7695,9.7695,9.7695,9.7695,9.7695,9.7695,9.7695,9.7695,9.7695,9.7695,9.7695,9.7695,9.768,9.7701,9.7689,9.7682,9.7675,9.7675,9.7675,9.7675,9.7675,9.7675,9.7675,9.7667,9.7611,9.7448,9.7238,9.6873,9.6576,9.6459,9.6322,9.6288,9.6288,9.6288,9.6288,9.6288,9.6288,9.6288,9.6288,9.6288,9.6288,9.6288,9.6288,9.6288,9.6288,9.6288,9.6288,9.6288,9.6288,9.6288,9.6288,9.6288,9.6288,9.6288,9.6288,9.6288,9.6288,9.6288,9.6288,9.6288,9.6288,9.6288,9.6288,9.6288,9.6288,9.7695,9.7695,9.7695,9.7695,9.7695,9.7695,9.7695,9.7695,9.7695,9.7695,9.7695,9.7695,9.7695,9.7695,9.7695,9.7695,9.7695,9.7695,9.7695,9.7695,9.7695,9.7695,9.7695,9.7695,9.7695,9.7695,9.7695,9.7695,9.7695,9.7695,9.7695,9.7695,9.7695,9.7695,9.7695,9.7695,9.7695,9.7695,9.7695,9.7695,9.7695,9.7695,9.7695,9.7695,9.7695,9.7695,9.7695,9.7695,9.7695,9.7695,9.7695,9.7695,9.7695,9.7695,9.7695,9.7695,9.7695,9.7695,9.7695,9.7695,9.7695,9.7695,9.7689,9.7711,9.7682,9.7675,9.7675,9.7675,9.7675,9.7675,9.7675,9.7675,9.7675,9.7667,9.7659,9.7533,9.7238,9.6897,9.6648,9.6545,9.6425,9.6288,9.6288,9.6288,9.6288,9.6288,9.6288,9.6288,9.6288,9.6288,9.6288,9.6288,9.6288,9.6288,9.6288,9.6288,9.6288,9.6288,9.6288,9.6288,9.6288,9.6288,9.6288,9.6288,9.6288,9.6288,9.6288,9.6288,9.6288,9.6288,9.6288,9.6288,9.6288,9.6288,9.6288,9.7695,9.7695,9.7695,9.7695,9.7695,9.7695,9.7695,9.7695,9.7695,9.7695,9.7695,9.7695,9.7695,9.7695,9.7695,9.7695,9.7695,9.7695,9.7695,9.7695,9.7695,9.7695,9.7695,9.7695,9.7695,9.7695,9.7695,9.7695,9.7695,9.7695,9.7695,9.7695,9.7695,9.7695,9.7695,9.7695,9.7695,9.7695,9.7695,9.7695,9.7695,9.7695,9.7695,9.7695,9.7695,9.7695,9.7695,9.7695,9.7695,9.7695,9.7695,9.7695,9.7695,9.7695,9.7695,9.7695,9.7695,9.7695,9.7695,9.7695,9.7695,9.7695,9.7695,9.7672,9.7689,9.7675,9.7675,9.7675,9.7675,9.7675,9.7675,9.7675,9.7675,9.7675,9.7667,9.7602,9.7255,9.6966,9.6799,9.6648,9.6481,9.6358,9.6288,9.6288,9.6288,9.6288,9.6288,9.6288,9.6288,9.6288,9.6288,9.6288,9.6288,9.6288,9.6288,9.6288,9.6288,9.6288,9.6288,9.6288,9.6288,9.6288,9.6288,9.6288,9.6288,9.6288,9.6288,9.6288,9.6288,9.6288,9.6288,9.6288,9.6288,9.6288,9.6288,9.7695,9.7695,9.7695,9.7695,9.7695,9.7695,9.7695,9.7695,9.7695,9.7695,9.7695,9.7695,9.7695,9.7695,9.7695,9.7695,9.7695,9.7695,9.7695,9.7695,9.7695,9.7695,9.7695,9.7695,9.7695,9.7695,9.7695,9.7695,9.7695,9.7695,9.7695,9.7695,9.7695,9.7695,9.7695,9.7695,9.7695,9.7695,9.7695,9.7695,9.7695,9.7695,9.7695,9.7695,9.7695,9.7695,9.7695,9.7695,9.7695,9.7695,9.7695,9.7695,9.7695,9.7695,9.7695,9.7695,9.7695,9.7695,9.7695,9.7695,9.7695,9.7695,9.7689,9.7672,9.7695,9.7675,9.7675,9.7675,9.7675,9.7675,9.7675,9.7675,9.7675,9.7675,9.7667,9.7544,9.7355,9.7165,9.7051,9.6824,9.6628,9.6454,9.6322,9.6286,9.6288,9.6288,9.6288,9.6288,9.6288,9.6288,9.6288,9.6288,9.6288,9.6288,9.6288,9.6288,9.6288,9.6288,9.6288,9.6288,9.6288,9.6288,9.6288,9.6288,9.6288,9.6288,9.6288,9.6288,9.6288,9.6288,9.6288,9.6288,9.6288,9.6288,9.6288]},{"header":{"parameterUnit":"m.s-1","parameterCategory":1,"la1":31.0,"la2":29.5877,"lo1":-88.7671,"lo2":-86.6584,"dy":0.0162,"dx":0.0185,"nx":115,"ny":88,"refTime":"2023-10-11T06:00:00:Z","depth":0,"parameterNumber":3,"parameterNumberName":"V-component_of_WINDS"},"data":[0.0,0.0,0.0,0.0,0.0,0.0,0.0,0.0,0.0,0.0,0.0,0.0,0.0,0.0,0.0,0.0,0.0,0.0,0.0,0.0,0.0,0.0,0.0,0.0,0.0,0.0,0.0,0.0,0.0,0.0,0.0,0.0,0.0,0.0,0.0,0.0,0.0,0.0,0.0,0.0,0.0,0.0,0.0,0.0,0.0,0.0,0.0,0.0,0.0,0.0,0.0,0.0,0.0,0.0,0.0,0.0,0.0,0.0,0.0,0.0,0.0,0.0,0.0,0.0,0.0,0.0,0.0,0.0,0.0,0.0,0.0,0.0,0.0,0.0,0.0,0.0,0.0,0.0,0.0,0.0,0.0,0.0,0.0,0.0,0.0,0.0,0.0,0.0,0.0,0.0,0.0,0.0,0.0,0.0,0.0,0.0,0.0,0.0,0.0,0.0,0.0,0.0,0.0,0.0,0.0,0.0,0.0,0.0,0.0,0.0,0.0,0.0,0.0,0.0,0.0,0.0,0.0,0.0,0.0,0.0,0.0,0.0,0.0,0.0,0.0,0.0,0.0,0.0,0.0,0.0,0.0,0.0,0.0,0.0,0.0,0.0,0.0,0.0,0.0,0.0,0.0,0.0,0.0,0.0,0.0,0.0,0.0,0.0,0.0,0.0,0.0,0.0,0.0,0.0,0.0,0.0,0.0,0.0,0.0,0.0,0.0,0.0,0.0,0.0,0.0,0.0,0.0,0.0,0.0,0.0,0.0,0.0,0.0,0.0,0.0,0.0,0.0,0.0,0.0,0.0,0.0,0.0,0.0,0.0,0.0,0.0,0.0,0.0,0.0,0.0,0.0,0.0,0.0,0.0,0.0,0.0,0.0,0.0,0.0,0.0,0.0,0.0,0.0,0.0,0.0,0.0,0.0,0.0,0.0,0.0,0.0,0.0,0.0,0.0,0.0,0.0,0.0,0.0,0.0,0.0,0.0,0.0,0.0,0.0,0.0,0.0,0.0,0.0,0.0,0.0,0.0,0.0,0.0,0.0,0.0,0.0,0.0,0.0,0.0,0.0,0.0,0.0,0.0,0.0,0.0,0.0,0.0,0.0,0.0,0.0,0.0,0.0,0.0,0.0,0.0,0.0,0.0,0.0,0.0,0.0,0.0,0.0,0.0,0.0,0.0,0.0,0.0,0.0,0.0,0.0,0.0,0.0,0.0,0.0,0.0,0.0,0.0,0.0,0.0,0.0,0.0,0.0,0.0,0.0,0.0,0.0,0.0,0.0,0.0,0.0,0.0,0.0,0.0,0.0,0.0,0.0,0.0,0.0,0.0,0.0,0.0,0.0,0.0,0.0,0.0,0.0,0.0,0.0,0.0,0.0,0.0,0.0,0.0,0.0,0.0,0.0,0.0,0.0,0.0,0.0,0.0,0.0,0.0,0.0,0.0,0.0,0.0,0.0,0.0,0.0,0.0,0.0,0.0,0.0,0.0,0.0,0.0,0.0,0.0,0.0,0.0,0.0,0.0,0.0,0.0,0.0,0.0,0.0,0.0,0.0,0.0,0.0,0.0,0.0,0.0,0.0,0.0,0.0,0.0,0.0,0.0,0.0,0.0,0.0,0.0,0.0,0.0,0.0,0.0,0.0,0.0,0.0,0.0,0.0,0.0,0.0,0.0,0.0,0.0,0.0,0.0,0.0,0.0,0.0,0.0,0.0,0.0,0.0,0.0,0.0,0.0,0.0,0.0,0.0,0.0,0.0,0.0,0.0,0.0,0.0,0.0,0.0,0.0,0.0,0.0,0.0,0.0,0.0,0.0,0.0,0.0,0.0,0.0,0.0,0.0,0.0,0.0,0.0,0.0,0.0,0.0,0.0,0.0,0.0,0.0,0.0,0.0,0.0,0.0,0.0,0.0,0.0,0.0,0.0,0.0,0.0,0.0,0.0,0.0,0.0,0.0,0.0,0.0,0.0,0.0,0.0,0.0,0.0,0.0,0.0,0.0,0.0,0.0,0.0,0.0,0.0,0.0,0.0,0.0,0.0,0.0,0.0,0.0,0.0,0.0,0.0,0.0,0.0,0.0,0.0,0.0,0.0,0.0,0.0,0.0,0.0,0.0,0.0,0.0,0.0,0.0,0.0,0.0,0.0,0.0,0.0,0.0,0.0,0.0,0.0,0.0,0.0,0.0,0.0,0.0,0.0,0.0,0.0,0.0,0.0,0.0,0.0,0.0,0.0,0.0,0.0,0.0,0.0,0.0,0.0,0.0,0.0,0.0,0.0,0.0,0.0,0.0,0.0,0.0,0.0,0.0,0.0,0.0,0.0,0.0,0.0,0.0,0.0,0.0,0.0,0.0,0.0,0.0,0.0,0.0,0.0,0.0,0.0,0.0,0.0,0.0,0.0,0.0,0.0,0.0,0.0,0.0,0.0,0.0,0.0,0.0,0.0,0.0,0.0,0.0,0.0,0.0,0.0,0.0,0.0,0.0,0.0,0.0,0.0,0.0,0.0,0.0,0.0,0.0,0.0,0.0,0.0,0.0,0.0,0.0,0.0,0.0,0.0,0.0,0.0,0.0,0.0,0.0,0.0,0.0,0.0,0.0,0.0,0.0,0.0,0.0,0.0,0.0,0.0,0.0,0.0,0.0,0.0,0.0,0.0,0.0,0.0,0.0,0.0,0.0,0.0,0.0,0.0,0.0,0.0,0.0,0.0,0.0,0.0,0.0,0.0,0.0,0.0,0.0,0.0,0.0,0.0,0.0,0.0,0.0,0.0,0.0,0.0,0.0,0.0,0.0,0.0,0.0,0.0,0.0,0.0,0.0,0.0,0.0,0.0,0.0,0.0,0.0,0.0,0.0,0.0,0.0,0.0,0.0,0.0,0.0,0.0,0.0,0.0,0.0,0.0,0.0,0.0,0.0,0.0,0.0,0.0,0.0,0.0,0.0,0.0,0.0,0.0,0.0,0.0,0.0,0.0,0.0,0.0,0.0,0.0,0.0,0.0,0.0,0.0,0.0,0.0,0.0,0.0,0.0,0.0,0.0,0.0,0.0,0.0,0.0,0.0,0.0,0.0,0.0,0.0,0.0,0.0,0.0,0.0,0.0,0.0,0.0,0.0,0.0,0.0,0.0,0.0,0.0,0.0,0.0,0.0,0.0,0.0,0.0,0.0,0.0,0.0,0.0,0.0,0.0,0.0,0.0,0.0,0.0,0.0,0.0,0.0,0.0,0.0,0.0,0.0,0.0,0.0,0.0,0.0,0.0,0.0,0.0,0.0,0.0,0.0,0.0,0.0,0.0,0.0,0.0,0.0,0.0,0.0,0.0,0.0,0.0,0.0,0.0,0.0,0.0,0.0,0.0,0.0,0.0,0.0,0.0,0.0,0.0,0.0,0.0,0.0,0.0,0.0,0.0,0.0,0.0,0.0,0.0,0.0,0.0,0.0,0.0,0.0,0.0,0.0,0.0,0.0,0.0,0.0,0.0,0.0,0.0,0.0,0.0,0.0,0.0,0.0,0.0,0.0,0.0,0.0,0.0,0.0,0.0,0.0,0.0,0.0,0.0,0.0,0.0,0.0,0.0,0.0,0.0,0.0,0.0,0.0,0.0,0.0,0.0,0.0,0.0,0.0,0.0,0.0,0.0,0.0,0.0,0.0,0.0,0.0,0.0,0.0,0.0,0.0,0.0,0.0,0.0,0.0,0.0,0.0,0.0,0.0,0.0,0.0,0.0,0.0,0.0,0.0,0.0,0.0,0.0,0.0,0.0,0.0,0.0,0.0,0.0,0.0,0.0,0.0,0.0,0.0,0.0,0.0,0.0,0.0,0.0,0.0,0.0,0.0,0.0,0.0,0.0,0.0,0.0,0.0,0.0,0.0,0.0,0.0,0.0,0.0,0.0,0.0,0.0,0.0,0.0,0.0,0.0,0.0,0.0,0.0,0.0,0.0,0.0,0.0,0.0,0.0,0.0,0.0,0.0,0.0,0.0,0.0,0.0,0.0,0.0,0.0,0.0,0.0,0.0,0.0,0.0,0.0,0.0,0.0,0.0,0.0,0.0,0.0,0.0,0.0,0.0,0.0,0.0,0.0,0.0,0.0,0.0,0.0,0.0,0.0,0.0,0.0,0.0,0.0,0.0,0.0,0.0,0.0,0.0,0.0,0.0,0.0,0.0,0.0,0.0,0.0,0.0,0.0,0.0,0.0,0.0,0.0,0.0,0.0,0.0,0.0,0.0,0.0,0.0,0.0,0.0,0.0,0.0,0.0,0.0,0.0,-0.9123,0.0,0.0,0.0,0.0,0.0,0.0,0.0,0.0,0.0,0.0,0.0,0.0,0.0,0.0,0.0,0.0,0.0,0.0,0.0,0.0,0.0,0.0,0.0,0.0,0.0,0.0,0.0,0.0,0.0,0.0,0.0,0.0,0.0,0.0,0.0,0.0,0.0,0.0,0.0,0.0,0.0,0.0,0.0,0.0,0.0,0.0,0.0,0.0,0.0,0.0,0.0,0.0,0.0,0.0,0.0,0.0,0.0,0.0,0.0,0.0,0.0,0.0,0.0,0.0,0.0,0.0,0.0,0.0,0.0,0.0,0.0,0.0,0.0,0.0,0.0,0.0,0.0,0.0,0.0,0.0,0.0,0.0,0.0,0.0,0.0,0.0,0.0,0.0,0.0,0.0,0.0,0.0,0.0,0.0,0.0,0.0,0.0,0.0,0.0,0.0,0.0,0.0,0.0,0.0,0.0,0.0,0.0,0.0,0.0,0.0,-1.0402,-0.9927,-0.978,-0.9655,-0.9655,0.0,0.0,0.0,0.0,0.0,0.0,0.0,0.0,0.0,0.0,0.0,0.0,0.0,0.0,0.0,0.0,0.0,0.0,0.0,0.0,0.0,0.0,0.0,0.0,0.0,0.0,0.0,0.0,0.0,0.0,0.0,0.0,0.0,0.0,0.0,0.0,0.0,0.0,0.0,0.0,0.0,0.0,0.0,0.0,0.0,0.0,0.0,0.0,0.0,0.0,0.0,0.0,0.0,0.0,0.0,0.0,0.0,0.0,0.0,0.0,0.0,0.0,0.0,0.0,0.0,0.0,0.0,0.0,0.0,0.0,0.0,0.0,0.0,0.0,0.0,0.0,0.0,0.0,0.0,0.0,0.0,0.0,0.0,0.0,0.0,0.0,0.0,0.0,0.0,0.0,0.0,0.0,0.0,0.0,0.0,0.0,0.0,0.0,0.0,0.0,0.0,0.0,0.0,0.0,0.0,0.0,0.0,0.0,0.0,0.0,0.0,0.0,-1.0448,-1.0448,-1.0314,0.0,0.0,0.0,0.0,0.0,0.0,0.0,0.0,0.0,0.0,0.0,0.0,0.0,0.0,0.0,0.0,0.0,0.0,0.0,0.0,0.0,0.0,0.0,0.0,0.0,0.0,0.0,0.0,0.0,0.0,0.0,0.0,0.0,0.0,0.0,0.0,0.0,0.0,0.0,0.0,0.0,0.0,0.0,0.0,0.0,0.0,0.0,0.0,0.0,0.0,0.0,0.0,0.0,0.0,0.0,0.0,0.0,0.0,0.0,0.0,0.0,0.0,0.0,0.0,0.0,0.0,0.0,0.0,0.0,0.0,0.0,0.0,0.0,0.0,0.0,0.0,0.0,0.0,0.0,0.0,0.0,0.0,0.0,0.0,0.0,0.0,0.0,0.0,0.0,0.0,0.0,0.0,0.0,0.0,0.0,0.0,0.0,0.0,0.0,0.0,0.0,0.0,0.0,0.0,0.0,0.0,0.0,0.0,0.0,0.0,-1.1787,-1.0929,-1.1423,0.0,-1.0902,0.0,0.0,0.0,0.0,0.0,0.0,0.0,0.0,0.0,0.0,0.0,0.0,0.0,0.0,0.0,0.0,0.0,0.0,0.0,0.0,0.0,0.0,0.0,0.0,0.0,0.0,0.0,0.0,0.0,0.0,0.0,0.0,0.0,0.0,0.0,0.0,0.0,0.0,0.0,0.0,0.0,0.0,0.0,0.0,0.0,0.0,0.0,0.0,0.0,0.0,0.0,0.0,0.0,0.0,0.0,0.0,0.0,0.0,0.0,0.0,0.0,0.0,0.0,0.0,0.0,0.0,0.0,0.0,0.0,0.0,0.0,0.0,0.0,0.0,0.0,0.0,0.0,0.0,0.0,0.0,0.0,0.0,0.0,0.0,0.0,0.0,0.0,0.0,0.0,0.0,0.0,0.0,0.0,0.0,0.0,0.0,0.0,0.0,0.0,0.0,0.0,0.0,0.0,0.0,0.0,0.0,0.0,0.0,0.0,0.0,-1.2081,-1.1516,-1.1904,-1.2011,0.0,0.0,0.0,0.0,0.0,0.0,0.0,0.0,0.0,0.0,0.0,0.0,0.0,0.0,0.0,0.0,0.0,0.0,0.0,0.0,0.0,0.0,0.0,0.0,0.0,0.0,0.0,0.0,0.0,0.0,0.0,0.0,0.0,0.0,0.0,0.0,0.0,0.0,0.0,0.0,0.0,0.0,0.0,0.0,0.0,0.0,0.0,0.0,0.0,0.0,0.0,0.0,0.0,0.0,0.0,0.0,0.0,0.0,0.0,0.0,0.0,0.0,0.0,0.0,0.0,0.0,0.0,0.0,0.0,0.0,0.0,0.0,0.0,0.0,0.0,0.0,0.0,0.0,0.0,0.0,0.0,0.0,0.0,0.0,0.0,0.0,0.0,0.0,0.0,0.0,0.0,0.0,0.0,0.0,0.0,0.0,0.0,0.0,0.0,0.0,0.0,0.0,0.0,0.0,0.0,0.0,0.0,0.0,0.0,0.0,-1.1943,-1.2499,-1.2526,-1.2438,-1.2425,-1.2412,0.0,0.0,0.0,0.0,0.0,0.0,0.0,0.0,0.0,0.0,0.0,0.0,0.0,0.0,0.0,0.0,0.0,0.0,0.0,0.0,0.0,0.0,0.0,0.0,0.0,0.0,0.0,0.0,0.0,0.0,0.0,0.0,0.0,0.0,0.0,0.0,0.0,0.0,0.0,0.0,0.0,0.0,0.0,0.0,0.0,0.0,0.0,0.0,0.0,0.0,0.0,0.0,0.0,0.0,0.0,0.0,0.0,0.0,0.0,0.0,0.0,0.0,0.0,0.0,0.0,0.0,0.0,0.0,0.0,0.0,0.0,0.0,0.0,0.0,0.0,0.0,0.0,0.0,0.0,0.0,0.0,0.0,0.0,0.0,0.0,0.0,0.0,0.0,0.0,0.0,0.0,0.0,0.0,0.0,0.0,0.0,0.0,0.0,0.0,0.0,0.0,0.0,0.0,0.0,0.0,0.0,0.0,0.0,-1.0672,-1.2249,-1.3418,-1.3895,-1.316,-1.2808,0.0,0.0,0.0,0.0,0.0,0.0,0.0,0.0,0.0,0.0,0.0,0.0,0.0,0.0,0.0,0.0,0.0,0.0,0.0,0.0,0.0,0.0,0.0,0.0,0.0,0.0,0.0,0.0,0.0,0.0,0.0,0.0,0.0,0.0,0.0,0.0,0.0,0.0,0.0,0.0,0.0,0.0,0.0,0.0,0.0,0.0,0.0,0.0,0.0,0.0,0.0,0.0,0.0,0.0,0.0,0.0,0.0,0.0,0.0,0.0,0.0,0.0,0.0,0.0,0.0,0.0,0.0,0.0,0.0,0.0,0.0,0.0,0.0,0.0,0.0,0.0,0.0,0.0,0.0,0.0,0.0,0.0,0.0,0.0,0.0,0.0,0.0,0.0,0.0,0.0,0.0,0.0,0.0,0.0,0.0,0.0,0.0,0.0,0.0,0.0,0.0,0.0,0.0,0.0,0.0,0.0,0.0,0.0,0.0,-1.0848,-1.2417,-1.3453,-1.4028,-1.3414,-1.2959,0.0,0.0,0.0,0.0,0.0,0.0,0.0,0.0,0.0,0.0,0.0,0.0,0.0,0.0,0.0,0.0,0.0,0.0,0.0,0.0,0.0,0.0,0.0,0.0,0.0,0.0,0.0,0.0,0.0,0.0,0.0,0.0,0.0,0.0,0.0,0.0,0.0,0.0,0.0,0.0,0.0,0.0,0.0,0.0,0.0,0.0,0.0,0.0,0.0,0.0,0.0,0.0,0.0,0.0,0.0,0.0,0.0,0.0,0.0,0.0,0.0,0.0,0.0,0.0,0.0,0.0,0.0,0.0,0.0,0.0,0.0,0.0,0.0,0.0,0.0,0.0,0.0,0.0,0.0,0.0,0.0,0.0,0.0,0.0,0.0,0.0,0.0,0.0,0.0,0.0,0.0,0.0,0.0,0.0,0.0,0.0,0.0,0.0,0.0,0.0,0.0,0.0,0.0,0.0,0.0,0.0,0.0,0.0,0.0,-1.1927,0.0,-1.3734,-1.4188,-1.3667,-1.3106,0.0,0.0,0.0,0.0,0.0,0.0,0.0,0.0,0.0,0.0,0.0,0.0,0.0,0.0,0.0,0.0,0.0,0.0,0.0,0.0,0.0,0.0,0.0,0.0,0.0,0.0,0.0,0.0,0.0,0.0,0.0,0.0,0.0,0.0,0.0,0.0,0.0,0.0,0.0,0.0,0.0,0.0,0.0,0.0,0.0,0.0,0.0,0.0,0.0,0.0,0.0,0.0,0.0,0.0,0.0,0.0,0.0,0.0,0.0,0.0,0.0,0.0,0.0,0.0,0.0,0.0,0.0,0.0,0.0,0.0,0.0,0.0,0.0,0.0,0.0,0.0,0.0,0.0,0.0,0.0,0.0,0.0,0.0,0.0,0.0,0.0,0.0,0.0,0.0,0.0,0.0,0.0,0.0,0.0,0.0,0.0,0.0,0.0,0.0,0.0,0.0,0.0,0.0,0.0,0.0,0.0,0.0,0.0,-1.0556,-1.3909,-1.4062,-1.4229,-1.4496,-1.3975,-1.324,0.0,0.0,0.0,0.0,0.0,0.0,0.0,0.0,0.0,0.0,0.0,0.0,0.0,0.0,0.0,0.0,0.0,0.0,0.0,0.0,0.0,0.0,0.0,0.0,0.0,0.0,0.0,0.0,0.0,0.0,0.0,0.0,0.0,0.0,0.0,0.0,0.0,0.0,0.0,0.0,0.0,0.0,0.0,0.0,0.0,0.0,0.0,0.0,0.0,0.0,0.0,0.0,0.0,0.0,0.0,0.0,0.0,0.0,0.0,0.0,0.0,0.0,0.0,0.0,0.0,0.0,0.0,0.0,0.0,0.0,0.0,0.0,0.0,0.0,0.0,0.0,0.0,0.0,0.0,0.0,0.0,0.0,0.0,0.0,0.0,0.0,0.0,0.0,0.0,0.0,0.0,0.0,0.0,0.0,0.0,0.0,0.0,0.0,0.0,0.0,0.0,0.0,0.0,0.0,0.0,0.0,0.0,0.0,0.0,-1.5161,-1.4949,-1.483,-1.5097,-1.4549,-1.3745,0.0,0.0,0.0,0.0,0.0,0.0,0.0,0.0,0.0,0.0,0.0,0.0,0.0,0.0,0.0,0.0,0.0,0.0,0.0,0.0,0.0,0.0,0.0,0.0,0.0,0.0,0.0,0.0,0.0,0.0,0.0,0.0,0.0,0.0,0.0,0.0,0.0,0.0,0.0,0.0,0.0,0.0,0.0,0.0,0.0,0.0,0.0,0.0,0.0,0.0,0.0,0.0,0.0,0.0,0.0,0.0,0.0,0.0,0.0,0.0,0.0,0.0,0.0,0.0,0.0,0.0,0.0,0.0,0.0,0.0,0.0,0.0,0.0,0.0,0.0,0.0,0.0,0.0,0.0,0.0,0.0,0.0,0.0,0.0,0.0,0.0,0.0,0.0,0.0,0.0,0.0,0.0,0.0,0.0,0.0,0.0,0.0,0.0,0.0,0.0,0.0,0.0,0.0,0.0,0.0,0.0,0.0,0.0,0.0,-1.5014,-1.5324,-1.5523,-1.5695,-1.5219,-1.4235,-1.2917,0.0,0.0,0.0,0.0,0.0,0.0,0.0,0.0,0.0,0.0,0.0,0.0,0.0,0.0,0.0,0.0,0.0,0.0,0.0,0.0,0.0,0.0,0.0,0.0,0.0,0.0,0.0,0.0,0.0,0.0,0.0,0.0,0.0,0.0,0.0,0.0,0.0,0.0,0.0,0.0,0.0,0.0,0.0,0.0,0.0,0.0,0.0,0.0,0.0,0.0,0.0,0.0,0.0,0.0,0.0,0.0,0.0,0.0,0.0,0.0,0.0,0.0,0.0,0.0,0.0,0.0,0.0,0.0,0.0,0.0,0.0,0.0,0.0,0.0,0.0,0.0,0.0,0.0,0.0,0.0,0.0,0.0,0.0,0.0,0.0,0.0,0.0,0.0,0.0,0.0,0.0,0.0,0.0,0.0,0.0,0.0,0.0,0.0,0.0,0.0,0.0,0.0,0.0,0.0,0.0,0.0,0.0,0.0,-1.3945,-1.5392,-1.6253,-1.6276,-1.5719,-1.4669,0.0,0.0,0.0,0.0,0.0,0.0,0.0,0.0,0.0,0.0,0.0,0.0,0.0,0.0,0.0,0.0,0.0,0.0,0.0,0.0,0.0,0.0,0.0,0.0,0.0,0.0,0.0,0.0,0.0,0.0,0.0,0.0,0.0,0.0,0.0,0.0,0.0,0.0,0.0,0.0,0.0,0.0,0.0,0.0,0.0,0.0,0.0,0.0,0.0,0.0,0.0,0.0,0.0,0.0,0.0,0.0,0.0,0.0,0.0,0.0,0.0,0.0,0.0,0.0,0.0,0.0,0.0,0.0,0.0,0.0,0.0,0.0,0.0,0.0,0.0,0.0,0.0,0.0,0.0,0.0,0.0,0.0,0.0,0.0,0.0,0.0,0.0,0.0,0.0,0.0,0.0,0.0,0.0,0.0,0.0,0.0,0.0,0.0,0.0,0.0,0.0,0.0,0.0,0.0,0.0,0.0,0.0,0.0,0.0,-1.5446,-1.5456,-1.5727,-1.6089,-1.5243,-1.4445,0.0,0.0,0.0,0.0,0.0,0.0,0.0,0.0,0.0,0.0,0.0,0.0,0.0,0.0,0.0,0.0,0.0,0.0,0.0,0.0,0.0,0.0,0.0,0.0,0.0,0.0,0.0,0.0,0.0,0.0,0.0,0.0,0.0,0.0,0.0,0.0,0.0,0.0,0.0,0.0,0.0,0.0,0.0,0.0,0.0,0.0,0.0,0.0,0.0,0.0,0.0,0.0,0.0,0.0,0.0,0.0,0.0,0.0,0.0,0.0,0.0,0.0,0.0,0.0,0.0,0.0,0.0,0.0,0.0,0.0,0.0,0.0,0.0,0.0,0.0,0.0,0.0,0.0,0.0,0.0,0.0,0.0,0.0,0.0,0.0,0.0,0.0,0.0,0.0,0.0,0.0,0.0,0.0,0.0,0.0,0.0,0.0,0.0,0.0,0.0,0.0,0.0,0.0,0.0,0.0,0.0,0.0,0.0,-1.3789,-1.4676,-1.4759,-1.4832,-1.513,-1.4809,-1.4334,0.0,0.0,0.0,0.0,0.0,0.0,0.0,0.0,0.0,0.0,0.0,0.0,0.0,0.0,0.0,0.0,0.0,0.0,0.0,0.0,0.0,0.0,0.0,0.0,0.0,0.0,0.0,0.0,0.0,0.0,0.0,0.0,0.0,0.0,0.0,0.0,0.0,0.0,0.0,0.0,0.0,0.0,0.0,0.0,0.0,0.0,0.0,0.0,0.0,0.0,0.0,0.0,0.0,0.0,0.0,0.0,0.0,0.0,0.0,0.0,0.0,0.0,0.0,0.0,0.0,0.0,0.0,0.0,0.0,0.0,0.0,0.0,0.0,0.0,0.0,0.0,0.0,0.0,0.0,0.0,0.0,0.0,0.0,0.0,0.0,0.0,0.0,0.0,0.0,0.0,0.0,0.0,0.0,0.0,0.0,0.0,0.0,0.0,0.0,0.0,0.0,0.0,0.0,0.0,0.0,0.0,0.0,0.0,-1.3485,-1.2827,-1.3582,-1.3843,-1.3573,-1.4311,-1.4147,0.0,0.0,0.0,0.0,0.0,0.0,0.0,0.0,0.0,0.0,0.0,0.0,0.0,0.0,0.0,0.0,0.0,0.0,0.0,0.0,0.0,0.0,0.0,0.0,0.0,0.0,0.0,0.0,0.0,0.0,0.0,0.0,0.0,0.0,0.0,0.0,0.0,0.0,0.0,0.0,0.0,0.0,0.0,0.0,0.0,0.0,0.0,0.0,0.0,0.0,0.0,0.0,0.0,0.0,0.0,0.0,0.0,0.0,0.0,0.0,0.0,0.0,0.0,0.0,0.0,0.0,0.0,0.0,0.0,0.0,0.0,0.0,0.0,0.0,0.0,0.0,0.0,0.0,0.0,0.0,0.0,0.0,0.0,0.0,0.0,0.0,0.0,0.0,0.0,0.0,0.0,0.0,0.0,0.0,0.0,0.0,0.0,0.0,0.0,0.0,0.0,0.0,0.0,0.0,0.0,0.0,0.0,0.0,-1.2955,-1.2776,-1.3003,-1.2979,-1.258,-1.2794,-1.2846,0.0,0.0,0.0,0.0,0.0,0.0,0.0,0.0,0.0,0.0,0.0,0.0,0.0,0.0,0.0,0.0,0.0,0.0,0.0,0.0,0.0,0.0,0.0,0.0,0.0,0.0,0.0,0.0,0.0,0.0,0.0,0.0,0.0,0.0,0.0,0.0,0.0,0.0,0.0,0.0,0.0,0.0,0.0,0.0,0.0,0.0,0.0,0.0,-1.4455,0.0,0.0,0.0,0.0,0.0,0.0,0.0,0.0,0.0,0.0,0.0,0.0,0.0,0.0,0.0,0.0,0.0,0.0,0.0,0.0,0.0,0.0,0.0,0.0,0.0,0.0,0.0,0.0,0.0,0.0,0.0,0.0,0.0,0.0,0.0,0.0,0.0,0.0,0.0,0.0,0.0,0.0,0.0,0.0,0.0,0.0,0.0,0.0,0.0,0.0,0.0,0.0,0.0,0.0,0.0,0.0,0.0,0.0,0.0,-1.2504,-1.2523,-1.2386,-1.2173,-1.1769,-1.1741,-1.1752,0.0,0.0,0.0,0.0,0.0,0.0,0.0,0.0,0.0,0.0,0.0,0.0,0.0,0.0,0.0,0.0,0.0,0.0,0.0,0.0,0.0,0.0,0.0,0.0,0.0,0.0,0.0,0.0,0.0,0.0,0.0,0.0,0.0,0.0,0.0,0.0,0.0,0.0,0.0,0.0,0.0,0.0,0.0,0.0,0.0,0.0,0.0,0.0,0.0,0.0,0.0,0.0,0.0,0.0,0.0,0.0,0.0,0.0,0.0,0.0,0.0,0.0,0.0,0.0,0.0,0.0,0.0,0.0,0.0,0.0,0.0,0.0,0.0,0.0,0.0,0.0,0.0,0.0,0.0,0.0,0.0,0.0,0.0,0.0,0.0,0.0,0.0,0.0,0.0,0.0,0.0,0.0,0.0,0.0,0.0,0.0,0.0,0.0,0.0,0.0,0.0,0.0,0.0,0.0,0.0,0.0,0.0,-1.2208,-1.2259,-1.2107,-1.1896,-1.1652,-1.1247,-1.1091,-1.0893,-1.0555,0.0,0.0,0.0,0.0,0.0,0.0,0.0,0.0,0.0,0.0,0.0,0.0,0.0,0.0,0.0,0.0,0.0,0.0,0.0,0.0,0.0,0.0,0.0,0.0,0.0,0.0,0.0,0.0,0.0,0.0,0.0,0.0,0.0,0.0,0.0,0.0,0.0,0.0,-1.3933,-1.5031,0.0,0.0,0.0,0.0,0.0,0.0,0.0,0.0,-1.5158,0.0,0.0,0.0,0.0,0.0,0.0,0.0,0.0,0.0,0.0,0.0,0.0,0.0,0.0,0.0,0.0,0.0,0.0,0.0,0.0,0.0,0.0,0.0,0.0,0.0,0.0,0.0,0.0,0.0,0.0,0.0,0.0,0.0,0.0,0.0,0.0,0.0,0.0,0.0,0.0,0.0,0.0,0.0,0.0,0.0,0.0,0.0,0.0,0.0,0.0,0.0,0.0,0.0,0.0,0.0,0.0,-1.1362,-1.223,-1.2386,-1.1811,-1.215,-1.1909,-1.1247,-1.1091,-1.0517,-0.9634,0.0,0.0,0.0,0.0,0.0,0.0,0.0,0.0,0.0,0.0,0.0,0.0,0.0,0.0,0.0,0.0,0.0,0.0,0.0,0.0,0.0,0.0,0.0,0.0,0.0,0.0,0.0,0.0,0.0,0.0,0.0,0.0,0.0,0.0,0.0,0.0,0.0,0.0,0.0,-1.608,-1.6296,0.0,0.0,0.0,0.0,0.0,0.0,0.0,0.0,-1.5564,0.0,0.0,0.0,0.0,0.0,0.0,0.0,0.0,0.0,0.0,0.0,0.0,0.0,0.0,0.0,0.0,0.0,0.0,0.0,0.0,0.0,0.0,0.0,0.0,0.0,0.0,0.0,0.0,0.0,0.0,0.0,0.0,0.0,0.0,0.0,0.0,0.0,0.0,0.0,0.0,0.0,0.0,0.0,0.0,0.0,0.0,0.0,0.0,0.0,0.0,0.0,0.0,0.0,0.0,0.0,-1.1397,-1.1804,-1.1838,-1.1754,-1.1652,-1.129,-1.1094,-1.0878,-1.0307,0.0,0.0,0.0,0.0,0.0,0.0,0.0,0.0,0.0,0.0,0.0,0.0,0.0,0.0,0.0,0.0,0.0,0.0,0.0,0.0,0.0,0.0,0.0,0.0,0.0,0.0,0.0,0.0,0.0,0.0,0.0,0.0,0.0,0.0,0.0,0.0,0.0,0.0,0.0,0.0,-1.6395,-1.658,-1.6952,0.0,0.0,0.0,0.0,0.0,0.0,-1.7021,-1.6526,0.0,0.0,0.0,0.0,0.0,0.0,0.0,0.0,0.0,0.0,0.0,0.0,0.0,0.0,0.0,0.0,0.0,0.0,0.0,0.0,0.0,0.0,0.0,0.0,0.0,0.0,0.0,0.0,0.0,0.0,0.0,0.0,0.0,0.0,0.0,0.0,0.0,0.0,0.0,0.0,0.0,0.0,0.0,0.0,0.0,0.0,0.0,0.0,0.0,0.0,0.0,0.0,0.0,0.0,0.0,-1.1397,-1.1445,-1.1372,-1.1548,-1.1192,-1.0867,-1.0982,-1.0663,-1.0215,0.0,0.0,0.0,0.0,0.0,0.0,0.0,0.0,0.0,0.0,0.0,0.0,0.0,0.0,0.0,0.0,0.0,0.0,0.0,0.0,0.0,0.0,0.0,0.0,0.0,0.0,0.0,0.0,0.0,0.0,0.0,0.0,0.0,0.0,0.0,0.0,0.0,0.0,0.0,0.0,0.0,-1.6981,-1.7635,-1.7368,0.0,0.0,0.0,0.0,-1.7903,-1.7943,0.0,0.0,0.0,0.0,0.0,0.0,0.0,0.0,0.0,0.0,0.0,0.0,0.0,0.0,0.0,0.0,0.0,0.0,0.0,0.0,0.0,0.0,0.0,0.0,0.0,0.0,0.0,0.0,0.0,0.0,0.0,0.0,0.0,0.0,0.0,0.0,0.0,0.0,0.0,0.0,0.0,0.0,0.0,0.0,0.0,0.0,0.0,0.0,0.0,0.0,0.0,0.0,0.0,0.0,0.0,0.0,-1.0683,-1.1487,-1.1526,-1.1042,-1.1453,-1.1393,-1.1131,-1.0717,-1.0215,0.0,0.0,0.0,0.0,0.0,0.0,0.0,0.0,0.0,0.0,0.0,0.0,0.0,0.0,0.0,0.0,0.0,0.0,0.0,0.0,0.0,0.0,0.0,0.0,0.0,0.0,0.0,0.0,0.0,0.0,0.0,0.0,0.0,0.0,0.0,0.0,0.0,0.0,0.0,0.0,0.0,-1.7472,-1.8263,-1.833,-1.8183,0.0,0.0,-1.8824,-1.9118,-1.9158,0.0,0.0,0.0,0.0,0.0,0.0,0.0,0.0,0.0,0.0,0.0,0.0,0.0,0.0,0.0,0.0,0.0,0.0,0.0,0.0,0.0,0.0,0.0,0.0,0.0,0.0,0.0,0.0,0.0,0.0,0.0,0.0,0.0,0.0,0.0,0.0,0.0,0.0,0.0,0.0,0.0,0.0,0.0,0.0,0.0,0.0,0.0,0.0,0.0,0.0,0.0,0.0,0.0,0.0,0.0,-0.9807,-1.0506,-1.1084,-1.139,-1.1337,-1.1406,-1.1344,-1.1287,-1.0772,-1.0256,0.0,0.0,0.0,0.0,0.0,0.0,0.0,0.0,0.0,0.0,0.0,0.0,0.0,0.0,0.0,0.0,0.0,0.0,0.0,0.0,0.0,0.0,0.0,0.0,0.0,0.0,0.0,0.0,0.0,0.0,0.0,0.0,0.0,0.0,0.0,0.0,0.0,0.0,0.0,0.0,0.0,0.0,-1.8637,-1.9025,0.0,0.0,0.0,-1.9653,-1.9626,0.0,0.0,0.0,0.0,0.0,0.0,0.0,0.0,0.0,0.0,0.0,0.0,0.0,0.0,0.0,0.0,0.0,0.0,0.0,0.0,0.0,0.0,0.0,0.0,0.0,0.0,0.0,0.0,0.0,0.0,0.0,0.0,0.0,0.0,0.0,0.0,0.0,0.0,0.0,0.0,0.0,0.0,0.0,0.0,0.0,0.0,0.0,0.0,0.0,0.0,0.0,0.0,0.0,0.0,0.0,0.0,0.0,-1.0303,-1.0841,-1.1248,-1.1635,-1.1399,-1.1335,-1.143,-1.0934,0.0,0.0,0.0,0.0,0.0,0.0,0.0,0.0,0.0,0.0,0.0,0.0,0.0,0.0,0.0,0.0,0.0,0.0,0.0,0.0,0.0,0.0,0.0,0.0,0.0,0.0,0.0,-0.9419,0.0,0.0,0.0,0.0,0.0,0.0,0.0,0.0,0.0,0.0,0.0,0.0,0.0,0.0,-1.829,-1.9038,-1.9653,-2.0013,0.0,0.0,-2.0267,-2.0054,-2.0321,-1.9987,0.0,0.0,0.0,0.0,0.0,0.0,0.0,0.0,0.0,0.0,0.0,0.0,0.0,0.0,0.0,0.0,0.0,0.0,0.0,0.0,0.0,0.0,0.0,0.0,0.0,0.0,0.0,0.0,0.0,0.0,0.0,0.0,0.0,0.0,0.0,0.0,0.0,0.0,0.0,0.0,0.0,0.0,0.0,0.0,0.0,0.0,0.0,0.0,0.0,0.0,0.0,0.0,0.0,0.0,0.0,-1.0051,-1.0884,-1.1362,-1.1382,-1.1518,-1.1592,-1.1599,-1.1287,-1.0772,0.0,0.0,0.0,0.0,0.0,0.0,0.0,0.0,0.0,0.0,0.0,0.0,0.0,0.0,0.0,0.0,0.0,0.0,0.0,0.0,0.0,0.0,0.0,0.0,0.0,0.0,0.0,0.0,0.0,0.0,0.0,0.0,0.0,0.0,0.0,0.0,0.0,0.0,0.0,0.0,0.0,-1.8464,-1.9586,-2.0241,-2.0615,0.0,0.0,-2.0641,-2.0615,-2.1096,-2.0962,-1.9479,0.0,0.0,0.0,0.0,0.0,0.0,0.0,0.0,0.0,0.0,0.0,0.0,0.0,0.0,0.0,0.0,0.0,0.0,0.0,0.0,0.0,0.0,0.0,0.0,0.0,0.0,0.0,0.0,0.0,0.0,0.0,0.0,0.0,0.0,0.0,0.0,0.0,0.0,0.0,0.0,0.0,0.0,0.0,0.0,0.0,0.0,0.0,0.0,0.0,0.0,0.0,0.0,0.0,-0.9033,-0.9724,-1.0785,-1.1436,-1.1531,-1.1586,-1.1619,-1.1619,-1.1321,-1.0853,0.0,0.0,0.0,0.0,0.0,0.0,0.0,0.0,0.0,0.0,0.0,0.0,0.0,0.0,0.0,0.0,0.0,0.0,0.0,0.0,0.0,0.0,0.0,0.0,0.0,0.0,0.0,0.0,-1.5164,-1.5551,-1.4776,0.0,0.0,0.0,0.0,0.0,0.0,0.0,0.0,0.0,0.0,-1.9158,-1.996,-2.0722,0.0,0.0,-2.1376,-2.1416,-2.1243,-2.1403,-2.1176,-2.008,-1.9265,0.0,0.0,0.0,0.0,0.0,0.0,0.0,0.0,0.0,0.0,0.0,0.0,0.0,0.0,0.0,0.0,0.0,0.0,0.0,0.0,0.0,0.0,0.0,0.0,0.0,0.0,0.0,0.0,0.0,0.0,0.0,0.0,0.0,0.0,0.0,0.0,0.0,0.0,0.0,0.0,0.0,0.0,0.0,0.0,0.0,0.0,0.0,0.0,0.0,0.0,0.0,0.0,-0.8948,-0.9734,-1.0873,-1.1511,-1.1619,-1.1619,-1.1619,-1.1613,-1.1409,-1.1043,0.0,0.0,0.0,0.0,0.0,0.0,0.0,0.0,0.0,0.0,0.0,0.0,0.0,0.0,0.0,0.0,0.0,0.0,0.0,0.0,0.0,0.0,0.0,0.0,0.0,0.0,0.0,0.0,-1.6179,-1.5992,-1.4549,0.0,0.0,0.0,0.0,0.0,0.0,0.0,0.0,0.0,0.0,-1.984,-2.0414,-2.1176,-2.1683,-2.1683,-2.1857,-2.1911,-2.171,-2.175,-2.1537,-2.0762,0.0,0.0,0.0,0.0,0.0,0.0,0.0,0.0,0.0,0.0,0.0,0.0,0.0,0.0,0.0,0.0,0.0,0.0,0.0,0.0,0.0,0.0,0.0,0.0,0.0,0.0,0.0,0.0,0.0,0.0,0.0,0.0,0.0,0.0,0.0,0.0,0.0,0.0,0.0,0.0,0.0,0.0,0.0,0.0,0.0,0.0,0.0,0.0,0.0,0.0,0.0,0.0,0.0,-0.9144,-1.0039,-1.1084,-1.1619,-1.1626,-1.1619,-1.1633,-1.1626,-1.1613,-1.1396,-1.0941,0.0,0.0,0.0,0.0,0.0,0.0,0.0,0.0,0.0,0.0,0.0,0.0,0.0,0.0,0.0,0.0,0.0,0.0,0.0,0.0,0.0,0.0,0.0,0.0,0.0,0.0,-1.5003,-1.5765,-1.5698,0.0,0.0,0.0,0.0,0.0,0.0,0.0,0.0,0.0,0.0,-1.9292,-2.0428,-2.1015,-2.1603,-2.1991,-2.1977,-2.2004,-2.2004,-2.1991,-2.2218,-2.2205,0.0,0.0,0.0,0.0,0.0,0.0,0.0,0.0,0.0,0.0,0.0,0.0,0.0,0.0,0.0,0.0,0.0,0.0,0.0,0.0,0.0,0.0,0.0,0.0,0.0,0.0,0.0,-0.8091,-0.7819,0.0,0.0,0.0,0.0,0.0,0.0,0.0,0.0,0.0,0.0,0.0,-1.0369,-1.0683,0.0,0.0,0.0,0.0,0.0,0.0,0.0,0.0,0.0,0.0,0.0,0.0,-0.9442,-1.0337,-1.1274,-1.1809,-1.1911,-1.1911,-1.1911,-1.1911,-1.1918,-1.1701,-1.1253,0.0,0.0,0.0,0.0,0.0,0.0,0.0,0.0,0.0,0.0,0.0,0.0,0.0,0.0,0.0,0.0,0.0,0.0,0.0,0.0,0.0,0.0,0.0,0.0,0.0,-1.514,0.0,0.0,0.0,0.0,0.0,0.0,0.0,0.0,0.0,0.0,0.0,-1.8477,-1.9639,-2.0548,-2.1256,-2.1643,-2.2191,-2.2498,0.0,0.0,0.0,0.0,0.0,0.0,0.0,0.0,0.0,0.0,0.0,0.0,0.0,0.0,-1.9092,-1.7822,-1.7756,-1.7822,-1.7635,0.0,0.0,0.0,0.0,0.0,0.0,0.0,0.0,0.0,0.0,0.0,0.0,0.0,0.0,0.0,0.0,-0.7737,0.0,0.0,0.0,0.0,0.0,0.0,0.0,0.0,-1.0579,-1.0646,-1.0654,-1.0868,-1.0875,0.0,-1.0158,-0.9525,0.0,0.0,0.0,0.0,0.0,0.0,0.0,0.0,-0.9856,-1.0649,-1.1389,-1.1891,-1.2135,-1.2189,-1.2216,-1.221,-1.2169,-1.2006,-1.1714,-1.1036,-1.046,0.0,0.0,0.0,0.0,0.0,0.0,0.0,0.0,0.0,0.0,0.0,0.0,0.0,0.0,0.0,0.0,0.0,0.0,0.0,0.0,0.0,0.0,0.0,-1.5354,0.0,0.0,0.0,0.0,0.0,0.0,0.0,0.0,0.0,-1.7328,-1.8704,-2.0054,-2.1002,-2.1643,-2.2111,-2.2418,0.0,0.0,0.0,0.0,0.0,0.0,0.0,-2.2986,-2.2789,-2.2722,-2.2443,-2.2054,-2.1647,-2.1463,-2.1724,0.0,0.0,-1.9706,-1.9559,-1.9626,-1.9439,-1.9546,-1.9679,-1.9679,-1.984,-2.0054,0.0,0.0,0.0,0.0,0.0,0.0,0.0,0.0,-0.9486,-0.9367,0.0,-0.8233,0.0,0.0,0.0,0.0,0.0,0.0,0.0,0.0,-1.077,-1.0919,-1.0918,-1.0799,-1.0887,-1.1157,-1.141,-1.1523,-1.1441,-0.9774,0.0,0.0,0.0,0.0,0.0,0.0,-1.0378,-1.0995,-1.1557,-1.1993,-1.2318,-1.2447,-1.2515,-1.2515,-1.2386,-1.2311,-1.2291,-1.1735,-1.1348,-1.1172,-0.993,0.0,0.0,0.0,0.0,0.0,0.0,0.0,0.0,0.0,0.0,0.0,0.0,0.0,0.0,0.0,0.0,0.0,0.0,0.0,0.0,-1.3795,0.0,0.0,0.0,0.0,0.0,0.0,0.0,0.0,0.0,0.0,-1.8493,-2.0,-2.1376,-2.1964,0.0,0.0,0.0,0.0,-2.2769,-2.3028,-2.2506,-2.1943,-2.1943,-2.2231,-2.2388,-2.2388,0.0,0.0,-2.3126,-2.2823,-2.2611,-2.2762,-2.2671,-2.2735,-2.1199,-2.1075,-2.1203,-2.1189,-2.1203,-2.1189,-2.1203,-2.1243,-2.1323,-0.9768,0.0,0.0,0.0,0.0,-1.0239,-1.0023,-0.9566,-0.9765,-0.9752,-0.9384,-0.9349,0.0,0.0,0.0,0.0,0.0,0.0,-1.0822,-1.0933,-1.0877,-1.0955,-1.1111,-1.1027,-1.1154,-1.1214,-1.1423,-1.1633,-1.1538,-1.1101,-1.0739,-1.07,0.0,0.0,0.0,0.0,-1.1138,-1.1735,-1.2159,-1.2501,-1.2766,-1.2807,-1.2834,-1.2827,-1.2793,-1.2773,-1.2766,-1.2393,-1.2067,-1.1803,-1.1023,0.0,0.0,0.0,0.0,0.0,0.0,0.0,0.0,0.0,0.0,0.0,0.0,0.0,0.0,0.0,0.0,0.0,0.0,0.0,-1.3163,-1.4209,-1.4624,0.0,0.0,0.0,0.0,0.0,0.0,0.0,0.0,0.0,-1.9744,-2.0572,-2.1493,0.0,0.0,-2.2256,-2.2488,-2.2664,-2.2374,-2.1094,0.0,0.0,0.0,-1.9821,-2.0081,-2.0081,-1.98,-1.9607,-1.9658,-1.9284,-1.9122,-1.9268,-1.9337,-1.9426,-2.0426,-2.1874,-2.2855,-2.3006,-2.3006,-2.3006,-2.3006,-2.3006,-2.302,-1.0795,-1.0447,-0.9895,-1.0067,-1.0664,-1.0826,-1.0656,-1.0358,-1.0453,-1.0358,-1.0141,-1.01,-0.995,-0.9518,-0.9602,0.0,0.0,0.0,-1.1372,-1.1319,-1.1262,-1.126,-1.1355,-1.1409,-1.1405,-1.1345,-1.173,-1.1999,-1.1998,-1.2155,-1.2322,-1.2157,0.0,0.0,-1.0826,-1.1341,-1.1816,-1.2237,-1.2514,-1.2789,-1.3044,-1.3105,-1.3139,-1.3132,-1.3078,-1.3044,-1.3044,-1.2813,-1.2603,-1.242,-1.1904,-1.1206,0.0,0.0,0.0,0.0,0.0,0.0,0.0,0.0,0.0,0.0,0.0,-0.7235,-0.7409,0.0,0.0,0.0,-1.0667,-1.1827,-1.3285,-1.3906,0.0,0.0,0.0,0.0,0.0,0.0,0.0,-1.5519,-1.683,-1.7907,-1.9029,-1.9326,-2.0184,-2.2626,-2.1443,-2.0717,-2.1822,0.0,-2.0591,-1.9601,-1.9584,-1.9202,-1.8261,-1.8368,-1.8602,-1.8916,-1.8651,-1.8377,-1.8394,-1.8256,-1.8177,-1.8319,-1.822,-1.8581,-1.949,-2.1449,-2.3082,-2.3432,-2.3768,-2.3768,-2.3781,-2.3781,-2.3808,-1.1664,-1.1497,-1.0941,-1.0932,-1.1185,-1.1184,-1.118,-1.1158,-1.1158,-1.109,-1.0839,-1.0822,-1.0657,-1.0424,-1.0704,0.0,0.0,-1.165,-1.1675,-1.1678,-1.1674,-1.1653,-1.1667,-1.1784,-1.1768,-1.1639,-1.2251,-1.2491,-1.2498,-1.313,-1.3209,-1.3021,-1.2764,-1.2318,-1.1742,-1.2128,-1.2413,-1.2556,-1.2809,-1.3023,-1.3193,-1.3329,-1.3397,-1.3397,-1.3261,-1.3193,-1.3186,-1.3051,-1.2976,-1.2963,-1.2569,-1.2142,-1.166,0.0,0.0,0.0,0.0,0.0,0.0,0.0,0.0,0.0,0.0,0.0,0.0,0.0,0.0,0.0,-1.106,0.0,-1.2716,-1.3173,0.0,0.0,0.0,-1.3119,-1.2897,-1.3352,-1.3928,-1.4508,0.0,0.0,0.0,0.0,-1.827,-2.2355,-2.034,-1.8958,-2.0935,-1.9409,-1.8106,-1.816,-1.7548,-1.7083,-1.6801,-1.7127,-1.7435,-1.8059,-1.8494,-1.8346,-1.8336,-1.8298,-1.8465,-1.8288,-1.8445,-1.8573,-1.8583,-1.9948,-2.1471,-2.2518,-2.3222,-2.3641,-2.3851,-2.372,-2.3786,-1.155,-1.1544,-1.1471,-1.1477,-1.1488,-1.1523,-1.1413,-1.1165,-1.1165,-1.1145,-1.1111,-1.1145,-1.1165,-1.1324,-1.1406,-1.1402,-1.1572,-1.1839,-1.1928,-1.2004,-1.1925,-1.1959,-1.1959,-1.2026,-1.2025,-1.2073,-1.2393,-1.2535,-1.247,-1.313,-1.3366,-1.3332,-1.3235,-1.2883,-1.2488,-1.2684,-1.2868,-1.301,-1.3234,-1.3349,-1.3349,-1.3383,-1.3397,-1.3397,-1.337,-1.3349,-1.3349,-1.32,-1.3125,-1.3119,-1.2922,-1.2596,-1.2149,-1.1145,0.0,0.0,0.0,0.0,0.0,0.0,0.0,0.0,0.0,-0.8714,-0.8927,0.0,-1.0465,0.0,-1.1317,-1.2058,-1.2779,-1.2866,0.0,0.0,-1.3062,-1.3275,-1.3409,-1.3496,-1.3842,-1.4662,-1.5109,-1.5692,-1.6581,-1.5864,-1.6239,-1.9016,-1.8246,-1.7658,-1.8389,-1.8051,-1.7288,-1.6308,-1.6079,-1.557,-1.4557,-1.443,-1.4579,-1.475,-1.475,-1.475,-1.475,-1.4637,-1.4554,-1.4547,-1.4456,-1.4859,-1.6123,-1.6889,-1.7927,-1.9275,-2.0933,-2.2633,-2.4173,-2.3543,-2.3101,-1.206,-1.206,-1.206,-1.2017,-1.2008,-1.1858,-1.1708,-1.1565,-1.1565,-1.1565,-1.1565,-1.1415,-1.1462,-1.1694,-1.1928,-1.201,-1.1938,-1.2175,-1.2216,-1.2223,-1.2347,-1.2257,-1.2264,-1.24,-1.2387,-1.222,-1.2541,-1.2827,-1.2876,-1.3219,-1.3464,-1.3439,-1.3446,-1.3193,-1.3037,-1.3112,-1.3193,-1.3275,-1.3356,-1.3397,-1.3397,-1.3397,-1.337,-1.3302,-1.3302,-1.3268,-1.3207,-1.3125,-1.3078,-1.3078,-1.3003,-1.2813,-1.2494,-1.1701,-1.0867,0.0,0.0,0.0,0.0,0.0,0.0,0.0,0.0,0.0,0.0,0.0,-1.1179,0.0,-1.1762,0.0,-1.277,-1.2911,-1.2867,-1.2919,-1.3044,-1.325,-1.3275,-1.3144,-1.3348,-1.3923,-1.4094,-1.4388,-1.4953,-1.4554,-1.463,-1.5853,-1.5707,-1.5707,-1.652,-1.6195,-1.5428,-1.4691,-1.4631,-1.4437,-1.3556,-1.3397,-1.3397,-1.3397,-1.3397,-1.3397,-1.3397,-1.3329,-1.3275,-1.3268,-1.3207,-1.3478,-1.4437,-1.5392,-1.6343,-1.7146,-1.8258,-2.0095,-2.2746,-2.2698,-2.2555,-1.2491,-1.2491,-1.2491,-1.2491,-1.2491,-1.2333,-1.2135,-1.206,-1.206,-1.206,-1.206,-1.1755,-1.1619,-1.1808,-1.2271,-1.2456,-1.2484,-1.2491,-1.2491,-1.2505,-1.2601,-1.2562,-1.2569,-1.2834,-1.2802,-1.2655,-1.2822,-1.3226,-1.3363,-1.337,-1.3439,-1.3397,-1.3397,-1.3397,-1.3397,-1.3397,-1.3397,-1.3397,-1.3397,-1.3397,-1.3397,-1.3397,-1.3329,-1.3186,-1.3173,-1.3105,-1.2969,-1.2963,-1.2963,-1.2963,-1.2963,-1.2908,-1.2779,-1.2121,-1.1491,0.0,-1.0256,0.0,0.0,0.0,0.0,0.0,0.0,0.0,0.0,-1.1484,-1.1789,-1.1932,-1.2189,-1.2505,-1.2824,-1.2944,-1.3028,-1.3028,-1.3155,-1.3082,-1.2786,-1.2908,-1.2996,-1.3017,-1.3125,-1.32,-1.337,-1.3315,-1.3397,-1.3556,-1.3714,-1.4203,-1.5185,-1.4533,-1.3556,-1.3397,-1.3397,-1.3549,-1.3397,-1.3397,-1.3397,-1.3397,-1.3397,-1.3397,-1.3397,-1.3417,-1.3431,-1.3431,-1.3444,-1.3458,-1.3458,-1.4765,-1.5585,-1.575,-1.5908,-1.7095,-2.0274,-2.0954,-2.1603,-1.2483,-1.247,-1.247,-1.2628,-1.2951,-1.2793,-1.2515,-1.206,-1.206,-1.206,-1.206,-1.206,-1.2196,-1.2406,-1.242,-1.2549,-1.2463,-1.2793,-1.2951,-1.2951,-1.2847,-1.2874,-1.2874,-1.2935,-1.3017,-1.2956,-1.2963,-1.3207,-1.3356,-1.3363,-1.3376,-1.3397,-1.3397,-1.3397,-1.3397,0.0,0.0,0.0,-1.3397,-1.3397,-1.3397,-1.3397,-1.3329,-1.318,-1.3173,0.0,-1.2969,-1.2963,-1.2963,-1.2963,-1.2963,0.0,0.0,0.0,0.0,0.0,0.0,0.0,0.0,0.0,0.0,0.0,-1.1864,-1.1864,-1.1857,-1.2149,-1.24,-1.2549,-1.2617,-1.2698,-1.2979,-1.302,-1.3034,-1.3034,-1.3061,-1.3123,-1.3071,-1.3112,-1.318,-1.3302,-1.3342,-1.3356,-1.3356,-1.3383,-1.3397,-1.3397,-1.3397,-1.3562,-1.3894,-1.3735,-1.3397,-1.3397,-1.3403,-1.3403,-1.3397,-1.341,-1.3431,-1.3397,-1.3397,-1.341,-1.3424,-1.3519,-1.3587,-1.3587,-1.3675,-1.3749,-1.3749,-1.4096,-1.4238,-1.4259,-1.4252,-1.5333,-1.8913,-1.8484,-1.817,-1.3003,0.0,-1.2983,-1.2976,0.0,-1.3123,-1.2951,-1.2508,-1.2508,-1.2501,-1.2347,-1.2347,-1.2427,-1.2568,-1.2889,-1.2972,-1.2956,-1.3123,-1.3123,-1.313,-1.3198,-1.3064,-1.3071,-1.3139,-1.3214,-1.3117,-1.3281,-1.3322,-1.3397,-1.3397,-1.3397,-1.3397,-1.3397,-1.3397,-1.3403,-1.3478,-1.3478,-1.3397,-1.3397,-1.3397,-1.3397,-1.3397,-1.3329,-1.318,0.0,0.0,0.0,0.0,0.0,0.0,0.0,0.0,0.0,0.0,0.0,-1.24,-1.2182,-1.2054,-1.206,-1.2196,-1.2406,-1.2698,-1.2793,-1.2712,-1.242,-1.2596,-1.2759,-1.2834,-1.2901,-1.2983,-1.3057,-1.3132,-1.318,-1.318,-1.318,-1.3214,-1.3268,-1.3281,-1.3315,-1.3383,-1.3397,-1.3397,-1.3397,-1.3397,-1.3397,-1.3397,-1.3397,-1.3431,-1.3492,-1.3444,-1.3397,-1.3403,-1.3471,-1.3512,-1.3519,-1.358,-1.3614,-1.362,-1.3614,-1.3614,-1.362,-1.3682,-1.3729,-1.3736,-1.3797,-1.3838,-1.3838,-1.3838,-1.3838,-1.3838,-1.3838,-1.4309,-1.63,-1.6601,-1.7101,-1.1288,-1.1271,-1.2761,-1.3408,-1.338,-1.3212,-1.3044,-1.3037,0.0,0.0,0.0,-1.2628,-1.2642,-1.2668,-1.3164,-1.3346,-1.3367,-1.3374,-1.3374,-1.338,-1.3322,-1.3214,-1.322,-1.3342,-1.3397,-1.3397,-1.3397,-1.3397,-1.3397,-1.3397,-1.3397,-1.3403,-1.3424,-1.3451,-1.3485,-1.36,-1.3607,-1.3485,-1.3478,-1.3478,-1.3478,-1.3478,-1.341,-1.3254,-1.3254,-1.3186,-1.3044,-1.301,-1.2996,-1.2996,-1.2976,-1.2976,-1.299,-1.2881,-1.2766,-1.2671,-1.2664,-1.2718,-1.284,-1.2963,-1.3146,-1.3383,-1.3397,-1.3241,-1.2874,-1.2969,-1.3037,-1.3037,-1.3146,-1.3214,-1.3214,-1.3322,-1.3397,-1.3397,-1.3397,-1.3397,-1.3397,-1.3397,-1.3397,-1.3397,-1.3397,-1.3397,-1.3403,-1.3431,-1.3437,-1.3444,-1.3485,-1.3519,-1.362,-1.3573,-1.3505,-1.3519,-1.36,-1.3668,-1.3682,-1.3743,-1.3831,-1.3817,-1.3824,-1.3838,-1.3844,-1.3885,-1.3919,-1.3933,-1.3953,-1.4021,-1.4014,-1.4041,-1.4,-1.4,-1.4,-1.4,-1.4,-1.5204,-1.6534,-0.3334,-0.2495,-1.0185,-1.3403,-1.3397,-1.2529,-1.251,-1.2821,-1.2909,-1.2963,-1.2956,-1.2956,-1.303,-1.3308,-1.3308,-1.3384,-1.3336,-1.3342,-1.3342,0.0,-1.3363,-1.337,-1.337,-1.339,-1.3397,-1.3397,-1.3397,-1.3397,-1.3397,-1.3403,-1.3397,-1.3417,-1.3532,-1.3654,-1.377,-1.3804,-1.3804,-1.3777,-1.3777,-1.3777,-1.3777,-1.3783,-1.3709,-1.3573,-1.3566,-1.3492,-1.3342,-1.3214,-1.3146,-1.3139,-1.3024,-1.3017,-1.3132,-1.3125,-1.3159,-1.3261,-1.3275,-1.3288,-1.3302,-1.3329,-1.3356,-1.3397,-1.3397,-1.337,-1.3315,-1.3329,-1.3336,-1.3336,-1.3349,-1.337,-1.337,-1.3383,-1.3397,-1.3397,-1.3397,-1.3397,-1.3397,-1.341,-1.341,-1.341,-1.3397,-1.341,-1.3437,-1.3526,-1.3593,-1.3614,-1.3688,-1.379,-1.381,-1.379,-1.3783,-1.3777,-1.379,-1.381,-1.3838,-1.3831,-1.3892,-1.3838,-1.3878,-1.3912,-1.3919,-1.4089,-1.4224,-1.4231,-1.4401,-1.4543,-1.457,-1.4611,-1.4563,-1.4543,-1.4536,-1.4557,-1.4543,-1.491,-1.4956,-0.1679,-0.1005,-0.8571,-1.1963,-1.1945,-1.1581,-1.1736,-1.2388,-1.244,-1.271,-1.32,-1.32,-1.3234,-1.3459,-1.3466,-1.3336,-1.3397,-1.3397,-1.3397,-1.3397,-1.3397,-1.3397,-1.3397,-1.3397,-1.3397,-1.3397,-1.3397,-1.3444,-1.3345,-1.3526,-1.3566,-1.3641,-1.3715,-1.3777,-1.3844,-1.3926,-1.3966,-1.396,-1.3885,-1.3844,-1.4016,-1.3844,-1.381,-1.3743,-1.3743,-1.3709,-1.3641,-1.3573,-1.3532,-1.3532,-1.3471,-1.3464,-1.3526,-1.3539,-1.3566,-1.3634,-1.3566,-1.3526,-1.3526,-1.3444,-1.3397,-1.3397,-1.3397,-1.3397,-1.3397,-1.3397,-1.3397,-1.3397,-1.3397,-1.3397,-1.3397,-1.3397,-1.3397,-1.3397,-1.3397,-1.3397,-1.341,-1.3478,-1.3526,-1.3532,-1.3593,-1.3641,-1.3641,-1.3702,-1.3743,-1.3756,-1.3871,-1.3994,-1.4075,-1.4156,-1.4109,-1.3912,-1.3973,-1.4082,-1.4095,-1.4238,-1.4312,-1.4333,-1.4326,-1.4326,-1.4333,-1.4468,-1.4516,-1.4536,-1.4665,-1.4726,-1.4746,-1.474,-1.474,-1.474,-1.474,-1.474,-1.474,-1.474,-1.4638,-0.1355,-0.0677,-0.593,-0.8294,-0.8429,-1.0111,-1.1104,-1.1742,-1.1902,-1.242,-1.3111,-1.3258,-1.3403,-1.3397,-1.3397,-1.3397,-1.3397,-1.3397,-1.3397,-1.3397,-1.3397,-1.3417,-1.3451,-1.3451,-1.3464,-1.3492,-1.3498,-1.3392,-1.3492,-1.3682,-1.3926,-1.3878,-1.3892,-1.3926,-1.3994,-1.4109,-1.419,-1.4211,-1.4102,-1.4014,-1.4305,-1.4119,-1.3939,-1.3946,-1.3946,-1.3946,-1.3939,-1.3912,-1.3892,-1.3892,-1.3858,-1.3838,-1.3838,-1.3838,-1.3838,-1.3831,-1.3736,-1.3675,-1.3668,-1.3566,-1.3498,-1.3498,-1.3498,-1.3498,-1.3498,-1.3498,-1.3485,-1.3458,-1.3492,-1.3512,-1.3519,-1.3505,-1.3498,-1.3498,-1.3498,-1.3519,-1.3512,-1.3607,-1.3675,-1.3688,-1.3777,-1.3831,-1.3844,-1.3871,-1.3926,-1.4014,-1.4122,-1.4272,-1.4387,-1.4496,-1.4394,-1.4217,-1.4251,-1.438,-1.4414,-1.4563,-1.4692,-1.474,-1.4719,-1.4685,-1.4699,-1.474,-1.4787,-1.4787,-1.4862,-1.4923,-1.4903,-1.4943,-1.4977,-1.5004,-1.5018,-1.4984,-1.4997,-1.4997,-1.4875,0.0,-0.0,0.0,-0.1031,-0.1872,-0.7843,-1.0525,-1.0764,-1.1421,-1.1813,-1.224,-1.2971,-1.3417,-1.3403,-1.341,-1.3417,-1.3417,-1.3403,-1.341,-1.341,-1.3403,-1.3471,-1.36,-1.3607,-1.3506,-1.3429,-1.3606,-1.3613,-1.3469,-1.3831,-1.4084,-1.4034,-1.4048,-1.4183,-1.4414,-1.4455,-1.4529,-1.449,-1.4665,-1.4529,-1.4278,-1.4258,-1.4258,-1.4258,-1.4258,-1.4258,-1.4251,-1.4122,-1.4055,-1.4041,-1.3933,-1.3851,-1.368,-1.3851,-1.3844,-1.3858,-1.3838,-1.3824,-1.3824,-1.381,-1.379,-1.3797,-1.379,-1.3797,-1.3797,-1.3804,-1.3743,-1.3675,-1.3736,-1.377,-1.3797,-1.3783,-1.377,-1.3756,-1.377,-1.3804,-1.3783,-1.381,-1.3824,-1.3824,-1.3878,-1.3844,-1.3919,-1.4014,-1.417,-1.438,-1.4509,-1.4618,-1.4665,-1.4692,-1.4733,-1.4665,-1.4699,-1.4692,-1.4699,-1.4706,-1.4787,-1.4774,-1.476,-1.4801,-1.4848,-1.4916,-1.4957,-1.5052,-1.5167,-1.5296,-1.5343,-1.5445,-1.5506,-1.5425,-1.5445,-1.552,-1.5547,-1.5499,-1.5323,0.0,0.0,0.0,0.0,0.0,-0.3275,-0.5673,-0.7704,-1.0119,-1.118,-1.1207,-1.168,-1.2331,-1.333,-1.333,-1.3323,-1.3485,-1.3485,-1.3661,-1.3661,-1.3661,-1.3695,-1.3749,-1.3756,-1.3613,-1.366,-1.3838,-1.3892,-1.3994,-1.415,-1.4312,-1.4448,-1.4468,-1.4529,-1.4638,-1.4645,-1.4679,-1.4733,-1.474,-1.4679,-1.4577,-1.4563,-1.4563,-1.4563,-1.4563,-1.4557,-1.4376,-1.3406,-1.2657,-1.2651,-1.2604,-1.2574,-1.2574,-1.2574,-1.3115,-1.4182,-1.4204,-1.4075,-1.398,-1.3892,-1.3878,-1.3966,-1.398,-1.4014,-1.4109,-1.4183,-1.4211,-1.4143,-1.3966,-1.3838,-1.3851,-1.3844,-1.3838,-1.3838,-1.3838,-1.3844,-1.3838,-1.4007,-1.4116,-1.4122,-1.4265,-1.4367,-1.438,-1.4428,-1.4516,-1.4631,-1.4719,-1.4787,-1.4855,-1.4875,-1.4957,-1.5092,-1.5133,-1.5052,-1.4943,-1.495,-1.5025,-1.5106,-1.5133,-1.5147,-1.5242,-1.5303,-1.5371,-1.535,-1.5459,-1.554,-1.5527,-1.5574,-1.5635,-1.5649,-1.5642,-1.5635,-1.5635,-1.5635,-1.5493,0.0,0.0,0.0,0.0,0.0,0.0,-0.1567,-0.3991,-0.6602,-0.8883,-1.0662,-1.0662,-1.1541,-1.2755,-1.3389,-1.3693,-1.368,-1.3673,-1.3502,-1.3502,-1.3502,-1.3521,-1.3555,-1.3601,-1.3641,-1.3861,-1.3733,-1.3806,-1.4088,-1.4462,-1.4631,-1.4726,-1.474,-1.476,-1.4801,-1.4801,-1.4821,-1.4862,-1.4862,-1.4862,-1.4869,-1.4343,-1.3935,-1.3833,-1.3814,-1.3632,-1.3078,-1.1609,-1.0871,-1.0871,-1.0871,-1.0871,-1.0871,-1.0871,-1.1792,-1.3619,-1.4176,-1.4373,-1.4258,-1.415,-1.4136,-1.4238,-1.4251,-1.4299,-1.4414,-1.4516,-1.457,-1.4543,-1.4272,-1.4102,-1.4089,-1.4089,-1.4089,-1.4089,-1.4089,-1.4089,-1.4116,-1.4306,-1.4421,-1.4441,-1.457,-1.474,-1.474,-1.476,-1.4794,-1.4801,-1.4882,-1.495,-1.5072,-1.5133,-1.5242,-1.5438,-1.5466,-1.5391,-1.5208,-1.5242,-1.5364,-1.5418,-1.5452,-1.5486,-1.5622,-1.5628,-1.5635,-1.5513,-1.5628,-1.5696,-1.571,-1.5716,-1.575,-1.5757,-1.5757,-1.5757,-1.5798,-1.5764,-1.5764,0.0,0.0,0.0,0.0,0.0,0.0,0.0,0.0,0.0,-0.437,-0.9726,-1.0621,-1.102,-1.1455,-1.3035,-1.4112,-1.4077,-1.3217,-1.2872,-1.2872,-1.2687,-1.2551,-1.2842,-1.2796,-1.3286,-1.4123,-1.3481,-1.3369,-1.377,-1.4726,-1.5111,-1.4936,-1.4956,-1.5018,-1.495,-1.4977,-1.5031,-1.4959,-1.4973,-1.5167,-1.4805,-1.3192,-1.2322,-1.1868,-1.1808,-1.109,-0.9421,-0.8856,-0.886,-0.8852,-0.8864,-0.886,-0.8852,-0.8856,-0.9963,-1.1797,-1.3619,-1.4713,-1.4699,-1.4658,-1.4665,-1.4692,-1.4672,-1.4706,-1.4713,-1.474,-1.4753,-1.474,-1.4719,-1.4685,-1.4692,-1.4624,-1.4624,-1.4631,-1.4665,-1.4652,-1.4665,-1.4652,-1.4713,-1.4713,-1.4767,-1.4828,-1.4787,-1.4869,-1.4977,-1.5045,-1.5208,-1.5364,-1.5371,-1.5493,-1.5574,-1.5608,-1.5628,-1.5622,-1.5608,-1.5533,-1.5567,-1.5628,-1.5628,-1.5649,-1.5635,-1.5635,-1.5649,-1.5683,-1.5778,-1.5845,-1.5872,-1.592,-1.5988,-1.6001,-1.5988,-1.5995,-1.5947,-1.6029,-1.6015,0.0,0.0,0.0,0.0,0.0,0.0,0.0,0.0,0.0,-0.1269,-0.4367,-0.8577,-0.822,-0.4381,-1.0002,-1.2425,-1.2437,-1.2308,-1.216,-1.2171,-1.277,-1.301,-1.3052,-1.3107,-1.315,-1.3575,-1.3254,-1.3321,-1.3961,-1.4718,-1.4964,-1.4473,-1.4293,-1.4171,-1.4279,-1.4682,-1.4178,-1.3135,-1.4118,-1.4316,-1.2966,-1.3216,-1.2593,-1.0185,-1.0158,-1.0149,-1.0349,-0.8244,-0.7268,-0.7606,-0.722,-0.7008,-0.7155,-0.8274,-0.9211,-1.0142,-1.1764,-1.3395,-1.4691,-1.4794,-1.4787,-1.4875,-1.4889,-1.4936,-1.4997,-1.5025,-1.5059,-1.514,-1.5167,-1.5201,-1.5215,-1.4977,-1.474,-1.474,-1.4746,-1.476,-1.476,-1.4821,-1.4889,-1.4916,-1.5038,-1.5201,-1.5262,-1.5364,-1.5398,-1.5404,-1.5493,-1.5547,-1.556,-1.5608,-1.5683,-1.575,-1.5778,-1.5811,-1.592,-1.573,-1.5655,-1.5744,-1.5784,-1.5845,-1.5859,-1.5879,-1.59,-1.5879,-1.5954,-1.5981,-1.6001,-1.6029,-1.611,-1.6123,-1.6123,-1.6144,-1.6076,-1.6144,-1.6123,0.0,0.0,0.0,0.0,0.0,0.0,0.0,0.0,0.0,0.0,0.0,-0.5194,-0.4447,-0.1294,-0.5554,-0.7728,-0.7798,-0.7823,-0.9312,-1.1903,-1.2529,-1.2741,-1.2741,-1.2776,-1.2788,-1.2794,-1.2823,-1.3103,-1.3409,-1.399,-1.4065,-1.3608,-1.3424,-1.3662,-1.3939,-1.4533,-1.4006,-1.3109,-1.3109,-1.252,-1.2158,-1.2194,-1.1231,-0.8875,-0.7501,-0.7285,-0.8431,-0.6077,-0.5085,-0.5638,-0.5437,-0.5034,-0.5195,-0.6336,-0.7865,-0.9199,-1.1052,-1.2904,-1.4798,-1.5086,-1.5079,-1.5174,-1.5187,-1.5235,-1.5323,-1.533,-1.5384,-1.5459,-1.5486,-1.554,-1.5533,-1.5269,-1.5031,-1.5031,-1.5031,-1.5031,-1.5031,-1.5126,-1.5187,-1.5228,-1.535,-1.5513,-1.5615,-1.5622,-1.5622,-1.5635,-1.5676,-1.571,-1.571,-1.5757,-1.5805,-1.59,-1.5927,-1.5961,-1.6015,-1.5906,-1.5845,-1.5913,-1.5913,-1.5988,-1.6042,-1.6076,-1.6096,-1.609,-1.6096,-1.611,-1.613,-1.6151,-1.6171,-1.6198,-1.6259,-1.6307,-1.6273,-1.6246,-1.6252,0.0,0.0,0.0,0.0,0.0,0.0,0.0,0.0,0.0,0.0,0.0,0.0,0.0,0.0,0.0,0.0,0.0,0.0,-0.4621,-1.0562,-1.1325,-1.151,-1.1504,-1.1987,-1.2036,-1.2036,-1.2112,-1.2221,-1.2324,-1.251,-1.2565,-1.2659,-1.267,-1.308,-1.4316,-1.3915,-1.4134,-1.3786,-1.1207,-1.0797,-1.2982,-1.0308,-0.8559,-0.737,-0.4211,-0.28,-0.3543,-0.236,-0.2361,-0.3144,-0.3142,-0.3142,-0.3331,-0.352,-0.508,-0.8779,-1.1119,-1.3268,-1.5022,-1.5381,-1.554,-1.556,-1.5601,-1.5567,-1.5567,-1.5588,-1.5608,-1.5635,-1.5642,-1.5655,-1.5669,-1.5628,-1.5581,-1.5622,-1.5533,-1.5533,-1.5567,-1.5608,-1.5628,-1.5608,-1.5635,-1.5642,-1.5649,-1.5689,-1.5703,-1.5723,-1.5784,-1.5859,-1.5866,-1.5947,-1.6049,-1.6062,-1.6049,-1.6056,-1.6076,-1.6083,-1.6083,-1.609,-1.6056,-1.6069,-1.611,-1.6144,-1.6185,-1.6191,-1.6218,-1.6239,-1.6286,-1.6313,-1.6354,-1.6381,-1.6442,-1.6456,-1.6422,-1.6395,-1.6435,0.0,0.0,0.0,0.0,0.0,0.0,0.0,0.0,0.0,0.0,0.0,0.0,0.0,0.0,0.0,0.0,0.0,0.0,0.0,0.0,-0.6579,-0.7921,-0.8312,-1.0877,-1.2133,-1.2005,-1.224,-1.2079,-1.2304,-1.231,-1.2731,-1.2753,-1.2564,-1.2814,-1.2891,-1.0286,-0.8921,-0.9197,-0.8787,-0.7987,-0.7208,-0.9653,-1.0074,-0.7452,-0.3632,-0.2014,-0.3006,-0.2203,-0.1797,-0.1985,-0.1984,-0.2176,-0.236,-0.2945,-0.451,-0.7052,-0.9192,-1.1139,-1.3285,-1.4861,-1.5649,-1.5642,-1.5642,-1.5635,-1.5635,-1.5649,-1.5696,-1.5771,-1.5791,-1.5818,-1.5913,-1.594,-1.5872,-1.5662,-1.5635,-1.5655,-1.5662,-1.5649,-1.5689,-1.5771,-1.5784,-1.5825,-1.5913,-1.5934,-1.5934,-1.5934,-1.5988,-1.6015,-1.6029,-1.6069,-1.6076,-1.6083,-1.609,-1.6151,-1.6205,-1.6246,-1.6259,-1.6246,-1.6212,-1.6191,-1.6218,-1.6239,-1.6279,-1.6307,-1.6334,-1.6374,-1.6429,-1.6469,-1.6503,-1.6517,-1.653,-1.653,-1.6524,-1.6551,-1.6592,0.0,0.0,0.0,0.0,0.0,0.0,0.0,0.0,0.0,0.0,0.0,0.0,0.0,0.0,0.0,0.0,0.0,0.0,0.0,0.0,-0.2301,-0.3846,-0.4808,-0.9696,-1.1129,-0.9798,-0.8431,-0.9436,-1.2056,-0.9469,-0.8092,-0.8113,-0.812,-0.9749,-1.2033,-1.0011,-0.7624,-0.4841,-0.4636,-0.4038,-0.3246,-0.6096,-0.7128,-0.4696,-0.2246,-0.1429,-0.1837,-0.1429,-0.1015,-0.1004,-0.1001,-0.1197,-0.139,-0.2383,-0.3768,-0.5344,-0.7909,-1.0473,-1.2443,-1.463,-1.5805,-1.5805,-1.5798,-1.5805,-1.5805,-1.5805,-1.5866,-1.5995,-1.6029,-1.6083,-1.6212,-1.6246,-1.6151,-1.5995,-1.5879,-1.5811,-1.5805,-1.5805,-1.5839,-1.592,-1.594,-1.5988,-1.6049,-1.6144,-1.6157,-1.6171,-1.6212,-1.6246,-1.6246,-1.6252,-1.6239,-1.6239,-1.6279,-1.6334,-1.6374,-1.6402,-1.6422,-1.6402,-1.6368,-1.6361,-1.6374,-1.6381,-1.6408,-1.6422,-1.6449,-1.651,-1.6564,-1.6598,-1.6632,-1.6632,-1.6666,-1.672,-1.6754,-1.6741,-1.6768,0.0,0.0,0.0,0.0,0.0,0.0,0.0,0.0,0.0,0.0,0.0,0.0,0.0,0.0,0.0,0.0,0.0,0.0,0.0,0.0,0.0,0.0,0.0,-0.726,-0.826,-0.5703,-0.2357,-0.4339,-0.9567,-0.4372,0.0,0.0,0.0,-0.4026,-0.9508,-1.1762,-0.7288,-0.1419,0.0,0.0,0.0,0.0,0.0,0.0,0.0,0.0,0.0,0.0,0.0,0.0,0.0,0.0,0.0,-0.2024,-0.3032,-0.363,-0.7254,-0.987,-1.2279,-1.369,-1.5299,-1.5499,-1.5499,-1.611,-1.6103,-1.611,-1.6151,-1.6273,-1.6293,-1.6354,-1.6463,-1.6483,-1.6469,-1.6469,-1.6239,-1.6117,-1.6103,-1.6103,-1.6117,-1.6117,-1.611,-1.6117,-1.6151,-1.6259,-1.6307,-1.6341,-1.6415,-1.6449,-1.6463,-1.6442,-1.6497,-1.6483,-1.6435,-1.6483,-1.651,-1.6544,-1.6571,-1.6639,-1.6592,-1.6564,-1.6558,-1.6558,-1.6592,-1.6605,-1.6592,-1.6646,-1.67,-1.6741,-1.6795,-1.6836,-1.689,-1.6965,-1.6951,-1.6897,-1.6876,0.0,0.0,0.0,0.0,0.0,0.0,0.0,0.0,0.0,0.0,0.0,0.0,0.0,0.0,0.0,0.0,0.0,0.0,0.0,0.0,0.0,0.0,0.0,0.0,0.0,0.0,0.0,-0.1204,-0.3016,0.0,0.0,0.0,0.0,0.0,0.0,0.0,-0.2458,0.0,0.0,0.0,0.0,0.0,0.0,0.0,0.0,0.0,0.0,0.0,0.0,0.0,0.0,0.0,0.0,-0.1441,-0.2468,-0.3699,-0.5752,-0.76,-0.8416,-1.0457,-1.2099,-1.374,-1.4124,-1.4566,-1.6205,-1.6402,-1.6422,-1.6463,-1.6469,-1.6483,-1.6517,-1.6537,-1.653,-1.651,-1.6456,-1.6402,-1.6388,-1.6402,-1.6402,-1.6408,-1.6388,-1.6381,-1.6388,-1.6429,-1.6463,-1.6476,-1.651,-1.6551,-1.6585,-1.6578,-1.6598,-1.6544,-1.6517,-1.6592,-1.6646,-1.6673,-1.6741,-1.6856,-1.6849,-1.6788,-1.6781,-1.6775,-1.6829,-1.6876,-1.6809,-1.6829,-1.687,-1.691,-1.6971,-1.6978,-1.6978,-1.6978,-1.6978,-1.6951,-1.6944,0.0,0.0,0.0,0.0,0.0,0.0,0.0,0.0,0.0,0.0,0.0,0.0,0.0,0.0,0.0,0.0,0.0,0.0,0.0,0.0,0.0,0.0,0.0,0.0,0.0,0.0,0.0,0.0,0.0,0.0,0.0,0.0,0.0,0.0,0.0,0.0,0.0,0.0,0.0,0.0,0.0,0.0,0.0,0.0,0.0,0.0,0.0,0.0,0.0,0.0,0.0,0.0,0.0,-0.0623,-0.1661,-0.3113,-0.4558,-0.5588,-0.6627,-0.8479,-1.0124,-1.1568,-1.2395,-1.3637,-1.4867,-1.5903,-1.653,-1.6612,-1.6612,-1.6653,-1.67,-1.6714,-1.6714,-1.6727,-1.6714,-1.6659,-1.6544,-1.651,-1.6517,-1.6517,-1.6517,-1.6524,-1.6524,-1.6578,-1.6612,-1.6632,-1.67,-1.672,-1.6741,-1.6714,-1.6693,-1.6673,-1.6673,-1.6754,-1.6795,-1.6815,-1.6815,-1.6937,-1.6951,-1.6924,-1.6917,-1.691,-1.6931,-1.6965,-1.6971,-1.6978,-1.6978,-1.6978,-1.6978,-1.6978,-1.6978,-1.6978,-1.6978,-1.6978,-1.6978,0.0,0.0,0.0,0.0,0.0,0.0,0.0,0.0,0.0,0.0,0.0,0.0,0.0,0.0,0.0,0.0,0.0,0.0,0.0,0.0,0.0,0.0,0.0,0.0,0.0,0.0,0.0,0.0,0.0,0.0,0.0,0.0,0.0,0.0,0.0,0.0,0.0,0.0,0.0,0.0,0.0,0.0,0.0,0.0,0.0,0.0,0.0,0.0,0.0,0.0,0.0,0.0,0.0,0.0,-0.1042,-0.2711,-0.3544,-0.4372,-0.5821,-0.749,-0.8928,-0.9557,-1.1419,-1.3054,-1.3705,-1.5377,-1.6666,-1.6768,-1.6775,-1.6829,-1.6904,-1.6958,-1.6937,-1.6924,-1.6951,-1.6836,-1.6653,-1.6571,-1.6571,-1.6571,-1.6578,-1.6571,-1.6598,-1.6673,-1.6768,-1.6775,-1.6836,-1.6856,-1.687,-1.6863,-1.687,-1.689,-1.691,-1.6944,-1.6958,-1.6958,-1.6944,-1.6971,-1.6971,-1.6958,-1.6958,-1.6958,-1.6965,-1.6978,-1.6978,-1.6978,-1.6978,-1.6978,-1.6978,-1.6978,-1.6978,-1.6978,-1.6978,-1.6978,-1.6978,0.0,0.0,0.0,0.0,0.0,0.0,0.0,0.0,0.0,0.0,0.0,0.0,0.0,0.0,0.0,0.0,0.0,0.0,0.0,0.0,0.0,0.0,0.0,0.0,0.0,0.0,0.0,0.0,0.0,0.0,0.0,0.0,0.0,0.0,0.0,0.0,0.0,0.0,0.0,0.0,0.0,0.0,0.0,0.0,0.0,0.0,0.0,0.0,0.0,0.0,0.0,0.0,0.0,0.0,0.0,-0.1904,-0.2963,-0.3598,-0.4024,-0.4863,-0.5712,-0.7384,-0.948,-1.161,-1.3504,-1.5388,-1.6674,-1.6931,-1.6931,-1.6937,-1.6971,-1.6978,-1.6978,-1.6978,-1.6978,-1.6958,-1.6897,-1.687,-1.6856,-1.6863,-1.6863,-1.6876,-1.687,-1.687,-1.6917,-1.6931,-1.6944,-1.6971,-1.6978,-1.6978,-1.6978,-1.6978,-1.6978,-1.6978,-1.6978,-1.6978,-1.6978,-1.6978,-1.6978,-1.6978,-1.6978,-1.6978,-1.6978,-1.6978,-1.6978,-1.6978,-1.6978,-1.6978,-1.6978,-1.6978,-1.6978,-1.6978,-1.6978,-1.6978,-1.6978,0.0,0.0,0.0,0.0,0.0,0.0,0.0,0.0,0.0,0.0,0.0,0.0,0.0,0.0,0.0,0.0,0.0,0.0,0.0,0.0,0.0,0.0,0.0,0.0,0.0,0.0,0.0,0.0,0.0,0.0,0.0,0.0,0.0,0.0,0.0,0.0,0.0,0.0,0.0,0.0,0.0,0.0,0.0,0.0,0.0,0.0,0.0,0.0,0.0,0.0,0.0,0.0,0.0,0.0,0.0,-0.1066,-0.2558,-0.3198,-0.3411,-0.3411,-0.4047,-0.5111,-0.7228,-0.9557,-1.1882,-1.4007,-1.5914,-1.6761,-1.6978,-1.6978,-1.6978,-1.6978,-1.6978,-1.6978,-1.6978,-1.6978,-1.6978,-1.6978,-1.6978,-1.6978,-1.6958,-1.6965,-1.6978,-1.6978,-1.6978,-1.6951,-1.6951,-1.6978,-1.6978,-1.6978,-1.6978,-1.6978,-1.6978,-1.6978,-1.6978,-1.6978,-1.6978,-1.6978,-1.6978,-1.6978,-1.6978,-1.6978,-1.6978,-1.6978,-1.6978,-1.6978,-1.6978,-1.6978,-1.6978,-1.6978,-1.6978,-1.6978,-1.6978,-1.6978,-1.6978,0.0,0.0,0.0,0.0,0.0,0.0,0.0,0.0,0.0,0.0,0.0,0.0,0.0,0.0,0.0,0.0,0.0,0.0,0.0,0.0,0.0,0.0,0.0,0.0,0.0,0.0,0.0,0.0,0.0,0.0,0.0,0.0,0.0,0.0,0.0,0.0,0.0,0.0,0.0,0.0,0.0,0.0,0.0,0.0,0.0,0.0,0.0,0.0,0.0,0.0,0.0,0.0,0.0,0.0,0.0,0.0,-0.1918,-0.2985,-0.3411,-0.3411,-0.3411,-0.3411,-0.5534,-0.7441,-0.9768,-1.2309,-1.4429,-1.5704,-1.6551,-1.6978,-1.6978,-1.6978,-1.6978,-1.6978,-1.6978,-1.6978,-1.6978,-1.6978,-1.6978,-1.6978,-1.6978,-1.6978,-1.6978,-1.6978,-1.6978,-1.6978,-1.6978,-1.6978,-1.6978,-1.6978,-1.6978,-1.6978,-1.6978,-1.6978,-1.6978,-1.6978,-1.6978,-1.6978,-1.6978,-1.6978,-1.6978,-1.6978,-1.6978,-1.6978,-1.6978,-1.6978,-1.6978,-1.6978,-1.6978,-1.6978,-1.6978,-1.6978,-1.6978,-1.6978,-1.6978,0.0,0.0,0.0,0.0,0.0,0.0,0.0,0.0,0.0,0.0,0.0,0.0,0.0,0.0,0.0,0.0,0.0,0.0,0.0,0.0,0.0,0.0,0.0,0.0,0.0,0.0,0.0,0.0,0.0,0.0,0.0,0.0,0.0,0.0,0.0,0.0,0.0,0.0,0.0,0.0,0.0,0.0,0.0,0.0,0.0,0.0,0.0,0.0,0.0,0.0,0.0,0.0,0.0,0.0,0.0,0.0,-0.1279,-0.2345,-0.3198,-0.3411,-0.3411,-0.3837,-0.5322,-0.6592,-0.8286,-1.0826,-1.2942,-1.4639,-1.5914,-1.6978,-1.6978,-1.6978,-1.6978,-1.6978,-1.6978,-1.6978,-1.6978,-1.6978,-1.6978,-1.6978,-1.6978,-1.6978,-1.6978,-1.6978,-1.6978,-1.6978,-1.6978,-1.6978,-1.6978,-1.6978,-1.6978,-1.6978,-1.6978,-1.6978,-1.6978,-1.6978,-1.6978,-1.6978,-1.6978,-1.6978,-1.6978,-1.6978,-1.6978,-1.6978,-1.6978,-1.6978,-1.6978,-1.6978,-1.6978,-1.6978,-1.6978,-1.6978,-1.6978,-1.6978,-1.6978,0.0,0.0,0.0,0.0,0.0,0.0,0.0,0.0,0.0,0.0,0.0,0.0,0.0,0.0,0.0,0.0,0.0,0.0,0.0,0.0,0.0,0.0,0.0,0.0,0.0,0.0,0.0,0.0,0.0,0.0,0.0,0.0,0.0,0.0,0.0,0.0,0.0,0.0,0.0,0.0,0.0,0.0,0.0,0.0,0.0,0.0,0.0,0.0,0.0,0.0,0.0,0.0,0.0,0.0,0.0,0.0,0.0,-0.1705,-0.2985,-0.3198,-0.2985,-0.3411,-0.4473,-0.5534,-0.6804,-0.8921,-1.1249,-1.358,-1.5487,-1.6978,-1.6978,-1.6978,-1.6978,-1.6978,-1.6978,-1.6978,-1.6978,-1.6978,-1.6978,-1.6978,-1.6978,-1.6978,-1.6978,-1.6978,-1.6978,-1.6978,-1.6978,-1.6978,-1.6978,-1.6978,-1.6978,-1.6978,-1.6978,-1.6978,-1.6978,-1.6978,-1.6978,-1.6978,-1.6978,-1.6978,-1.6978,-1.6978,-1.6978,-1.6978,-1.6978,-1.6978,-1.6978,-1.6978,-1.6978,-1.6978,-1.6978,-1.6978,-1.6978,-1.6978,-1.6978,0.0,0.0,0.0,0.0,0.0,0.0,0.0,0.0,0.0,0.0,0.0,0.0,0.0,0.0,0.0,0.0,0.0,0.0,0.0,0.0,0.0,0.0,0.0,0.0,0.0,0.0,0.0,0.0,0.0,0.0,0.0,0.0,0.0,0.0,0.0,0.0,0.0,0.0,0.0,0.0,0.0,0.0,0.0,0.0,0.0,0.0,0.0,0.0,0.0,0.0,0.0,0.0,0.0,0.0,0.0,0.0,0.0,0.0,-0.1918,-0.2558,-0.2558,-0.3411,-0.3411,-0.4473,-0.5957,-0.7441,-0.9557,-1.2942,-1.5704,-1.6978,-1.6978,-1.6978,-1.6978,-1.6978,-1.6978,-1.6978,-1.6978,-1.6978,-1.6978,-1.6978,-1.6978,-1.6978,-1.6978,-1.6978,-1.6978,-1.6978,-1.6978,-1.6978,-1.6978,-1.6978,-1.6978,-1.6978,-1.6978,-1.6978,-1.6978,-1.6978,-1.6978,-1.6978,-1.6978,-1.6978,-1.6978,-1.6978,-1.6978,-1.6978,-1.6978,-1.6978,-1.6978,-1.6978,-1.6978,-1.6978,-1.6978,-1.6978,-1.6978,-1.6978,-1.6978,0.0,0.0,0.0,0.0,0.0,0.0,0.0,0.0,0.0,0.0,0.0,0.0,0.0,0.0,0.0,0.0,0.0,0.0,0.0,0.0,0.0,0.0,0.0,0.0,0.0,0.0,0.0,0.0,0.0,0.0,0.0,0.0,0.0,0.0,0.0,0.0,0.0,0.0,0.0,0.0,0.0,0.0,0.0,0.0,0.0,0.0,0.0,0.0,0.0,0.0,0.0,0.0,0.0,0.0,0.0,0.0,0.0,0.0,0.0,-0.1492,-0.2131,-0.2985,-0.3411,-0.3625,-0.4898,-0.7653,-1.0614,-1.3153,-1.5704,-1.6978,-1.6978,-1.6978,-1.6978,-1.6978,-1.6978,-1.6978,-1.6978,-1.6978,-1.6978,-1.6978,-1.6978,-1.6978,-1.6978,-1.6978,-1.6978,-1.6978,-1.6978,-1.6978,-1.6978,-1.6978,-1.6978,-1.6978,-1.6978,-1.6978,-1.6978,-1.6978,-1.6978,-1.6978,-1.6978,-1.6978,-1.6978,-1.6978,-1.6978,-1.6978,-1.6978,-1.6978,-1.6978,-1.6978,-1.6978,-1.6978,-1.6978,-1.6978,-1.6978,-1.6978,-1.6978,0.0,0.0,0.0,0.0,0.0,0.0,0.0,0.0,0.0,0.0,0.0,0.0,0.0,0.0,0.0,0.0,0.0,0.0,0.0,0.0,0.0,0.0,0.0,0.0,0.0,0.0,0.0,0.0,0.0,0.0,0.0,0.0,0.0,0.0,0.0,0.0,0.0,0.0,0.0,0.0,0.0,0.0,0.0,0.0,0.0,0.0,0.0,0.0,0.0,0.0,0.0,0.0,0.0,0.0,0.0,0.0,0.0,0.0,0.0,0.0,-0.1918,-0.2558,-0.2985,-0.3411,-0.4261,-0.7231,-1.0403,-1.146,-1.5066,-1.6768,-1.6978,-1.6978,-1.6978,-1.6978,-1.6978,-1.6978,-1.6978,-1.6978,-1.6978,-1.6978,-1.6978,-1.6978,-1.6978,-1.6978,-1.6978,-1.6978,-1.6978,-1.6978,-1.6978,-1.6978,-1.6978,-1.6978,-1.6978,-1.6978,-1.6978,-1.6978,-1.6978,-1.6978,-1.6978,-1.6978,-1.6978,-1.6978,-1.6978,-1.6978,-1.6978,-1.6978,-1.6978,-1.6978,-1.6978,-1.6978,-1.6978,-1.6978,-1.6978,-1.6978,-1.6978,0.0,0.0,0.0,0.0,0.0,0.0,0.0,0.0,0.0,0.0,0.0,0.0,0.0,0.0,0.0,0.0,0.0,0.0,0.0,0.0,0.0,0.0,0.0,0.0,0.0,0.0,0.0,0.0,0.0,0.0,0.0,0.0,0.0,0.0,0.0,0.0,0.0,0.0,0.0,0.0,0.0,0.0,0.0,0.0,0.0,0.0,0.0,0.0,0.0,0.0,0.0,0.0,0.0,0.0,0.0,0.0,0.0,0.0,0.0,-0.1066,-0.1492,-0.2131,-0.2558,-0.3411,-0.3835,-0.7228,-0.998,-1.0403,-1.358,-1.5914,-1.6768,-1.6978,-1.6978,-1.6978,-1.6978,-1.6978,-1.6978,-1.6978,-1.6978,-1.6978,-1.6978,-1.6978,-1.6978,-1.6978,-1.6978,-1.6978,-1.6978,-1.6978,-1.6978,-1.6978,-1.6978,-1.6978,-1.6978,-1.6978,-1.6978,-1.6978,-1.6978,-1.6978,-1.6978,-1.6978,-1.6978,-1.6978,-1.6978,-1.6978,-1.6978,-1.6978,-1.6978,-1.6978,-1.6978,-1.6978,-1.6978,-1.6978,-1.6978,-1.6978,-1.6978,0.0,0.0,0.0,0.0,0.0,0.0,0.0,0.0,0.0,0.0,0.0,0.0,0.0,0.0,0.0,0.0,0.0,0.0,0.0,0.0,0.0,0.0,0.0,0.0,0.0,0.0,0.0,0.0,0.0,0.0,0.0,0.0,0.0,0.0,0.0,0.0,0.0,0.0,0.0,0.0,0.0,0.0,0.0,0.0,0.0,0.0,0.0,0.0,0.0,0.0,0.0,0.0,0.0,0.0,0.0,0.0,0.0,0.0,0.0,-0.0853,-0.1492,-0.1918,-0.2558,-0.3411,-0.3624,-0.5532,-0.7862,-0.998,-1.2731,-1.4856,-1.6131,-1.6978,-1.6978,-1.6978,-1.6978,-1.6978,-1.6978,-1.6978,-1.6978,-1.6978,-1.6978,-1.6978,-1.6978,-1.6978,-1.6978,-1.6978,-1.6978,-1.6978,-1.6978,-1.6978,-1.6978,-1.6978,-1.6978,-1.6978,-1.6978,-1.6978,-1.6978,-1.6978,-1.6978,-1.6978,-1.6978,-1.6978,-1.6978,-1.6978,-1.6978,-1.6978,-1.6978,-1.6978,-1.6978,-1.6978,-1.6978,-1.6978,-1.6978,-1.6978,-1.6978,0.0,0.0,0.0,0.0,0.0,0.0,0.0,0.0,0.0,0.0,0.0,0.0,0.0,0.0,0.0,0.0,0.0,0.0,0.0,0.0,0.0,0.0,0.0,0.0,0.0,0.0,0.0,0.0,0.0,0.0,0.0,0.0,0.0,0.0,0.0,0.0,0.0,0.0,0.0,0.0,0.0,0.0,0.0,0.0,0.0,0.0,0.0,0.0,0.0,0.0,0.0,0.0,0.0,0.0,0.0,0.0,0.0,0.0,0.0,0.0,-0.1279,-0.2558,-0.3198,-0.3411,-0.3411,-0.5534,-0.6804,-0.8921,-1.1249,-1.358,-1.4639,-1.6124,-1.6978,-1.6978,-1.6978,-1.6978,-1.6978,-1.6978,-1.6978,-1.6978,-1.6978,-1.6978,-1.6978,-1.6978,-1.6978,-1.6978,-1.6978,-1.6978,-1.6978,-1.6978,-1.6978,-1.6978,-1.6978,-1.6978,-1.6978,-1.6978,-1.6978,-1.6978,-1.6978,-1.6978,-1.6978,-1.6978,-1.6978,-1.6978,-1.6978,-1.6978,-1.6978,-1.6978,-1.6978,-1.6978,-1.6978,-1.6978,-1.6978,-1.6978,-1.6978,0.0,0.0,0.0,0.0,0.0,0.0,0.0,0.0,0.0,0.0,0.0,0.0,0.0,0.0,0.0,0.0,0.0,0.0,0.0,0.0,0.0,0.0,0.0,0.0,0.0,0.0,0.0,0.0,0.0,0.0,0.0,0.0,0.0,0.0,0.0,0.0,0.0,0.0,0.0,0.0,0.0,0.0,0.0,0.0,0.0,0.0,0.0,0.0,0.0,0.0,0.0,0.0,0.0,0.0,0.0,0.0,0.0,0.0,0.0,0.0,0.0,-0.2345,-0.3198,-0.3411,-0.3837,-0.4898,-0.5744,-0.7228,-0.998,-1.2093,-1.2942,-1.485,-1.6341,-1.6551,-1.6978,-1.6978,-1.6978,-1.6978,-1.6978,-1.6978,-1.6978,-1.6978,-1.6978,-1.6978,-1.6978,-1.6978,-1.6978,-1.6978,-1.6978,-1.6978,-1.6978,-1.6978,-1.6978,-1.6978,-1.6978,-1.6978,-1.6978,-1.6978,-1.6978,-1.6978,-1.6978,-1.6978,-1.6978,-1.6978,-1.6978,-1.6978,-1.6978,-1.6978,-1.6978,-1.6978,-1.6978,-1.6978,-1.6978,-1.6978,-1.6978,0.0,0.0,0.0,0.0,0.0,0.0,0.0,0.0,0.0,0.0,0.0,0.0,0.0,0.0,0.0,0.0,0.0,0.0,0.0,0.0,0.0,0.0,0.0,0.0,0.0,0.0,0.0,0.0,0.0,0.0,0.0,0.0,0.0,0.0,0.0,0.0,0.0,0.0,0.0,0.0,0.0,0.0,0.0,0.0,0.0,0.0,0.0,0.0,0.0,0.0,0.0,0.0,0.0,0.0,0.0,0.0,0.0,0.0,0.0,0.0,0.0,-0.1918,-0.2772,-0.3411,-0.3411,-0.3835,-0.4473,-0.5957,-0.7438,-0.9557,-1.146,-1.3791,-1.5066,-1.5914,-1.6341,-1.6978,-1.6978,-1.6978,-1.6978,-1.6978,-1.6978,-1.6978,-1.6978,-1.6978,-1.6978,-1.6978,-1.6978,-1.6978,-1.6978,-1.6978,-1.6978,-1.6978,-1.6978,-1.6978,-1.6978,-1.6978,-1.6978,-1.6978,-1.6978,-1.6978,-1.6978,-1.6978,-1.6978,-1.6978,-1.6978,-1.6978,-1.6978,-1.6978,-1.6978,-1.6978,-1.6978,-1.6978,-1.6978,-1.6978,-1.6978,0.0,0.0,0.0,0.0,0.0,0.0,0.0,0.0,0.0,0.0,0.0,0.0,0.0,0.0,0.0,0.0,0.0,0.0,0.0,0.0,0.0,0.0,0.0,0.0,0.0,0.0,0.0,0.0,0.0,0.0,0.0,0.0,0.0,0.0,0.0,0.0,0.0,0.0,0.0,0.0,0.0,0.0,0.0,0.0,0.0,0.0,0.0,0.0,0.0,0.0,0.0,0.0,0.0,0.0,0.0,0.0,0.0,0.0,0.0,0.0,0.0,-0.1705,-0.2772,-0.3411,-0.3411,-0.3411,-0.4048,-0.4685,-0.5957,-0.7653,-0.871,-1.2093,-1.4002,-1.4639,-1.5487,-1.6551,-1.6978,-1.6978,-1.6978,-1.6978,-1.6978,-1.6978,-1.6978,-1.6978,-1.6978,-1.6978,-1.6978,-1.6978,-1.6978,-1.6978,-1.6978,-1.6978,-1.6978,-1.6978,-1.6978,-1.6978,-1.6978,-1.6978,-1.6978,-1.6978,-1.6978,-1.6978,-1.6978,-1.6978,-1.6978,-1.6978,-1.6978,-1.6978,-1.6978,-1.6978,-1.6978,-1.6978,-1.6978,-1.6978,-1.6978,0.0,0.0,0.0,0.0,0.0,0.0,0.0,0.0,0.0,0.0,0.0,0.0,0.0,0.0,0.0,0.0,0.0,0.0,0.0,0.0,0.0,0.0,0.0,0.0,0.0,0.0,0.0,0.0,0.0,0.0,0.0,0.0,0.0,0.0,0.0,0.0,0.0,0.0,0.0,0.0,0.0,0.0,0.0,0.0,0.0,0.0,0.0,0.0,0.0,0.0,0.0,0.0,0.0,0.0,0.0,0.0,0.0,0.0,0.0,0.0,0.0,-0.1705,-0.2772,-0.3411,-0.3411,-0.3411,-0.3411,-0.4048,-0.5111,-0.5957,-0.7228,-1.0826,-1.1671,-1.2309,-1.4002,-1.5277,-1.5914,-1.5914,-1.6978,-1.6978,-1.6978,-1.6978,-1.6978,-1.6978,-1.6978,-1.6978,-1.6978,-1.6978,-1.6978,-1.6978,-1.6978,-1.6978,-1.6978,-1.6978,-1.6978,-1.6978,-1.6978,-1.6978,-1.6978,-1.6978,-1.6978,-1.6978,-1.6978,-1.6978,-1.6978,-1.6978,-1.6978,-1.6978,-1.6978,-1.6978,-1.6978,-1.6978,-1.6978,-1.6978,-1.6978,0.0,0.0,0.0,0.0,0.0,0.0,0.0,0.0,0.0,0.0,0.0,0.0,0.0,0.0,0.0,0.0,0.0,0.0,0.0,0.0,0.0,0.0,0.0,0.0,0.0,0.0,0.0,0.0,0.0,0.0,0.0,0.0,0.0,0.0,0.0,0.0,0.0,0.0,0.0,0.0,0.0,0.0,0.0,0.0,0.0,0.0,0.0,0.0,0.0,0.0,0.0,0.0,0.0,0.0,0.0,0.0,0.0,0.0,0.0,0.0,0.0,-0.1918,-0.2772,-0.3198,-0.3411,-0.3411,-0.3411,-0.3411,-0.4048,-0.5109,-0.6594,-0.7441,-0.8498,-1.0192,-1.2098,-1.3153,-1.4212,-1.506,-1.6341,-1.6768,-1.6978,-1.6978,-1.6978,-1.6978,-1.6978,-1.6978,-1.6978,-1.6978,-1.6978,-1.6978,-1.6978,-1.6978,-1.6978,-1.6978,-1.6978,-1.6978,-1.6978,-1.6978,-1.6978,-1.6978,-1.6978,-1.6978,-1.6978,-1.6978,-1.6978,-1.6978,-1.6978,-1.6978,-1.6978,-1.6978,-1.6978,-1.6978,-1.6978,-1.6978,-1.6978,0.0,0.0,0.0,0.0,0.0,0.0,0.0,0.0,0.0,0.0,0.0,0.0,0.0,0.0,0.0,0.0,0.0,0.0,0.0,0.0,0.0,0.0,0.0,0.0,0.0,0.0,0.0,0.0,0.0,0.0,0.0,0.0,0.0,0.0,0.0,0.0,0.0,0.0,0.0,0.0,0.0,0.0,0.0,0.0,0.0,0.0,0.0,0.0,0.0,0.0,0.0,0.0,0.0,0.0,0.0,0.0,0.0,0.0,0.0,0.0,-0.0853,-0.2345,-0.3198,-0.3198,-0.3411,-0.3411,-0.3411,-0.3411,-0.3411,-0.4261,-0.5109,-0.5744,-0.6382,-0.7865,-0.998,-1.146,-1.252,-1.4002,-1.5487,-1.6768,-1.6978,-1.6978,-1.6978,-1.6978,-1.6978,-1.6978,-1.6978,-1.6978,-1.6978,-1.6978,-1.6978,-1.6978,-1.6978,-1.6978,-1.6978,-1.6978,-1.6978,-1.6978,-1.6978,-1.6978,-1.6978,-1.6978,-1.6978,-1.6978,-1.6978,-1.6978,-1.6978,-1.6978,-1.6978,-1.6978,-1.6978,-1.6978,-1.6978,-1.6978,-1.6978,0.0,0.0,0.0,0.0,0.0,0.0,0.0,0.0,0.0,0.0,0.0,0.0,0.0,0.0,0.0,0.0,0.0,0.0,0.0,0.0,0.0,0.0,0.0,0.0,0.0,0.0,0.0,0.0,0.0,0.0,0.0,0.0,0.0,0.0,0.0,0.0,0.0,0.0,0.0,0.0,0.0,0.0,0.0,0.0,0.0,0.0,0.0,0.0,0.0,0.0,0.0,0.0,0.0,0.0,0.0,0.0,0.0,0.0,0.0,0.0,0.0,-0.2558,-0.3411,-0.3411,-0.3411,-0.3411,-0.3411,-0.3411,-0.3411,-0.3624,-0.4048,-0.4473,-0.4898,-0.5534,-0.7653,-0.9768,-1.1249,-1.2942,-1.4639,-1.6551,-1.6978,-1.6978,-1.6978,-1.6978,-1.6978,-1.6978,-1.6978,-1.6978,-1.6978,-1.6978,-1.6978,-1.6978,-1.6978,-1.6978,-1.6978,-1.6978,-1.6978,-1.6978,-1.6978,-1.6978,-1.6978,-1.6978,-1.6978,-1.6978,-1.6978,-1.6978,-1.6978,-1.6978,-1.6978,-1.6978,-1.6978,-1.6978,-1.6978,-1.6978,-1.6978,0.0,0.0,0.0,0.0,0.0,0.0,0.0,0.0,0.0,0.0,0.0,0.0,0.0,0.0,0.0,0.0,0.0,0.0,0.0,0.0,0.0,0.0,0.0,0.0,0.0,0.0,0.0,0.0,0.0,0.0,0.0,0.0,0.0,0.0,0.0,0.0,0.0,0.0,0.0,0.0,0.0,0.0,0.0,0.0,0.0,0.0,0.0,0.0,0.0,0.0,0.0,0.0,0.0,0.0,0.0,0.0,0.0,0.0,0.0,0.0,0.0,-0.2131,-0.3198,-0.3198,-0.3198,-0.3411,-0.3411,-0.3411,-0.3411,-0.3411,-0.3837,-0.3835,-0.4048,-0.4473,-0.5747,-0.7653,-0.9345,-1.1676,-1.4639,-1.6131,-1.6978,-1.6978,-1.6978,-1.6978,-1.6978,-1.6978,-1.6978,-1.6978,-1.6978,-1.6978,-1.6978,-1.6978,-1.6978,-1.6978,-1.6978,-1.6978,-1.6978,-1.6978,-1.6978,-1.6978,-1.6978,-1.6978,-1.6978,-1.6978,-1.6978,-1.6978,-1.6978,-1.6978,-1.6978,-1.6978,-1.6978,-1.6978,-1.6978,-1.6978,-1.6978,0.0,0.0,0.0,0.0,0.0,0.0,0.0,0.0,0.0,0.0,0.0,0.0,0.0,0.0,0.0,0.0,0.0,0.0,0.0,0.0,0.0,0.0,0.0,0.0,0.0,0.0,0.0,0.0,0.0,0.0,0.0,0.0,0.0,0.0,0.0,0.0,0.0,0.0,0.0,0.0,0.0,0.0,0.0,0.0,0.0,0.0,0.0,0.0,0.0,0.0,0.0,0.0,0.0,0.0,0.0,0.0,0.0,0.0,0.0,0.0,0.0,0.0,-0.1705,-0.2558,-0.2985,-0.3198,-0.3411,-0.3411,-0.3411,-0.3411,-0.3411,-0.3411,-0.3411,-0.3624,-0.4048,-0.5747,-0.7653,-1.1037,-1.4218,-1.5493,-1.6551,-1.6978,-1.6978,-1.6978,-1.6978,-1.6978,-1.6978,-1.6978,-1.6978,-1.6978,-1.6978,-1.6978,-1.6978,-1.6978,-1.6978,-1.6978,-1.6978,-1.6978,-1.6978,-1.6978,-1.6978,-1.6978,-1.6978,-1.6978,-1.6978,-1.6978,-1.6978,-1.6978,-1.6978,-1.6978,-1.6978,-1.6978,-1.6978,-1.6978,-1.6978,0.0,0.0,0.0,0.0,0.0,0.0,0.0,0.0,0.0,0.0,0.0,0.0,0.0,0.0,0.0,0.0,0.0,0.0,0.0,0.0,0.0,0.0,0.0,0.0,0.0,0.0,0.0,0.0,0.0,0.0,0.0,0.0,0.0,0.0,0.0,0.0,0.0,0.0,0.0,0.0,0.0,0.0,0.0,0.0,0.0,0.0,0.0,0.0,0.0,0.0,0.0,0.0,0.0,0.0,0.0,0.0,0.0,0.0,0.0,0.0,0.0,0.0,-0.1066,-0.2132,-0.3198,-0.3411,-0.3411,-0.3411,-0.3411,-0.3411,-0.3411,-0.3411,-0.3411,-0.3624,-0.3837,-0.4898,-0.7653,-1.0826,-1.3153,-1.4429,-1.5704,-1.6978,-1.6978,-1.6978,-1.6978,-1.6978,-1.6978,-1.6978,-1.6978,-1.6978,-1.6978,-1.6978,-1.6978,-1.6978,-1.6978,-1.6978,-1.6978,-1.6978,-1.6978,-1.6978,-1.6978,-1.6978,-1.6978,-1.6978,-1.6978,-1.6978,-1.6978,-1.6978,-1.6978,-1.6978,-1.6978,-1.6978,-1.6978,-1.6978,-1.6978,0.0,0.0,0.0,0.0,0.0,0.0,0.0,0.0,0.0,0.0,0.0,0.0,0.0,0.0,0.0,0.0,0.0,0.0,0.0,0.0,0.0,0.0,0.0,0.0,0.0,0.0,0.0,0.0,0.0,0.0,0.0,0.0,0.0,0.0,0.0,0.0,0.0,0.0,0.0,0.0,0.0,0.0,0.0,0.0,0.0,0.0,0.0,0.0,0.0,0.0,0.0,0.0,0.0,0.0,0.0,0.0,0.0,0.0,0.0,0.0,0.0,0.0,0.0,-0.2131,-0.2985,-0.3411,-0.3411,-0.3411,-0.3411,-0.3411,-0.3411,-0.3411,-0.3411,-0.3411,-0.3624,-0.4261,-0.7441,-1.0192,-1.1671,-1.3153,-1.485,-1.6341,-1.6978,-1.6978,-1.6978,-1.6978,-1.6978,-1.6978,-1.6978,-1.6978,-1.6978,-1.6978,-1.6978,-1.6978,-1.6978,-1.6978,-1.6978,-1.6978,-1.6978,-1.6978,-1.6978,-1.6978,-1.6978,-1.6978,-1.6978,-1.6978,-1.6978,-1.6978,-1.6978,-1.6978,-1.6978,-1.6978,-1.6978,-1.6978,-1.6978,0.0,0.0,0.0,0.0,0.0,0.0,0.0,0.0,0.0,0.0,0.0,0.0,0.0,0.0,0.0,0.0,0.0,0.0,0.0,0.0,0.0,0.0,0.0,0.0,0.0,0.0,0.0,0.0,0.0,0.0,0.0,0.0,0.0,0.0,0.0,0.0,0.0,0.0,0.0,0.0,0.0,0.0,0.0,0.0,0.0,0.0,0.0,0.0,0.0,0.0,0.0,0.0,0.0,0.0,0.0,0.0,0.0,0.0,0.0,0.0,0.0,0.0,-0.1066,-0.2131,-0.2772,-0.3411,-0.3411,-0.3411,-0.3411,-0.3411,-0.3411,-0.3411,-0.3411,-0.3411,-0.3624,-0.4685,-0.6594,-0.8074,-0.9345,-1.146,-1.358,-1.5277,-1.6551,-1.6761,-1.6978,-1.6978,-1.6978,-1.6978,-1.6978,-1.6978,-1.6978,-1.6978,-1.6978,-1.6978,-1.6978,-1.6978,-1.6978,-1.6978,-1.6978,-1.6978,-1.6978,-1.6978,-1.6978,-1.6978,-1.6978,-1.6978,-1.6978,-1.6978,-1.6978,-1.6978,-1.6978,-1.6978,-1.6978,-1.6978,-1.6978]}]]